<?xml version="1.0" encoding="UTF-8" standalone="no" ?>
<gpx xmlns="http://www.topografix.com/GPX/1/1" xmlns:xsi="http://www.w3.org/2001/XMLSchema-instance" xsi:schemaLocation="http://www.topografix.com/GPX/1/1 http://www.topografix.com/GPX/1/1/gpx.xsd" version="1.1" creator="VisuGPX - https://www.visugpx.com">
  <metadata>
    <name>la plagne</name>
    <desc><![CDATA[corinne,daniel,et moi]]></desc>
  </metadata>
  <trk>
    <name><![CDATA[ven. 22/mars/2013 10:17:50]]></name>
    <trkseg>
      <trkpt lat="45.53477" lon="6.63743">
        <ele>1284.4000244141</ele>
        <time>2013-03-22T09:17:51Z</time>
      </trkpt>
      <trkpt lat="45.53478" lon="6.63704">
        <ele>1308.5</ele>
        <time>2013-03-22T09:18:00Z</time>
      </trkpt>
      <trkpt lat="45.53475" lon="6.63664">
        <ele>1325.0999755859</ele>
        <time>2013-03-22T09:18:49Z</time>
      </trkpt>
      <trkpt lat="45.53443" lon="6.63658">
        <ele>1343.0999755859</ele>
        <time>2013-03-22T09:18:57Z</time>
      </trkpt>
      <trkpt lat="45.53413" lon="6.63659">
        <ele>1351.8000488281</ele>
        <time>2013-03-22T09:19:04Z</time>
      </trkpt>
      <trkpt lat="45.53383" lon="6.63651">
        <ele>1366.8000488281</ele>
        <time>2013-03-22T09:19:13Z</time>
      </trkpt>
      <trkpt lat="45.53355" lon="6.6365">
        <ele>1378.5</ele>
        <time>2013-03-22T09:19:20Z</time>
      </trkpt>
      <trkpt lat="45.53325" lon="6.6365">
        <ele>1389.5999755859</ele>
        <time>2013-03-22T09:19:29Z</time>
      </trkpt>
      <trkpt lat="45.53295" lon="6.6365">
        <ele>1400.5999755859</ele>
        <time>2013-03-22T09:19:38Z</time>
      </trkpt>
      <trkpt lat="45.53265" lon="6.63646">
        <ele>1415.5</ele>
        <time>2013-03-22T09:19:47Z</time>
      </trkpt>
      <trkpt lat="45.53237" lon="6.63643">
        <ele>1424.8000488281</ele>
        <time>2013-03-22T09:19:55Z</time>
      </trkpt>
      <trkpt lat="45.53209" lon="6.63642">
        <ele>1439.5</ele>
        <time>2013-03-22T09:20:04Z</time>
      </trkpt>
      <trkpt lat="45.5318" lon="6.63641">
        <ele>1447.1999511719</ele>
        <time>2013-03-22T09:20:13Z</time>
      </trkpt>
      <trkpt lat="45.53152" lon="6.6364">
        <ele>1451.9000244141</ele>
        <time>2013-03-22T09:20:24Z</time>
      </trkpt>
      <trkpt lat="45.53122" lon="6.6364">
        <ele>1469.1999511719</ele>
        <time>2013-03-22T09:20:33Z</time>
      </trkpt>
      <trkpt lat="45.53093" lon="6.63637">
        <ele>1484.3000488281</ele>
        <time>2013-03-22T09:20:39Z</time>
      </trkpt>
      <trkpt lat="45.53063" lon="6.63635">
        <ele>1495.3000488281</ele>
        <time>2013-03-22T09:20:46Z</time>
      </trkpt>
      <trkpt lat="45.53034" lon="6.63635">
        <ele>1499.8000488281</ele>
        <time>2013-03-22T09:20:55Z</time>
      </trkpt>
      <trkpt lat="45.53006" lon="6.63631">
        <ele>1508.8000488281</ele>
        <time>2013-03-22T09:21:05Z</time>
      </trkpt>
      <trkpt lat="45.52978" lon="6.63628">
        <ele>1519.3000488281</ele>
        <time>2013-03-22T09:21:13Z</time>
      </trkpt>
      <trkpt lat="45.5295" lon="6.63629">
        <ele>1529.5</ele>
        <time>2013-03-22T09:21:21Z</time>
      </trkpt>
      <trkpt lat="45.5292" lon="6.63628">
        <ele>1535.3000488281</ele>
        <time>2013-03-22T09:21:29Z</time>
      </trkpt>
      <trkpt lat="45.52891" lon="6.63626">
        <ele>1545</ele>
        <time>2013-03-22T09:21:40Z</time>
      </trkpt>
      <trkpt lat="45.52862" lon="6.63625">
        <ele>1548.8000488281</ele>
        <time>2013-03-22T09:21:49Z</time>
      </trkpt>
      <trkpt lat="45.52833" lon="6.63614">
        <ele>1562.0999755859</ele>
        <time>2013-03-22T09:22:02Z</time>
      </trkpt>
      <trkpt lat="45.52806" lon="6.63608">
        <ele>1567.0999755859</ele>
        <time>2013-03-22T09:22:08Z</time>
      </trkpt>
      <trkpt lat="45.52778" lon="6.63607">
        <ele>1578.5</ele>
        <time>2013-03-22T09:22:15Z</time>
      </trkpt>
      <trkpt lat="45.5274" lon="6.63643">
        <ele>1604.5999755859</ele>
        <time>2013-03-22T09:22:34Z</time>
      </trkpt>
      <trkpt lat="45.52713" lon="6.63651">
        <ele>1611.1999511719</ele>
        <time>2013-03-22T09:24:03Z</time>
      </trkpt>
      <trkpt lat="45.52689" lon="6.63677">
        <ele>1617.6999511719</ele>
        <time>2013-03-22T09:24:15Z</time>
      </trkpt>
      <trkpt lat="45.52669" lon="6.63703">
        <ele>1631.4000244141</ele>
        <time>2013-03-22T09:24:30Z</time>
      </trkpt>
      <trkpt lat="45.52649" lon="6.6373">
        <ele>1644.9000244141</ele>
        <time>2013-03-22T09:24:47Z</time>
      </trkpt>
      <trkpt lat="45.52629" lon="6.63758">
        <ele>1653.0999755859</ele>
        <time>2013-03-22T09:25:03Z</time>
      </trkpt>
      <trkpt lat="45.52609" lon="6.63789">
        <ele>1676.5</ele>
        <time>2013-03-22T09:25:19Z</time>
      </trkpt>
      <trkpt lat="45.52589" lon="6.63818">
        <ele>1692.4000244141</ele>
        <time>2013-03-22T09:25:34Z</time>
      </trkpt>
      <trkpt lat="45.52567" lon="6.63844">
        <ele>1707.4000244141</ele>
        <time>2013-03-22T09:25:48Z</time>
      </trkpt>
      <trkpt lat="45.52546" lon="6.6387">
        <ele>1720.8000488281</ele>
        <time>2013-03-22T09:26:03Z</time>
      </trkpt>
      <trkpt lat="45.52527" lon="6.63898">
        <ele>1728.0999755859</ele>
        <time>2013-03-22T09:26:19Z</time>
      </trkpt>
      <trkpt lat="45.52502" lon="6.63921">
        <ele>1734.8000488281</ele>
        <time>2013-03-22T09:26:33Z</time>
      </trkpt>
      <trkpt lat="45.52479" lon="6.63946">
        <ele>1745.5999755859</ele>
        <time>2013-03-22T09:26:46Z</time>
      </trkpt>
      <trkpt lat="45.5246" lon="6.63976">
        <ele>1755.9000244141</ele>
        <time>2013-03-22T09:27:02Z</time>
      </trkpt>
      <trkpt lat="45.52439" lon="6.64003">
        <ele>1764.0999755859</ele>
        <time>2013-03-22T09:27:16Z</time>
      </trkpt>
      <trkpt lat="45.52417" lon="6.64029">
        <ele>1771.3000488281</ele>
        <time>2013-03-22T09:27:29Z</time>
      </trkpt>
      <trkpt lat="45.52402" lon="6.64063">
        <ele>1781.9000244141</ele>
        <time>2013-03-22T09:27:48Z</time>
      </trkpt>
      <trkpt lat="45.52376" lon="6.64084">
        <ele>1787.5</ele>
        <time>2013-03-22T09:27:59Z</time>
      </trkpt>
      <trkpt lat="45.52354" lon="6.6411">
        <ele>1795.9000244141</ele>
        <time>2013-03-22T09:28:12Z</time>
      </trkpt>
      <trkpt lat="45.52333" lon="6.64138">
        <ele>1802.9000244141</ele>
        <time>2013-03-22T09:28:27Z</time>
      </trkpt>
      <trkpt lat="45.52311" lon="6.64167">
        <ele>1810.6999511719</ele>
        <time>2013-03-22T09:28:42Z</time>
      </trkpt>
      <trkpt lat="45.52288" lon="6.64192">
        <ele>1815.4000244141</ele>
        <time>2013-03-22T09:28:58Z</time>
      </trkpt>
      <trkpt lat="45.52269" lon="6.6422">
        <ele>1819</ele>
        <time>2013-03-22T09:29:11Z</time>
      </trkpt>
      <trkpt lat="45.52249" lon="6.6425">
        <ele>1823.4000244141</ele>
        <time>2013-03-22T09:29:25Z</time>
      </trkpt>
      <trkpt lat="45.52227" lon="6.64279">
        <ele>1827.3000488281</ele>
        <time>2013-03-22T09:29:40Z</time>
      </trkpt>
      <trkpt lat="45.52206" lon="6.64306">
        <ele>1830</ele>
        <time>2013-03-22T09:29:53Z</time>
      </trkpt>
      <trkpt lat="45.52186" lon="6.64333">
        <ele>1831.9000244141</ele>
        <time>2013-03-22T09:30:07Z</time>
      </trkpt>
      <trkpt lat="45.52161" lon="6.64356">
        <ele>1832.3000488281</ele>
        <time>2013-03-22T09:30:21Z</time>
      </trkpt>
      <trkpt lat="45.52136" lon="6.6438">
        <ele>1838.0999755859</ele>
        <time>2013-03-22T09:30:38Z</time>
      </trkpt>
      <trkpt lat="45.52118" lon="6.64412">
        <ele>1853.5999755859</ele>
        <time>2013-03-22T09:30:53Z</time>
      </trkpt>
      <trkpt lat="45.521" lon="6.64444">
        <ele>1871.8000488281</ele>
        <time>2013-03-22T09:31:08Z</time>
      </trkpt>
      <trkpt lat="45.52077" lon="6.6447">
        <ele>1886</ele>
        <time>2013-03-22T09:31:23Z</time>
      </trkpt>
      <trkpt lat="45.52057" lon="6.64499">
        <ele>1895.5999755859</ele>
        <time>2013-03-22T09:31:38Z</time>
      </trkpt>
      <trkpt lat="45.52036" lon="6.64528">
        <ele>1908.1999511719</ele>
        <time>2013-03-22T09:31:53Z</time>
      </trkpt>
      <trkpt lat="45.52018" lon="6.64558">
        <ele>1917.5</ele>
        <time>2013-03-22T09:32:11Z</time>
      </trkpt>
      <trkpt lat="45.51999" lon="6.64587">
        <ele>1927.1999511719</ele>
        <time>2013-03-22T09:32:27Z</time>
      </trkpt>
      <trkpt lat="45.51978" lon="6.64616">
        <ele>1938.4000244141</ele>
        <time>2013-03-22T09:32:44Z</time>
      </trkpt>
      <trkpt lat="45.51956" lon="6.64639">
        <ele>1951.0999755859</ele>
        <time>2013-03-22T09:32:56Z</time>
      </trkpt>
      <trkpt lat="45.51935" lon="6.64665">
        <ele>1965.5999755859</ele>
        <time>2013-03-22T09:33:13Z</time>
      </trkpt>
      <trkpt lat="45.51913" lon="6.64693">
        <ele>1965.9000244141</ele>
        <time>2013-03-22T09:33:28Z</time>
      </trkpt>
      <trkpt lat="45.51891" lon="6.6472">
        <ele>1966.4000244141</ele>
        <time>2013-03-22T09:33:41Z</time>
      </trkpt>
      <trkpt lat="45.5187" lon="6.64747">
        <ele>1967</ele>
        <time>2013-03-22T09:33:54Z</time>
      </trkpt>
      <trkpt lat="45.51849" lon="6.64775">
        <ele>1965.8000488281</ele>
        <time>2013-03-22T09:34:08Z</time>
      </trkpt>
      <trkpt lat="45.51829" lon="6.64803">
        <ele>1964.1999511719</ele>
        <time>2013-03-22T09:34:23Z</time>
      </trkpt>
      <trkpt lat="45.51807" lon="6.64829">
        <ele>1962.6999511719</ele>
        <time>2013-03-22T09:34:37Z</time>
      </trkpt>
      <trkpt lat="45.51786" lon="6.64856">
        <ele>1959.9000244141</ele>
        <time>2013-03-22T09:34:51Z</time>
      </trkpt>
      <trkpt lat="45.51765" lon="6.64884">
        <ele>1961.4000244141</ele>
        <time>2013-03-22T09:35:05Z</time>
      </trkpt>
      <trkpt lat="45.51743" lon="6.64909">
        <ele>1968.0999755859</ele>
        <time>2013-03-22T09:35:19Z</time>
      </trkpt>
      <trkpt lat="45.51722" lon="6.64936">
        <ele>1974.4000244141</ele>
        <time>2013-03-22T09:35:33Z</time>
      </trkpt>
      <trkpt lat="45.517" lon="6.64964">
        <ele>1983</ele>
        <time>2013-03-22T09:35:47Z</time>
      </trkpt>
      <trkpt lat="45.51679" lon="6.64991">
        <ele>1988.8000488281</ele>
        <time>2013-03-22T09:36:01Z</time>
      </trkpt>
      <trkpt lat="45.51682" lon="6.65031">
        <ele>1982.8000488281</ele>
        <time>2013-03-22T09:36:22Z</time>
      </trkpt>
      <trkpt lat="45.51697" lon="6.65064">
        <ele>1973.6999511719</ele>
        <time>2013-03-22T09:36:48Z</time>
      </trkpt>
      <trkpt lat="45.51723" lon="6.65086">
        <ele>1967.9000244141</ele>
        <time>2013-03-22T09:36:54Z</time>
      </trkpt>
      <trkpt lat="45.51738" lon="6.6512">
        <ele>1965</ele>
        <time>2013-03-22T09:37:00Z</time>
      </trkpt>
      <trkpt lat="45.51759" lon="6.65148">
        <ele>1957.5999755859</ele>
        <time>2013-03-22T09:37:20Z</time>
      </trkpt>
      <trkpt lat="45.51788" lon="6.65172">
        <ele>1947.0999755859</ele>
        <time>2013-03-22T09:37:26Z</time>
      </trkpt>
      <trkpt lat="45.5182" lon="6.65178">
        <ele>1935.0999755859</ele>
        <time>2013-03-22T09:37:30Z</time>
      </trkpt>
      <trkpt lat="45.51849" lon="6.65186">
        <ele>1924</ele>
        <time>2013-03-22T09:37:33Z</time>
      </trkpt>
      <trkpt lat="45.51881" lon="6.65191">
        <ele>1915.1999511719</ele>
        <time>2013-03-22T09:37:36Z</time>
      </trkpt>
      <trkpt lat="45.51906" lon="6.65215">
        <ele>1912.5999755859</ele>
        <time>2013-03-22T09:37:39Z</time>
      </trkpt>
      <trkpt lat="45.51914" lon="6.65254">
        <ele>1911.5999755859</ele>
        <time>2013-03-22T09:37:41Z</time>
      </trkpt>
      <trkpt lat="45.51909" lon="6.65295">
        <ele>1911.5999755859</ele>
        <time>2013-03-22T09:37:44Z</time>
      </trkpt>
      <trkpt lat="45.5191" lon="6.65337">
        <ele>1910.5</ele>
        <time>2013-03-22T09:37:48Z</time>
      </trkpt>
      <trkpt lat="45.51912" lon="6.65378">
        <ele>1911.0999755859</ele>
        <time>2013-03-22T09:37:52Z</time>
      </trkpt>
      <trkpt lat="45.51913" lon="6.65421">
        <ele>1912.5999755859</ele>
        <time>2013-03-22T09:37:57Z</time>
      </trkpt>
      <trkpt lat="45.51908" lon="6.65469">
        <ele>1912.6999511719</ele>
        <time>2013-03-22T09:38:02Z</time>
      </trkpt>
      <trkpt lat="45.51903" lon="6.65516">
        <ele>1913.4000244141</ele>
        <time>2013-03-22T09:38:07Z</time>
      </trkpt>
      <trkpt lat="45.51901" lon="6.65556">
        <ele>1911.1999511719</ele>
        <time>2013-03-22T09:38:11Z</time>
      </trkpt>
      <trkpt lat="45.51907" lon="6.65598">
        <ele>1906.8000488281</ele>
        <time>2013-03-22T09:38:15Z</time>
      </trkpt>
      <trkpt lat="45.51919" lon="6.65645">
        <ele>1901.5</ele>
        <time>2013-03-22T09:38:19Z</time>
      </trkpt>
      <trkpt lat="45.51925" lon="6.65689">
        <ele>1901.5999755859</ele>
        <time>2013-03-22T09:38:23Z</time>
      </trkpt>
      <trkpt lat="45.51903" lon="6.65718">
        <ele>1896.1999511719</ele>
        <time>2013-03-22T09:39:06Z</time>
      </trkpt>
      <trkpt lat="45.51882" lon="6.6575">
        <ele>1888.1999511719</ele>
        <time>2013-03-22T09:39:11Z</time>
      </trkpt>
      <trkpt lat="45.51862" lon="6.65777">
        <ele>1879</ele>
        <time>2013-03-22T09:39:16Z</time>
      </trkpt>
      <trkpt lat="45.51844" lon="6.65811">
        <ele>1862.9000244141</ele>
        <time>2013-03-22T09:39:22Z</time>
      </trkpt>
      <trkpt lat="45.51819" lon="6.65833">
        <ele>1849.4000244141</ele>
        <time>2013-03-22T09:39:26Z</time>
      </trkpt>
      <trkpt lat="45.51801" lon="6.65873">
        <ele>1835.5999755859</ele>
        <time>2013-03-22T09:39:30Z</time>
      </trkpt>
      <trkpt lat="45.51782" lon="6.65905">
        <ele>1826.5999755859</ele>
        <time>2013-03-22T09:39:34Z</time>
      </trkpt>
      <trkpt lat="45.51778" lon="6.65946">
        <ele>1818.8000488281</ele>
        <time>2013-03-22T09:39:37Z</time>
      </trkpt>
      <trkpt lat="45.51764" lon="6.6598">
        <ele>1812.4000244141</ele>
        <time>2013-03-22T09:39:40Z</time>
      </trkpt>
      <trkpt lat="45.51745" lon="6.66011">
        <ele>1809</ele>
        <time>2013-03-22T09:39:43Z</time>
      </trkpt>
      <trkpt lat="45.51723" lon="6.66035">
        <ele>1800.5</ele>
        <time>2013-03-22T09:41:08Z</time>
      </trkpt>
      <trkpt lat="45.51693" lon="6.66035">
        <ele>1809.3000488281</ele>
        <time>2013-03-22T09:41:18Z</time>
      </trkpt>
      <trkpt lat="45.51665" lon="6.66032">
        <ele>1813.3000488281</ele>
        <time>2013-03-22T09:41:26Z</time>
      </trkpt>
      <trkpt lat="45.51637" lon="6.66044">
        <ele>1831.4000244141</ele>
        <time>2013-03-22T09:41:43Z</time>
      </trkpt>
      <trkpt lat="45.5161" lon="6.66054">
        <ele>1844.9000244141</ele>
        <time>2013-03-22T09:41:58Z</time>
      </trkpt>
      <trkpt lat="45.51582" lon="6.66061">
        <ele>1858.1999511719</ele>
        <time>2013-03-22T09:42:11Z</time>
      </trkpt>
      <trkpt lat="45.51554" lon="6.66074">
        <ele>1865.1999511719</ele>
        <time>2013-03-22T09:42:31Z</time>
      </trkpt>
      <trkpt lat="45.51528" lon="6.66085">
        <ele>1878.1999511719</ele>
        <time>2013-03-22T09:42:46Z</time>
      </trkpt>
      <trkpt lat="45.515" lon="6.66091">
        <ele>1884.5</ele>
        <time>2013-03-22T09:43:02Z</time>
      </trkpt>
      <trkpt lat="45.51473" lon="6.66099">
        <ele>1895.9000244141</ele>
        <time>2013-03-22T09:43:19Z</time>
      </trkpt>
      <trkpt lat="45.51446" lon="6.66109">
        <ele>1911.4000244141</ele>
        <time>2013-03-22T09:43:35Z</time>
      </trkpt>
      <trkpt lat="45.5142" lon="6.66124">
        <ele>1929.5999755859</ele>
        <time>2013-03-22T09:43:50Z</time>
      </trkpt>
      <trkpt lat="45.51394" lon="6.66138">
        <ele>1939.9000244141</ele>
        <time>2013-03-22T09:44:01Z</time>
      </trkpt>
      <trkpt lat="45.51366" lon="6.66143">
        <ele>1959.9000244141</ele>
        <time>2013-03-22T09:44:20Z</time>
      </trkpt>
      <trkpt lat="45.51339" lon="6.66155">
        <ele>1976.9000244141</ele>
        <time>2013-03-22T09:44:39Z</time>
      </trkpt>
      <trkpt lat="45.51311" lon="6.66161">
        <ele>1993.8000488281</ele>
        <time>2013-03-22T09:44:57Z</time>
      </trkpt>
      <trkpt lat="45.51283" lon="6.66168">
        <ele>2013.6000976562</ele>
        <time>2013-03-22T09:45:19Z</time>
      </trkpt>
      <trkpt lat="45.51254" lon="6.66172">
        <ele>2035.3999023438</ele>
        <time>2013-03-22T09:45:38Z</time>
      </trkpt>
      <trkpt lat="45.51226" lon="6.66183">
        <ele>2051.5</ele>
        <time>2013-03-22T09:45:54Z</time>
      </trkpt>
      <trkpt lat="45.51197" lon="6.66189">
        <ele>2060.5</ele>
        <time>2013-03-22T09:46:11Z</time>
      </trkpt>
      <trkpt lat="45.5117" lon="6.66198">
        <ele>2073.5</ele>
        <time>2013-03-22T09:46:27Z</time>
      </trkpt>
      <trkpt lat="45.51143" lon="6.66208">
        <ele>2082.6999511719</ele>
        <time>2013-03-22T09:46:43Z</time>
      </trkpt>
      <trkpt lat="45.51115" lon="6.66216">
        <ele>2092.3999023438</ele>
        <time>2013-03-22T09:46:58Z</time>
      </trkpt>
      <trkpt lat="45.51088" lon="6.66224">
        <ele>2101.6000976562</ele>
        <time>2013-03-22T09:47:13Z</time>
      </trkpt>
      <trkpt lat="45.5106" lon="6.66234">
        <ele>2108.3999023438</ele>
        <time>2013-03-22T09:47:28Z</time>
      </trkpt>
      <trkpt lat="45.51033" lon="6.6624">
        <ele>2113.3999023438</ele>
        <time>2013-03-22T09:47:45Z</time>
      </trkpt>
      <trkpt lat="45.51005" lon="6.66251">
        <ele>2125.1999511719</ele>
        <time>2013-03-22T09:48:00Z</time>
      </trkpt>
      <trkpt lat="45.50978" lon="6.66259">
        <ele>2132.1000976562</ele>
        <time>2013-03-22T09:48:16Z</time>
      </trkpt>
      <trkpt lat="45.5095" lon="6.66268">
        <ele>2138.1999511719</ele>
        <time>2013-03-22T09:48:32Z</time>
      </trkpt>
      <trkpt lat="45.50923" lon="6.66277">
        <ele>2149.3000488281</ele>
        <time>2013-03-22T09:48:47Z</time>
      </trkpt>
      <trkpt lat="45.50895" lon="6.66288">
        <ele>2159.8999023438</ele>
        <time>2013-03-22T09:49:02Z</time>
      </trkpt>
      <trkpt lat="45.50867" lon="6.66296">
        <ele>2170.3000488281</ele>
        <time>2013-03-22T09:49:21Z</time>
      </trkpt>
      <trkpt lat="45.50839" lon="6.66303">
        <ele>2184.8000488281</ele>
        <time>2013-03-22T09:49:39Z</time>
      </trkpt>
      <trkpt lat="45.50812" lon="6.66311">
        <ele>2201.3000488281</ele>
        <time>2013-03-22T09:49:55Z</time>
      </trkpt>
      <trkpt lat="45.50783" lon="6.66319">
        <ele>2215.1999511719</ele>
        <time>2013-03-22T09:50:13Z</time>
      </trkpt>
      <trkpt lat="45.50755" lon="6.66327">
        <ele>2223</ele>
        <time>2013-03-22T09:50:30Z</time>
      </trkpt>
      <trkpt lat="45.50728" lon="6.66337">
        <ele>2224.3000488281</ele>
        <time>2013-03-22T09:50:47Z</time>
      </trkpt>
      <trkpt lat="45.50702" lon="6.66348">
        <ele>2227.3999023438</ele>
        <time>2013-03-22T09:51:00Z</time>
      </trkpt>
      <trkpt lat="45.50673" lon="6.66358">
        <ele>2224.3000488281</ele>
        <time>2013-03-22T09:51:08Z</time>
      </trkpt>
      <trkpt lat="45.50656" lon="6.66391">
        <ele>2219.3999023438</ele>
        <time>2013-03-22T09:51:44Z</time>
      </trkpt>
      <trkpt lat="45.50657" lon="6.66432">
        <ele>2203.8999023438</ele>
        <time>2013-03-22T09:51:49Z</time>
      </trkpt>
      <trkpt lat="45.50649" lon="6.6647">
        <ele>2189.6000976562</ele>
        <time>2013-03-22T09:51:53Z</time>
      </trkpt>
      <trkpt lat="45.5064" lon="6.66511">
        <ele>2175.6999511719</ele>
        <time>2013-03-22T09:51:57Z</time>
      </trkpt>
      <trkpt lat="45.50623" lon="6.66552">
        <ele>2160.8000488281</ele>
        <time>2013-03-22T09:52:02Z</time>
      </trkpt>
      <trkpt lat="45.50612" lon="6.66593">
        <ele>2147.8999023438</ele>
        <time>2013-03-22T09:52:06Z</time>
      </trkpt>
      <trkpt lat="45.50602" lon="6.66639">
        <ele>2139.6000976562</ele>
        <time>2013-03-22T09:52:11Z</time>
      </trkpt>
      <trkpt lat="45.5059" lon="6.66675">
        <ele>2129.8000488281</ele>
        <time>2013-03-22T09:52:15Z</time>
      </trkpt>
      <trkpt lat="45.50592" lon="6.66715">
        <ele>2122.1999511719</ele>
        <time>2013-03-22T09:52:19Z</time>
      </trkpt>
      <trkpt lat="45.50598" lon="6.66763">
        <ele>2110.3000488281</ele>
        <time>2013-03-22T09:52:25Z</time>
      </trkpt>
      <trkpt lat="45.50592" lon="6.66814">
        <ele>2096.1000976562</ele>
        <time>2013-03-22T09:52:31Z</time>
      </trkpt>
      <trkpt lat="45.50589" lon="6.66858">
        <ele>2087.1000976562</ele>
        <time>2013-03-22T09:52:34Z</time>
      </trkpt>
      <trkpt lat="45.50581" lon="6.66895">
        <ele>2078.8000488281</ele>
        <time>2013-03-22T09:52:45Z</time>
      </trkpt>
      <trkpt lat="45.50581" lon="6.66947">
        <ele>2062.1999511719</ele>
        <time>2013-03-22T09:53:28Z</time>
      </trkpt>
      <trkpt lat="45.5057" lon="6.66984">
        <ele>2054.6000976562</ele>
        <time>2013-03-22T09:53:31Z</time>
      </trkpt>
      <trkpt lat="45.50568" lon="6.67035">
        <ele>2043.1000976562</ele>
        <time>2013-03-22T09:53:34Z</time>
      </trkpt>
      <trkpt lat="45.50557" lon="6.67074">
        <ele>2032.5</ele>
        <time>2013-03-22T09:53:37Z</time>
      </trkpt>
      <trkpt lat="45.50545" lon="6.67111">
        <ele>2025.6999511719</ele>
        <time>2013-03-22T09:53:40Z</time>
      </trkpt>
      <trkpt lat="45.50531" lon="6.6715">
        <ele>2021.3999023438</ele>
        <time>2013-03-22T09:53:43Z</time>
      </trkpt>
      <trkpt lat="45.50515" lon="6.67189">
        <ele>2014.8000488281</ele>
        <time>2013-03-22T09:53:46Z</time>
      </trkpt>
      <trkpt lat="45.50508" lon="6.67229">
        <ele>2010.6000976562</ele>
        <time>2013-03-22T09:53:49Z</time>
      </trkpt>
      <trkpt lat="45.50503" lon="6.67279">
        <ele>2004.8000488281</ele>
        <time>2013-03-22T09:53:52Z</time>
      </trkpt>
      <trkpt lat="45.50495" lon="6.67329">
        <ele>2004.1000976562</ele>
        <time>2013-03-22T09:53:55Z</time>
      </trkpt>
      <trkpt lat="45.50482" lon="6.67377">
        <ele>2004.1000976562</ele>
        <time>2013-03-22T09:53:58Z</time>
      </trkpt>
      <trkpt lat="45.50481" lon="6.67419">
        <ele>2002.8000488281</ele>
        <time>2013-03-22T09:54:01Z</time>
      </trkpt>
      <trkpt lat="45.50481" lon="6.67466">
        <ele>2001.5</ele>
        <time>2013-03-22T09:54:05Z</time>
      </trkpt>
      <trkpt lat="45.50485" lon="6.67508">
        <ele>1999.9000244141</ele>
        <time>2013-03-22T09:54:09Z</time>
      </trkpt>
      <trkpt lat="45.50494" lon="6.67546">
        <ele>1999.3000488281</ele>
        <time>2013-03-22T09:54:14Z</time>
      </trkpt>
      <trkpt lat="45.50506" lon="6.67585">
        <ele>1999.1999511719</ele>
        <time>2013-03-22T09:54:20Z</time>
      </trkpt>
      <trkpt lat="45.50514" lon="6.67623">
        <ele>1998.8000488281</ele>
        <time>2013-03-22T09:54:28Z</time>
      </trkpt>
      <trkpt lat="45.50519" lon="6.67663">
        <ele>1998.5999755859</ele>
        <time>2013-03-22T09:54:37Z</time>
      </trkpt>
      <trkpt lat="45.50533" lon="6.67697">
        <ele>2000</ele>
        <time>2013-03-22T09:55:49Z</time>
      </trkpt>
      <trkpt lat="45.50535" lon="6.67737">
        <ele>1992.4000244141</ele>
        <time>2013-03-22T09:56:13Z</time>
      </trkpt>
      <trkpt lat="45.50507" lon="6.67736">
        <ele>1991.9000244141</ele>
        <time>2013-03-22T10:00:42Z</time>
      </trkpt>
      <trkpt lat="45.5048" lon="6.67753">
        <ele>1993</ele>
        <time>2013-03-22T10:00:45Z</time>
      </trkpt>
      <trkpt lat="45.50451" lon="6.67761">
        <ele>1992</ele>
        <time>2013-03-22T10:00:48Z</time>
      </trkpt>
      <trkpt lat="45.50428" lon="6.67782">
        <ele>1993.6999511719</ele>
        <time>2013-03-22T10:00:52Z</time>
      </trkpt>
      <trkpt lat="45.504" lon="6.67794">
        <ele>1990</ele>
        <time>2013-03-22T10:00:56Z</time>
      </trkpt>
      <trkpt lat="45.50374" lon="6.67805">
        <ele>1995.1999511719</ele>
        <time>2013-03-22T10:01:00Z</time>
      </trkpt>
      <trkpt lat="45.50345" lon="6.67811">
        <ele>1995.5999755859</ele>
        <time>2013-03-22T10:01:04Z</time>
      </trkpt>
      <trkpt lat="45.50318" lon="6.67826">
        <ele>1998.0999755859</ele>
        <time>2013-03-22T10:01:09Z</time>
      </trkpt>
      <trkpt lat="45.50291" lon="6.67837">
        <ele>1999.4000244141</ele>
        <time>2013-03-22T10:01:13Z</time>
      </trkpt>
      <trkpt lat="45.50265" lon="6.67849">
        <ele>2004</ele>
        <time>2013-03-22T10:01:17Z</time>
      </trkpt>
      <trkpt lat="45.50239" lon="6.67863">
        <ele>2004.6999511719</ele>
        <time>2013-03-22T10:01:21Z</time>
      </trkpt>
      <trkpt lat="45.5021" lon="6.67876">
        <ele>2015.6999511719</ele>
        <time>2013-03-22T10:01:26Z</time>
      </trkpt>
      <trkpt lat="45.50181" lon="6.67887">
        <ele>2029.5</ele>
        <time>2013-03-22T10:01:31Z</time>
      </trkpt>
      <trkpt lat="45.50154" lon="6.67909">
        <ele>2037.5</ele>
        <time>2013-03-22T10:01:37Z</time>
      </trkpt>
      <trkpt lat="45.50128" lon="6.67923">
        <ele>2041.8000488281</ele>
        <time>2013-03-22T10:01:42Z</time>
      </trkpt>
      <trkpt lat="45.50099" lon="6.67948">
        <ele>2047</ele>
        <time>2013-03-22T10:01:48Z</time>
      </trkpt>
      <trkpt lat="45.50067" lon="6.67957">
        <ele>2048.1000976562</ele>
        <time>2013-03-22T10:01:52Z</time>
      </trkpt>
      <trkpt lat="45.5004" lon="6.67974">
        <ele>2054.6000976562</ele>
        <time>2013-03-22T10:01:57Z</time>
      </trkpt>
      <trkpt lat="45.50014" lon="6.67987">
        <ele>2059.3000488281</ele>
        <time>2013-03-22T10:02:01Z</time>
      </trkpt>
      <trkpt lat="45.49987" lon="6.68002">
        <ele>2065.8000488281</ele>
        <time>2013-03-22T10:02:05Z</time>
      </trkpt>
      <trkpt lat="45.49959" lon="6.68014">
        <ele>2070.5</ele>
        <time>2013-03-22T10:02:10Z</time>
      </trkpt>
      <trkpt lat="45.49931" lon="6.68024">
        <ele>2076.6999511719</ele>
        <time>2013-03-22T10:02:15Z</time>
      </trkpt>
      <trkpt lat="45.49903" lon="6.68036">
        <ele>2082.1999511719</ele>
        <time>2013-03-22T10:02:20Z</time>
      </trkpt>
      <trkpt lat="45.49874" lon="6.68044">
        <ele>2087.3999023438</ele>
        <time>2013-03-22T10:02:24Z</time>
      </trkpt>
      <trkpt lat="45.49843" lon="6.68056">
        <ele>2094.6000976562</ele>
        <time>2013-03-22T10:02:29Z</time>
      </trkpt>
      <trkpt lat="45.49815" lon="6.68066">
        <ele>2101.3999023438</ele>
        <time>2013-03-22T10:02:33Z</time>
      </trkpt>
      <trkpt lat="45.49788" lon="6.68089">
        <ele>2109.8000488281</ele>
        <time>2013-03-22T10:02:39Z</time>
      </trkpt>
      <trkpt lat="45.49764" lon="6.68108">
        <ele>2118.6999511719</ele>
        <time>2013-03-22T10:02:44Z</time>
      </trkpt>
      <trkpt lat="45.49738" lon="6.68121">
        <ele>2125.6999511719</ele>
        <time>2013-03-22T10:02:49Z</time>
      </trkpt>
      <trkpt lat="45.49706" lon="6.68141">
        <ele>2131.1999511719</ele>
        <time>2013-03-22T10:02:54Z</time>
      </trkpt>
      <trkpt lat="45.49676" lon="6.6816">
        <ele>2145.8000488281</ele>
        <time>2013-03-22T10:02:59Z</time>
      </trkpt>
      <trkpt lat="45.49649" lon="6.68174">
        <ele>2157.1999511719</ele>
        <time>2013-03-22T10:03:03Z</time>
      </trkpt>
      <trkpt lat="45.49621" lon="6.68192">
        <ele>2171.3000488281</ele>
        <time>2013-03-22T10:03:08Z</time>
      </trkpt>
      <trkpt lat="45.4959" lon="6.68207">
        <ele>2178.8999023438</ele>
        <time>2013-03-22T10:03:13Z</time>
      </trkpt>
      <trkpt lat="45.49562" lon="6.68226">
        <ele>2185.8000488281</ele>
        <time>2013-03-22T10:03:18Z</time>
      </trkpt>
      <trkpt lat="45.49534" lon="6.68241">
        <ele>2192.3000488281</ele>
        <time>2013-03-22T10:03:23Z</time>
      </trkpt>
      <trkpt lat="45.49506" lon="6.68246">
        <ele>2191.3000488281</ele>
        <time>2013-03-22T10:03:27Z</time>
      </trkpt>
      <trkpt lat="45.49477" lon="6.68244">
        <ele>2192.3999023438</ele>
        <time>2013-03-22T10:03:31Z</time>
      </trkpt>
      <trkpt lat="45.49443" lon="6.68245">
        <ele>2197.1999511719</ele>
        <time>2013-03-22T10:03:35Z</time>
      </trkpt>
      <trkpt lat="45.49416" lon="6.68243">
        <ele>2201.8999023438</ele>
        <time>2013-03-22T10:03:38Z</time>
      </trkpt>
      <trkpt lat="45.49384" lon="6.68243">
        <ele>2206.3000488281</ele>
        <time>2013-03-22T10:03:42Z</time>
      </trkpt>
      <trkpt lat="45.49366" lon="6.68279">
        <ele>2257</ele>
        <time>2013-03-22T10:03:51Z</time>
      </trkpt>
      <trkpt lat="45.4934" lon="6.68296">
        <ele>2274.5</ele>
        <time>2013-03-22T10:03:56Z</time>
      </trkpt>
      <trkpt lat="45.49317" lon="6.68317">
        <ele>2299</ele>
        <time>2013-03-22T10:04:02Z</time>
      </trkpt>
      <trkpt lat="45.49292" lon="6.68347">
        <ele>2344.1000976562</ele>
        <time>2013-03-22T10:04:09Z</time>
      </trkpt>
      <trkpt lat="45.49263" lon="6.68358">
        <ele>2357.6000976562</ele>
        <time>2013-03-22T10:04:14Z</time>
      </trkpt>
      <trkpt lat="45.49235" lon="6.68377">
        <ele>2379.1000976562</ele>
        <time>2013-03-22T10:04:19Z</time>
      </trkpt>
      <trkpt lat="45.49207" lon="6.68389">
        <ele>2390.5</ele>
        <time>2013-03-22T10:04:24Z</time>
      </trkpt>
      <trkpt lat="45.4918" lon="6.68405">
        <ele>2402.5</ele>
        <time>2013-03-22T10:04:29Z</time>
      </trkpt>
      <trkpt lat="45.49155" lon="6.68419">
        <ele>2469.8999023438</ele>
        <time>2013-03-22T10:05:15Z</time>
      </trkpt>
      <trkpt lat="45.49131" lon="6.68397">
        <ele>2501.8000488281</ele>
        <time>2013-03-22T10:06:47Z</time>
      </trkpt>
      <trkpt lat="45.49116" lon="6.68363">
        <ele>2498.6000976562</ele>
        <time>2013-03-22T10:06:55Z</time>
      </trkpt>
      <trkpt lat="45.49112" lon="6.6832">
        <ele>2491.3999023438</ele>
        <time>2013-03-22T10:07:09Z</time>
      </trkpt>
      <trkpt lat="45.49099" lon="6.68276">
        <ele>2479.8000488281</ele>
        <time>2013-03-22T10:07:14Z</time>
      </trkpt>
      <trkpt lat="45.49089" lon="6.68229">
        <ele>2469.8999023438</ele>
        <time>2013-03-22T10:07:19Z</time>
      </trkpt>
      <trkpt lat="45.49075" lon="6.68186">
        <ele>2454.8000488281</ele>
        <time>2013-03-22T10:07:22Z</time>
      </trkpt>
      <trkpt lat="45.49062" lon="6.6815">
        <ele>2444.3000488281</ele>
        <time>2013-03-22T10:07:25Z</time>
      </trkpt>
      <trkpt lat="45.49051" lon="6.68112">
        <ele>2438.8000488281</ele>
        <time>2013-03-22T10:07:28Z</time>
      </trkpt>
      <trkpt lat="45.49042" lon="6.68067">
        <ele>2421.1999511719</ele>
        <time>2013-03-22T10:07:32Z</time>
      </trkpt>
      <trkpt lat="45.49018" lon="6.68043">
        <ele>2417.1000976562</ele>
        <time>2013-03-22T10:07:37Z</time>
      </trkpt>
      <trkpt lat="45.49004" lon="6.68078">
        <ele>2407.3000488281</ele>
        <time>2013-03-22T10:08:00Z</time>
      </trkpt>
      <trkpt lat="45.48982" lon="6.68105">
        <ele>2395</ele>
        <time>2013-03-22T10:08:07Z</time>
      </trkpt>
      <trkpt lat="45.48955" lon="6.68117">
        <ele>2375.3000488281</ele>
        <time>2013-03-22T10:08:14Z</time>
      </trkpt>
      <trkpt lat="45.48924" lon="6.6812">
        <ele>2358.1999511719</ele>
        <time>2013-03-22T10:08:20Z</time>
      </trkpt>
      <trkpt lat="45.4889" lon="6.68136">
        <ele>2354</ele>
        <time>2013-03-22T10:08:24Z</time>
      </trkpt>
      <trkpt lat="45.48866" lon="6.68165">
        <ele>2344.3999023438</ele>
        <time>2013-03-22T10:08:27Z</time>
      </trkpt>
      <trkpt lat="45.48835" lon="6.68176">
        <ele>2335.3999023438</ele>
        <time>2013-03-22T10:08:30Z</time>
      </trkpt>
      <trkpt lat="45.48805" lon="6.68201">
        <ele>2320.1999511719</ele>
        <time>2013-03-22T10:08:34Z</time>
      </trkpt>
      <trkpt lat="45.48779" lon="6.68227">
        <ele>2308.6999511719</ele>
        <time>2013-03-22T10:08:38Z</time>
      </trkpt>
      <trkpt lat="45.48751" lon="6.68239">
        <ele>2297</ele>
        <time>2013-03-22T10:08:42Z</time>
      </trkpt>
      <trkpt lat="45.48723" lon="6.68253">
        <ele>2294.3999023438</ele>
        <time>2013-03-22T10:08:45Z</time>
      </trkpt>
      <trkpt lat="45.48696" lon="6.68264">
        <ele>2281.3999023438</ele>
        <time>2013-03-22T10:08:49Z</time>
      </trkpt>
      <trkpt lat="45.48662" lon="6.68261">
        <ele>2270.3999023438</ele>
        <time>2013-03-22T10:08:54Z</time>
      </trkpt>
      <trkpt lat="45.4863" lon="6.68255">
        <ele>2258.3000488281</ele>
        <time>2013-03-22T10:08:59Z</time>
      </trkpt>
      <trkpt lat="45.48598" lon="6.68257">
        <ele>2250.8999023438</ele>
        <time>2013-03-22T10:09:02Z</time>
      </trkpt>
      <trkpt lat="45.48567" lon="6.68265">
        <ele>2230.8000488281</ele>
        <time>2013-03-22T10:09:36Z</time>
      </trkpt>
      <trkpt lat="45.48538" lon="6.68288">
        <ele>2225</ele>
        <time>2013-03-22T10:09:40Z</time>
      </trkpt>
      <trkpt lat="45.48507" lon="6.68293">
        <ele>2210.6000976562</ele>
        <time>2013-03-22T10:09:43Z</time>
      </trkpt>
      <trkpt lat="45.48478" lon="6.68316">
        <ele>2200.8999023438</ele>
        <time>2013-03-22T10:09:46Z</time>
      </trkpt>
      <trkpt lat="45.4845" lon="6.68328">
        <ele>2195.6000976562</ele>
        <time>2013-03-22T10:09:49Z</time>
      </trkpt>
      <trkpt lat="45.48427" lon="6.68347">
        <ele>2183.8000488281</ele>
        <time>2013-03-22T10:09:52Z</time>
      </trkpt>
      <trkpt lat="45.48399" lon="6.68368">
        <ele>2174.6999511719</ele>
        <time>2013-03-22T10:09:55Z</time>
      </trkpt>
      <trkpt lat="45.48372" lon="6.68384">
        <ele>2166.6999511719</ele>
        <time>2013-03-22T10:09:58Z</time>
      </trkpt>
      <trkpt lat="45.48342" lon="6.68405">
        <ele>2158.1000976562</ele>
        <time>2013-03-22T10:10:02Z</time>
      </trkpt>
      <trkpt lat="45.48314" lon="6.68424">
        <ele>2148.3999023438</ele>
        <time>2013-03-22T10:10:06Z</time>
      </trkpt>
      <trkpt lat="45.48289" lon="6.68457">
        <ele>2145</ele>
        <time>2013-03-22T10:10:10Z</time>
      </trkpt>
      <trkpt lat="45.48277" lon="6.68494">
        <ele>2134.3000488281</ele>
        <time>2013-03-22T10:10:12Z</time>
      </trkpt>
      <trkpt lat="45.48252" lon="6.68521">
        <ele>2120.1999511719</ele>
        <time>2013-03-22T10:10:15Z</time>
      </trkpt>
      <trkpt lat="45.48233" lon="6.68552">
        <ele>2108.5</ele>
        <time>2013-03-22T10:10:18Z</time>
      </trkpt>
      <trkpt lat="45.48219" lon="6.68589">
        <ele>2094.8000488281</ele>
        <time>2013-03-22T10:10:23Z</time>
      </trkpt>
      <trkpt lat="45.48208" lon="6.68636">
        <ele>2062.5</ele>
        <time>2013-03-22T10:11:10Z</time>
      </trkpt>
      <trkpt lat="45.4819" lon="6.68678">
        <ele>2053.5</ele>
        <time>2013-03-22T10:11:14Z</time>
      </trkpt>
      <trkpt lat="45.48171" lon="6.68718">
        <ele>2045.6000976562</ele>
        <time>2013-03-22T10:11:19Z</time>
      </trkpt>
      <trkpt lat="45.4815" lon="6.68761">
        <ele>2031.5</ele>
        <time>2013-03-22T10:11:23Z</time>
      </trkpt>
      <trkpt lat="45.4814" lon="6.688">
        <ele>2023.3999023438</ele>
        <time>2013-03-22T10:11:26Z</time>
      </trkpt>
      <trkpt lat="45.48137" lon="6.6884">
        <ele>2020.5</ele>
        <time>2013-03-22T10:11:28Z</time>
      </trkpt>
      <trkpt lat="45.48132" lon="6.68884">
        <ele>2015.6000976562</ele>
        <time>2013-03-22T10:11:32Z</time>
      </trkpt>
      <trkpt lat="45.48123" lon="6.68929">
        <ele>2006.1999511719</ele>
        <time>2013-03-22T10:11:36Z</time>
      </trkpt>
      <trkpt lat="45.48112" lon="6.68972">
        <ele>1998.5999755859</ele>
        <time>2013-03-22T10:11:41Z</time>
      </trkpt>
      <trkpt lat="45.48112" lon="6.69012">
        <ele>1990.5999755859</ele>
        <time>2013-03-22T10:11:49Z</time>
      </trkpt>
      <trkpt lat="45.48133" lon="6.69044">
        <ele>1985.5999755859</ele>
        <time>2013-03-22T10:12:02Z</time>
      </trkpt>
      <trkpt lat="45.48164" lon="6.69061">
        <ele>1981</ele>
        <time>2013-03-22T10:12:08Z</time>
      </trkpt>
      <trkpt lat="45.48153" lon="6.691">
        <ele>1961.8000488281</ele>
        <time>2013-03-22T10:12:37Z</time>
      </trkpt>
      <trkpt lat="45.48126" lon="6.69124">
        <ele>1948.3000488281</ele>
        <time>2013-03-22T10:12:47Z</time>
      </trkpt>
      <trkpt lat="45.48096" lon="6.69134">
        <ele>1940.6999511719</ele>
        <time>2013-03-22T10:12:51Z</time>
      </trkpt>
      <trkpt lat="45.48067" lon="6.69129">
        <ele>1932.5999755859</ele>
        <time>2013-03-22T10:12:53Z</time>
      </trkpt>
      <trkpt lat="45.48039" lon="6.69127">
        <ele>1923</ele>
        <time>2013-03-22T10:12:57Z</time>
      </trkpt>
      <trkpt lat="45.48007" lon="6.69116">
        <ele>1921</ele>
        <time>2013-03-22T10:12:59Z</time>
      </trkpt>
      <trkpt lat="45.47974" lon="6.69109">
        <ele>1911.5</ele>
        <time>2013-03-22T10:13:02Z</time>
      </trkpt>
      <trkpt lat="45.47941" lon="6.69094">
        <ele>1903.5999755859</ele>
        <time>2013-03-22T10:13:06Z</time>
      </trkpt>
      <trkpt lat="45.47914" lon="6.69068">
        <ele>1894.0999755859</ele>
        <time>2013-03-22T10:13:09Z</time>
      </trkpt>
      <trkpt lat="45.47877" lon="6.69053">
        <ele>1882.1999511719</ele>
        <time>2013-03-22T10:13:12Z</time>
      </trkpt>
      <trkpt lat="45.47844" lon="6.69027">
        <ele>1871.4000244141</ele>
        <time>2013-03-22T10:13:15Z</time>
      </trkpt>
      <trkpt lat="45.4782" lon="6.69009">
        <ele>1866.6999511719</ele>
        <time>2013-03-22T10:13:17Z</time>
      </trkpt>
      <trkpt lat="45.47795" lon="6.68988">
        <ele>1863.8000488281</ele>
        <time>2013-03-22T10:13:18Z</time>
      </trkpt>
      <trkpt lat="45.47768" lon="6.68975">
        <ele>1859</ele>
        <time>2013-03-22T10:13:20Z</time>
      </trkpt>
      <trkpt lat="45.47731" lon="6.68971">
        <ele>1852.9000244141</ele>
        <time>2013-03-22T10:13:23Z</time>
      </trkpt>
      <trkpt lat="45.47695" lon="6.68969">
        <ele>1849.0999755859</ele>
        <time>2013-03-22T10:13:27Z</time>
      </trkpt>
      <trkpt lat="45.47663" lon="6.6898">
        <ele>1848.0999755859</ele>
        <time>2013-03-22T10:13:29Z</time>
      </trkpt>
      <trkpt lat="45.47632" lon="6.68982">
        <ele>1846.8000488281</ele>
        <time>2013-03-22T10:13:33Z</time>
      </trkpt>
      <trkpt lat="45.47604" lon="6.68975">
        <ele>1844.0999755859</ele>
        <time>2013-03-22T10:13:40Z</time>
      </trkpt>
      <trkpt lat="45.47575" lon="6.68968">
        <ele>1838.8000488281</ele>
        <time>2013-03-22T10:13:44Z</time>
      </trkpt>
      <trkpt lat="45.47544" lon="6.68954">
        <ele>1833.5999755859</ele>
        <time>2013-03-22T10:13:50Z</time>
      </trkpt>
      <trkpt lat="45.47515" lon="6.68942">
        <ele>1831.4000244141</ele>
        <time>2013-03-22T10:13:54Z</time>
      </trkpt>
      <trkpt lat="45.47484" lon="6.68934">
        <ele>1830</ele>
        <time>2013-03-22T10:14:01Z</time>
      </trkpt>
      <trkpt lat="45.47456" lon="6.6892">
        <ele>1826.9000244141</ele>
        <time>2013-03-22T10:14:08Z</time>
      </trkpt>
      <trkpt lat="45.47429" lon="6.689">
        <ele>1825.8000488281</ele>
        <time>2013-03-22T10:14:16Z</time>
      </trkpt>
      <trkpt lat="45.47401" lon="6.68893">
        <ele>1824.9000244141</ele>
        <time>2013-03-22T10:14:24Z</time>
      </trkpt>
      <trkpt lat="45.47373" lon="6.68898">
        <ele>1826.0999755859</ele>
        <time>2013-03-22T10:14:34Z</time>
      </trkpt>
      <trkpt lat="45.47347" lon="6.68911">
        <ele>1826.6999511719</ele>
        <time>2013-03-22T10:14:43Z</time>
      </trkpt>
      <trkpt lat="45.47321" lon="6.68925">
        <ele>1823.0999755859</ele>
        <time>2013-03-22T10:18:34Z</time>
      </trkpt>
      <trkpt lat="45.47305" lon="6.68958">
        <ele>1827.8000488281</ele>
        <time>2013-03-22T10:23:14Z</time>
      </trkpt>
      <trkpt lat="45.47314" lon="6.68998">
        <ele>1828.8000488281</ele>
        <time>2013-03-22T10:23:25Z</time>
      </trkpt>
      <trkpt lat="45.47318" lon="6.69041">
        <ele>1842.6999511719</ele>
        <time>2013-03-22T10:23:33Z</time>
      </trkpt>
      <trkpt lat="45.47324" lon="6.69084">
        <ele>1857.0999755859</ele>
        <time>2013-03-22T10:23:42Z</time>
      </trkpt>
      <trkpt lat="45.47333" lon="6.69122">
        <ele>1861.5999755859</ele>
        <time>2013-03-22T10:23:51Z</time>
      </trkpt>
      <trkpt lat="45.4734" lon="6.69164">
        <ele>1869.5999755859</ele>
        <time>2013-03-22T10:23:59Z</time>
      </trkpt>
      <trkpt lat="45.47347" lon="6.69207">
        <ele>1879.1999511719</ele>
        <time>2013-03-22T10:24:08Z</time>
      </trkpt>
      <trkpt lat="45.47353" lon="6.69249">
        <ele>1887.5999755859</ele>
        <time>2013-03-22T10:24:18Z</time>
      </trkpt>
      <trkpt lat="45.47361" lon="6.69292">
        <ele>1897.3000488281</ele>
        <time>2013-03-22T10:24:27Z</time>
      </trkpt>
      <trkpt lat="45.47367" lon="6.6933">
        <ele>1907.0999755859</ele>
        <time>2013-03-22T10:24:36Z</time>
      </trkpt>
      <trkpt lat="45.47376" lon="6.69369">
        <ele>1911.5</ele>
        <time>2013-03-22T10:24:45Z</time>
      </trkpt>
      <trkpt lat="45.47385" lon="6.69406">
        <ele>1912</ele>
        <time>2013-03-22T10:24:54Z</time>
      </trkpt>
      <trkpt lat="45.47395" lon="6.69445">
        <ele>1919.4000244141</ele>
        <time>2013-03-22T10:25:10Z</time>
      </trkpt>
      <trkpt lat="45.47403" lon="6.69487">
        <ele>1928.0999755859</ele>
        <time>2013-03-22T10:25:22Z</time>
      </trkpt>
      <trkpt lat="45.47406" lon="6.69528">
        <ele>1941.8000488281</ele>
        <time>2013-03-22T10:25:29Z</time>
      </trkpt>
      <trkpt lat="45.47412" lon="6.69569">
        <ele>1953.6999511719</ele>
        <time>2013-03-22T10:25:36Z</time>
      </trkpt>
      <trkpt lat="45.47419" lon="6.69609">
        <ele>1967.1999511719</ele>
        <time>2013-03-22T10:25:44Z</time>
      </trkpt>
      <trkpt lat="45.47422" lon="6.6965">
        <ele>1979.0999755859</ele>
        <time>2013-03-22T10:25:51Z</time>
      </trkpt>
      <trkpt lat="45.47429" lon="6.6969">
        <ele>1988.1999511719</ele>
        <time>2013-03-22T10:26:00Z</time>
      </trkpt>
      <trkpt lat="45.47436" lon="6.69729">
        <ele>1999.0999755859</ele>
        <time>2013-03-22T10:26:09Z</time>
      </trkpt>
      <trkpt lat="45.47442" lon="6.69769">
        <ele>2009.8000488281</ele>
        <time>2013-03-22T10:26:17Z</time>
      </trkpt>
      <trkpt lat="45.4745" lon="6.69809">
        <ele>2013.8999023438</ele>
        <time>2013-03-22T10:26:26Z</time>
      </trkpt>
      <trkpt lat="45.47455" lon="6.69851">
        <ele>2033.3999023438</ele>
        <time>2013-03-22T10:26:34Z</time>
      </trkpt>
      <trkpt lat="45.47459" lon="6.69894">
        <ele>2053</ele>
        <time>2013-03-22T10:26:42Z</time>
      </trkpt>
      <trkpt lat="45.47463" lon="6.69933">
        <ele>2064.3000488281</ele>
        <time>2013-03-22T10:26:49Z</time>
      </trkpt>
      <trkpt lat="45.47466" lon="6.69973">
        <ele>2076.1000976562</ele>
        <time>2013-03-22T10:26:56Z</time>
      </trkpt>
      <trkpt lat="45.47472" lon="6.70013">
        <ele>2092.1000976562</ele>
        <time>2013-03-22T10:27:04Z</time>
      </trkpt>
      <trkpt lat="45.47479" lon="6.70055">
        <ele>2100.1000976562</ele>
        <time>2013-03-22T10:27:14Z</time>
      </trkpt>
      <trkpt lat="45.47481" lon="6.70094">
        <ele>2099.6000976562</ele>
        <time>2013-03-22T10:27:27Z</time>
      </trkpt>
      <trkpt lat="45.47474" lon="6.70133">
        <ele>2101.6000976562</ele>
        <time>2013-03-22T10:27:36Z</time>
      </trkpt>
      <trkpt lat="45.47449" lon="6.70151">
        <ele>2097.1000976562</ele>
        <time>2013-03-22T10:27:44Z</time>
      </trkpt>
      <trkpt lat="45.47419" lon="6.70146">
        <ele>2084.6000976562</ele>
        <time>2013-03-22T10:27:49Z</time>
      </trkpt>
      <trkpt lat="45.47386" lon="6.70135">
        <ele>2080.8000488281</ele>
        <time>2013-03-22T10:27:53Z</time>
      </trkpt>
      <trkpt lat="45.47353" lon="6.70124">
        <ele>2076.3999023438</ele>
        <time>2013-03-22T10:27:57Z</time>
      </trkpt>
      <trkpt lat="45.47327" lon="6.70098">
        <ele>2074.8000488281</ele>
        <time>2013-03-22T10:28:02Z</time>
      </trkpt>
      <trkpt lat="45.47321" lon="6.70139">
        <ele>2075</ele>
        <time>2013-03-22T10:31:47Z</time>
      </trkpt>
      <trkpt lat="45.47348" lon="6.70161">
        <ele>2082.1000976562</ele>
        <time>2013-03-22T10:31:54Z</time>
      </trkpt>
      <trkpt lat="45.47372" lon="6.7018">
        <ele>2088.8999023438</ele>
        <time>2013-03-22T10:32:01Z</time>
      </trkpt>
      <trkpt lat="45.47398" lon="6.70201">
        <ele>2096.3000488281</ele>
        <time>2013-03-22T10:32:10Z</time>
      </trkpt>
      <trkpt lat="45.47424" lon="6.7022">
        <ele>2104.8000488281</ele>
        <time>2013-03-22T10:32:18Z</time>
      </trkpt>
      <trkpt lat="45.4745" lon="6.7024">
        <ele>2117.6000976562</ele>
        <time>2013-03-22T10:32:27Z</time>
      </trkpt>
      <trkpt lat="45.47477" lon="6.70261">
        <ele>2126.6999511719</ele>
        <time>2013-03-22T10:32:36Z</time>
      </trkpt>
      <trkpt lat="45.47501" lon="6.70281">
        <ele>2132.6999511719</ele>
        <time>2013-03-22T10:32:44Z</time>
      </trkpt>
      <trkpt lat="45.47525" lon="6.70302">
        <ele>2141.1999511719</ele>
        <time>2013-03-22T10:32:52Z</time>
      </trkpt>
      <trkpt lat="45.47549" lon="6.70322">
        <ele>2151.8999023438</ele>
        <time>2013-03-22T10:33:00Z</time>
      </trkpt>
      <trkpt lat="45.47575" lon="6.70343">
        <ele>2164.8999023438</ele>
        <time>2013-03-22T10:33:09Z</time>
      </trkpt>
      <trkpt lat="45.47601" lon="6.70364">
        <ele>2170.1999511719</ele>
        <time>2013-03-22T10:33:18Z</time>
      </trkpt>
      <trkpt lat="45.47626" lon="6.70385">
        <ele>2176.8000488281</ele>
        <time>2013-03-22T10:33:26Z</time>
      </trkpt>
      <trkpt lat="45.47652" lon="6.70408">
        <ele>2187.3999023438</ele>
        <time>2013-03-22T10:33:35Z</time>
      </trkpt>
      <trkpt lat="45.47678" lon="6.70428">
        <ele>2201.1000976562</ele>
        <time>2013-03-22T10:33:44Z</time>
      </trkpt>
      <trkpt lat="45.47703" lon="6.70445">
        <ele>2208.8999023438</ele>
        <time>2013-03-22T10:33:52Z</time>
      </trkpt>
      <trkpt lat="45.4773" lon="6.70465">
        <ele>2214.3000488281</ele>
        <time>2013-03-22T10:34:01Z</time>
      </trkpt>
      <trkpt lat="45.47754" lon="6.70488">
        <ele>2218.5</ele>
        <time>2013-03-22T10:34:09Z</time>
      </trkpt>
      <trkpt lat="45.47777" lon="6.70509">
        <ele>2224.6000976562</ele>
        <time>2013-03-22T10:34:17Z</time>
      </trkpt>
      <trkpt lat="45.47802" lon="6.70528">
        <ele>2232.1000976562</ele>
        <time>2013-03-22T10:34:25Z</time>
      </trkpt>
      <trkpt lat="45.47827" lon="6.70546">
        <ele>2238.8000488281</ele>
        <time>2013-03-22T10:34:33Z</time>
      </trkpt>
      <trkpt lat="45.47852" lon="6.70566">
        <ele>2241.1000976562</ele>
        <time>2013-03-22T10:34:41Z</time>
      </trkpt>
      <trkpt lat="45.47877" lon="6.70586">
        <ele>2243.5</ele>
        <time>2013-03-22T10:34:49Z</time>
      </trkpt>
      <trkpt lat="45.47903" lon="6.70607">
        <ele>2247.6999511719</ele>
        <time>2013-03-22T10:34:57Z</time>
      </trkpt>
      <trkpt lat="45.47928" lon="6.70626">
        <ele>2254</ele>
        <time>2013-03-22T10:35:05Z</time>
      </trkpt>
      <trkpt lat="45.47952" lon="6.70646">
        <ele>2261.3000488281</ele>
        <time>2013-03-22T10:35:13Z</time>
      </trkpt>
      <trkpt lat="45.47976" lon="6.70669">
        <ele>2268.3000488281</ele>
        <time>2013-03-22T10:35:23Z</time>
      </trkpt>
      <trkpt lat="45.48001" lon="6.70687">
        <ele>2271.5</ele>
        <time>2013-03-22T10:35:30Z</time>
      </trkpt>
      <trkpt lat="45.48025" lon="6.70706">
        <ele>2276</ele>
        <time>2013-03-22T10:35:37Z</time>
      </trkpt>
      <trkpt lat="45.48054" lon="6.70718">
        <ele>2278</ele>
        <time>2013-03-22T10:35:45Z</time>
      </trkpt>
      <trkpt lat="45.4808" lon="6.70737">
        <ele>2282.5</ele>
        <time>2013-03-22T10:35:53Z</time>
      </trkpt>
      <trkpt lat="45.48106" lon="6.70761">
        <ele>2295.1999511719</ele>
        <time>2013-03-22T10:36:04Z</time>
      </trkpt>
      <trkpt lat="45.4813" lon="6.70788">
        <ele>2302.3999023438</ele>
        <time>2013-03-22T10:36:12Z</time>
      </trkpt>
      <trkpt lat="45.48152" lon="6.70813">
        <ele>2307.5</ele>
        <time>2013-03-22T10:36:20Z</time>
      </trkpt>
      <trkpt lat="45.4818" lon="6.70826">
        <ele>2314.8999023438</ele>
        <time>2013-03-22T10:36:28Z</time>
      </trkpt>
      <trkpt lat="45.48203" lon="6.70846">
        <ele>2320.8000488281</ele>
        <time>2013-03-22T10:36:36Z</time>
      </trkpt>
      <trkpt lat="45.48229" lon="6.70868">
        <ele>2330.8000488281</ele>
        <time>2013-03-22T10:36:44Z</time>
      </trkpt>
      <trkpt lat="45.48252" lon="6.70889">
        <ele>2338.3999023438</ele>
        <time>2013-03-22T10:36:52Z</time>
      </trkpt>
      <trkpt lat="45.48276" lon="6.70909">
        <ele>2344.5</ele>
        <time>2013-03-22T10:37:00Z</time>
      </trkpt>
      <trkpt lat="45.48302" lon="6.70931">
        <ele>2352.1000976562</ele>
        <time>2013-03-22T10:37:09Z</time>
      </trkpt>
      <trkpt lat="45.48326" lon="6.70951">
        <ele>2352.8999023438</ele>
        <time>2013-03-22T10:37:17Z</time>
      </trkpt>
      <trkpt lat="45.4835" lon="6.70971">
        <ele>2356.6000976562</ele>
        <time>2013-03-22T10:37:30Z</time>
      </trkpt>
      <trkpt lat="45.48374" lon="6.70993">
        <ele>2362.1999511719</ele>
        <time>2013-03-22T10:37:41Z</time>
      </trkpt>
      <trkpt lat="45.48399" lon="6.71016">
        <ele>2368.6999511719</ele>
        <time>2013-03-22T10:37:50Z</time>
      </trkpt>
      <trkpt lat="45.48423" lon="6.71036">
        <ele>2377.3999023438</ele>
        <time>2013-03-22T10:37:58Z</time>
      </trkpt>
      <trkpt lat="45.4845" lon="6.71055">
        <ele>2380.8000488281</ele>
        <time>2013-03-22T10:38:06Z</time>
      </trkpt>
      <trkpt lat="45.48476" lon="6.71075">
        <ele>2385.1000976562</ele>
        <time>2013-03-22T10:38:14Z</time>
      </trkpt>
      <trkpt lat="45.48501" lon="6.71094">
        <ele>2387.3000488281</ele>
        <time>2013-03-22T10:38:22Z</time>
      </trkpt>
      <trkpt lat="45.48528" lon="6.71104">
        <ele>2385.8000488281</ele>
        <time>2013-03-22T10:39:21Z</time>
      </trkpt>
      <trkpt lat="45.48556" lon="6.71114">
        <ele>2383.8999023438</ele>
        <time>2013-03-22T10:39:30Z</time>
      </trkpt>
      <trkpt lat="45.48582" lon="6.7113">
        <ele>2381.1000976562</ele>
        <time>2013-03-22T10:39:35Z</time>
      </trkpt>
      <trkpt lat="45.48608" lon="6.71154">
        <ele>2374.1999511719</ele>
        <time>2013-03-22T10:39:39Z</time>
      </trkpt>
      <trkpt lat="45.48638" lon="6.71169">
        <ele>2366.5</ele>
        <time>2013-03-22T10:39:42Z</time>
      </trkpt>
      <trkpt lat="45.48673" lon="6.71178">
        <ele>2363.1999511719</ele>
        <time>2013-03-22T10:39:45Z</time>
      </trkpt>
      <trkpt lat="45.48708" lon="6.71166">
        <ele>2360</ele>
        <time>2013-03-22T10:39:48Z</time>
      </trkpt>
      <trkpt lat="45.4874" lon="6.71152">
        <ele>2359</ele>
        <time>2013-03-22T10:39:52Z</time>
      </trkpt>
      <trkpt lat="45.48757" lon="6.71121">
        <ele>2354.5</ele>
        <time>2013-03-22T10:39:57Z</time>
      </trkpt>
      <trkpt lat="45.48784" lon="6.71089">
        <ele>2341.1000976562</ele>
        <time>2013-03-22T10:40:02Z</time>
      </trkpt>
      <trkpt lat="45.48805" lon="6.71054">
        <ele>2330.3999023438</ele>
        <time>2013-03-22T10:40:05Z</time>
      </trkpt>
      <trkpt lat="45.48824" lon="6.71025">
        <ele>2323.1000976562</ele>
        <time>2013-03-22T10:40:07Z</time>
      </trkpt>
      <trkpt lat="45.48855" lon="6.70989">
        <ele>2322</ele>
        <time>2013-03-22T10:40:10Z</time>
      </trkpt>
      <trkpt lat="45.48882" lon="6.70958">
        <ele>2319.8000488281</ele>
        <time>2013-03-22T10:40:13Z</time>
      </trkpt>
      <trkpt lat="45.489" lon="6.70922">
        <ele>2317.5</ele>
        <time>2013-03-22T10:40:17Z</time>
      </trkpt>
      <trkpt lat="45.48923" lon="6.70898">
        <ele>2312.3999023438</ele>
        <time>2013-03-22T10:40:23Z</time>
      </trkpt>
      <trkpt lat="45.48948" lon="6.70914">
        <ele>2322.3000488281</ele>
        <time>2013-03-22T10:43:07Z</time>
      </trkpt>
      <trkpt lat="45.48956" lon="6.70966">
        <ele>2320.8999023438</ele>
        <time>2013-03-22T10:43:20Z</time>
      </trkpt>
      <trkpt lat="45.48962" lon="6.71006">
        <ele>2330.5</ele>
        <time>2013-03-22T10:43:27Z</time>
      </trkpt>
      <trkpt lat="45.4897" lon="6.71048">
        <ele>2334.8000488281</ele>
        <time>2013-03-22T10:43:34Z</time>
      </trkpt>
      <trkpt lat="45.48981" lon="6.71091">
        <ele>2342.1000976562</ele>
        <time>2013-03-22T10:43:41Z</time>
      </trkpt>
      <trkpt lat="45.48988" lon="6.71132">
        <ele>2354.1999511719</ele>
        <time>2013-03-22T10:43:48Z</time>
      </trkpt>
      <trkpt lat="45.48994" lon="6.71173">
        <ele>2366.1000976562</ele>
        <time>2013-03-22T10:43:55Z</time>
      </trkpt>
      <trkpt lat="45.49" lon="6.71214">
        <ele>2379.6999511719</ele>
        <time>2013-03-22T10:44:02Z</time>
      </trkpt>
      <trkpt lat="45.49007" lon="6.71253">
        <ele>2391.3999023438</ele>
        <time>2013-03-22T10:44:55Z</time>
      </trkpt>
      <trkpt lat="45.49014" lon="6.71293">
        <ele>2406.3000488281</ele>
        <time>2013-03-22T10:45:20Z</time>
      </trkpt>
      <trkpt lat="45.4902" lon="6.71336">
        <ele>2416.1000976562</ele>
        <time>2013-03-22T10:45:31Z</time>
      </trkpt>
      <trkpt lat="45.49026" lon="6.71376">
        <ele>2426.8999023438</ele>
        <time>2013-03-22T10:45:38Z</time>
      </trkpt>
      <trkpt lat="45.49032" lon="6.71417">
        <ele>2439.1000976562</ele>
        <time>2013-03-22T10:45:45Z</time>
      </trkpt>
      <trkpt lat="45.49039" lon="6.71455">
        <ele>2436.5</ele>
        <time>2013-03-22T10:45:52Z</time>
      </trkpt>
      <trkpt lat="45.49046" lon="6.71494">
        <ele>2430.8000488281</ele>
        <time>2013-03-22T10:45:58Z</time>
      </trkpt>
      <trkpt lat="45.49053" lon="6.71537">
        <ele>2426.6999511719</ele>
        <time>2013-03-22T10:46:05Z</time>
      </trkpt>
      <trkpt lat="45.49061" lon="6.71581">
        <ele>2420.8000488281</ele>
        <time>2013-03-22T10:46:12Z</time>
      </trkpt>
      <trkpt lat="45.49065" lon="6.71623">
        <ele>2417.1000976562</ele>
        <time>2013-03-22T10:46:19Z</time>
      </trkpt>
      <trkpt lat="45.49074" lon="6.7166">
        <ele>2417</ele>
        <time>2013-03-22T10:46:25Z</time>
      </trkpt>
      <trkpt lat="45.49082" lon="6.71702">
        <ele>2418.1999511719</ele>
        <time>2013-03-22T10:46:32Z</time>
      </trkpt>
      <trkpt lat="45.49091" lon="6.71743">
        <ele>2420.1999511719</ele>
        <time>2013-03-22T10:46:39Z</time>
      </trkpt>
      <trkpt lat="45.49097" lon="6.71783">
        <ele>2426.5</ele>
        <time>2013-03-22T10:46:45Z</time>
      </trkpt>
      <trkpt lat="45.49102" lon="6.71828">
        <ele>2433.3999023438</ele>
        <time>2013-03-22T10:46:52Z</time>
      </trkpt>
      <trkpt lat="45.4911" lon="6.71869">
        <ele>2442</ele>
        <time>2013-03-22T10:46:59Z</time>
      </trkpt>
      <trkpt lat="45.49118" lon="6.71911">
        <ele>2451</ele>
        <time>2013-03-22T10:47:06Z</time>
      </trkpt>
      <trkpt lat="45.49124" lon="6.71955">
        <ele>2467.3000488281</ele>
        <time>2013-03-22T10:47:14Z</time>
      </trkpt>
      <trkpt lat="45.49132" lon="6.71998">
        <ele>2474</ele>
        <time>2013-03-22T10:47:21Z</time>
      </trkpt>
      <trkpt lat="45.4914" lon="6.72037">
        <ele>2479.6000976562</ele>
        <time>2013-03-22T10:47:27Z</time>
      </trkpt>
      <trkpt lat="45.49143" lon="6.72076">
        <ele>2483.3000488281</ele>
        <time>2013-03-22T10:47:34Z</time>
      </trkpt>
      <trkpt lat="45.49151" lon="6.72117">
        <ele>2481.3999023438</ele>
        <time>2013-03-22T10:47:40Z</time>
      </trkpt>
      <trkpt lat="45.49163" lon="6.72159">
        <ele>2483.3000488281</ele>
        <time>2013-03-22T10:47:47Z</time>
      </trkpt>
      <trkpt lat="45.49162" lon="6.722">
        <ele>2484.3999023438</ele>
        <time>2013-03-22T10:47:53Z</time>
      </trkpt>
      <trkpt lat="45.49171" lon="6.72238">
        <ele>2486.5</ele>
        <time>2013-03-22T10:47:59Z</time>
      </trkpt>
      <trkpt lat="45.49178" lon="6.72282">
        <ele>2490.3999023438</ele>
        <time>2013-03-22T10:48:06Z</time>
      </trkpt>
      <trkpt lat="45.49185" lon="6.72325">
        <ele>2495.8000488281</ele>
        <time>2013-03-22T10:48:13Z</time>
      </trkpt>
      <trkpt lat="45.49193" lon="6.72368">
        <ele>2495.8999023438</ele>
        <time>2013-03-22T10:48:20Z</time>
      </trkpt>
      <trkpt lat="45.492" lon="6.72412">
        <ele>2499</ele>
        <time>2013-03-22T10:48:27Z</time>
      </trkpt>
      <trkpt lat="45.49208" lon="6.72453">
        <ele>2500.3999023438</ele>
        <time>2013-03-22T10:48:34Z</time>
      </trkpt>
      <trkpt lat="45.49214" lon="6.72493">
        <ele>2503.3999023438</ele>
        <time>2013-03-22T10:48:40Z</time>
      </trkpt>
      <trkpt lat="45.49221" lon="6.72531">
        <ele>2504.3999023438</ele>
        <time>2013-03-22T10:48:46Z</time>
      </trkpt>
      <trkpt lat="45.49227" lon="6.72572">
        <ele>2510.1999511719</ele>
        <time>2013-03-22T10:48:52Z</time>
      </trkpt>
      <trkpt lat="45.49234" lon="6.72614">
        <ele>2513.5</ele>
        <time>2013-03-22T10:48:59Z</time>
      </trkpt>
      <trkpt lat="45.49238" lon="6.72653">
        <ele>2518.3000488281</ele>
        <time>2013-03-22T10:49:05Z</time>
      </trkpt>
      <trkpt lat="45.49244" lon="6.72694">
        <ele>2528.6000976562</ele>
        <time>2013-03-22T10:49:12Z</time>
      </trkpt>
      <trkpt lat="45.49252" lon="6.72737">
        <ele>2538.1000976562</ele>
        <time>2013-03-22T10:49:19Z</time>
      </trkpt>
      <trkpt lat="45.49259" lon="6.7278">
        <ele>2544.6000976562</ele>
        <time>2013-03-22T10:49:26Z</time>
      </trkpt>
      <trkpt lat="45.49266" lon="6.72823">
        <ele>2549.8000488281</ele>
        <time>2013-03-22T10:49:33Z</time>
      </trkpt>
      <trkpt lat="45.49273" lon="6.72864">
        <ele>2554.3999023438</ele>
        <time>2013-03-22T10:49:40Z</time>
      </trkpt>
      <trkpt lat="45.49279" lon="6.72903">
        <ele>2560.6999511719</ele>
        <time>2013-03-22T10:49:46Z</time>
      </trkpt>
      <trkpt lat="45.49284" lon="6.72947">
        <ele>2566.1999511719</ele>
        <time>2013-03-22T10:49:53Z</time>
      </trkpt>
      <trkpt lat="45.49293" lon="6.72985">
        <ele>2569.3999023438</ele>
        <time>2013-03-22T10:49:59Z</time>
      </trkpt>
      <trkpt lat="45.49299" lon="6.73024">
        <ele>2574.8000488281</ele>
        <time>2013-03-22T10:50:05Z</time>
      </trkpt>
      <trkpt lat="45.49308" lon="6.73064">
        <ele>2580.6999511719</ele>
        <time>2013-03-22T10:50:12Z</time>
      </trkpt>
      <trkpt lat="45.49315" lon="6.73106">
        <ele>2591.1000976562</ele>
        <time>2013-03-22T10:50:19Z</time>
      </trkpt>
      <trkpt lat="45.4932" lon="6.73147">
        <ele>2599.8000488281</ele>
        <time>2013-03-22T10:50:26Z</time>
      </trkpt>
      <trkpt lat="45.49327" lon="6.73186">
        <ele>2611.8999023438</ele>
        <time>2013-03-22T10:50:33Z</time>
      </trkpt>
      <trkpt lat="45.49335" lon="6.73229">
        <ele>2631.5</ele>
        <time>2013-03-22T10:50:41Z</time>
      </trkpt>
      <trkpt lat="45.49342" lon="6.73268">
        <ele>2646.3999023438</ele>
        <time>2013-03-22T10:50:48Z</time>
      </trkpt>
      <trkpt lat="45.49346" lon="6.73309">
        <ele>2666.3999023438</ele>
        <time>2013-03-22T10:50:55Z</time>
      </trkpt>
      <trkpt lat="45.49354" lon="6.73351">
        <ele>2689.6999511719</ele>
        <time>2013-03-22T10:51:03Z</time>
      </trkpt>
      <trkpt lat="45.49363" lon="6.73391">
        <ele>2712.3999023438</ele>
        <time>2013-03-22T10:51:11Z</time>
      </trkpt>
      <trkpt lat="45.49371" lon="6.73432">
        <ele>2720.5</ele>
        <time>2013-03-22T10:51:19Z</time>
      </trkpt>
      <trkpt lat="45.4938" lon="6.73469">
        <ele>2720.8999023438</ele>
        <time>2013-03-22T10:51:37Z</time>
      </trkpt>
      <trkpt lat="45.49386" lon="6.73508">
        <ele>2718.3000488281</ele>
        <time>2013-03-22T10:51:46Z</time>
      </trkpt>
      <trkpt lat="45.49385" lon="6.73528">
        <ele>2722.8000488281</ele>
        <time>2013-03-22T10:54:55Z</time>
      </trkpt>
      <trkpt lat="45.4937" lon="6.73494">
        <ele>2725.3999023438</ele>
        <time>2013-03-22T10:56:04Z</time>
      </trkpt>
      <trkpt lat="45.49342" lon="6.73494">
        <ele>2727.5</ele>
        <time>2013-03-22T10:56:22Z</time>
      </trkpt>
      <trkpt lat="45.49316" lon="6.73476">
        <ele>2721.3999023438</ele>
        <time>2013-03-22T10:56:30Z</time>
      </trkpt>
      <trkpt lat="45.49294" lon="6.73449">
        <ele>2720.1000976562</ele>
        <time>2013-03-22T10:56:36Z</time>
      </trkpt>
      <trkpt lat="45.49301" lon="6.73411">
        <ele>2715.1999511719</ele>
        <time>2013-03-22T10:57:00Z</time>
      </trkpt>
      <trkpt lat="45.49327" lon="6.73391">
        <ele>2708.8000488281</ele>
        <time>2013-03-22T10:57:10Z</time>
      </trkpt>
      <trkpt lat="45.49342" lon="6.73357">
        <ele>2691.6000976562</ele>
        <time>2013-03-22T10:57:20Z</time>
      </trkpt>
      <trkpt lat="45.49332" lon="6.73313">
        <ele>2665.6000976562</ele>
        <time>2013-03-22T10:57:27Z</time>
      </trkpt>
      <trkpt lat="45.49325" lon="6.73272">
        <ele>2650.3000488281</ele>
        <time>2013-03-22T10:57:33Z</time>
      </trkpt>
      <trkpt lat="45.49312" lon="6.73231">
        <ele>2635.8000488281</ele>
        <time>2013-03-22T10:57:39Z</time>
      </trkpt>
      <trkpt lat="45.49294" lon="6.73197">
        <ele>2617.6000976562</ele>
        <time>2013-03-22T10:57:44Z</time>
      </trkpt>
      <trkpt lat="45.49272" lon="6.73174">
        <ele>2606.5</ele>
        <time>2013-03-22T10:57:49Z</time>
      </trkpt>
      <trkpt lat="45.4925" lon="6.7315">
        <ele>2597.1999511719</ele>
        <time>2013-03-22T10:58:03Z</time>
      </trkpt>
      <trkpt lat="45.49231" lon="6.73107">
        <ele>2585.3999023438</ele>
        <time>2013-03-22T11:00:21Z</time>
      </trkpt>
      <trkpt lat="45.4923" lon="6.73065">
        <ele>2580.1999511719</ele>
        <time>2013-03-22T11:00:24Z</time>
      </trkpt>
      <trkpt lat="45.49235" lon="6.73023">
        <ele>2572.6999511719</ele>
        <time>2013-03-22T11:00:27Z</time>
      </trkpt>
      <trkpt lat="45.49242" lon="6.72975">
        <ele>2568.3000488281</ele>
        <time>2013-03-22T11:00:30Z</time>
      </trkpt>
      <trkpt lat="45.49246" lon="6.72924">
        <ele>2562.1999511719</ele>
        <time>2013-03-22T11:00:33Z</time>
      </trkpt>
      <trkpt lat="45.49247" lon="6.7287">
        <ele>2554.1999511719</ele>
        <time>2013-03-22T11:00:36Z</time>
      </trkpt>
      <trkpt lat="45.49251" lon="6.72816">
        <ele>2547</ele>
        <time>2013-03-22T11:00:39Z</time>
      </trkpt>
      <trkpt lat="45.49243" lon="6.72757">
        <ele>2544.3999023438</ele>
        <time>2013-03-22T11:00:43Z</time>
      </trkpt>
      <trkpt lat="45.49232" lon="6.72708">
        <ele>2542.1000976562</ele>
        <time>2013-03-22T11:00:47Z</time>
      </trkpt>
      <trkpt lat="45.4923" lon="6.7266">
        <ele>2531.3999023438</ele>
        <time>2013-03-22T11:00:49Z</time>
      </trkpt>
      <trkpt lat="45.49229" lon="6.7261">
        <ele>2522.3999023438</ele>
        <time>2013-03-22T11:00:51Z</time>
      </trkpt>
      <trkpt lat="45.49229" lon="6.7256">
        <ele>2520.3000488281</ele>
        <time>2013-03-22T11:00:53Z</time>
      </trkpt>
      <trkpt lat="45.49228" lon="6.72517">
        <ele>2523.5</ele>
        <time>2013-03-22T11:00:55Z</time>
      </trkpt>
      <trkpt lat="45.49228" lon="6.7246">
        <ele>2517.8999023438</ele>
        <time>2013-03-22T11:00:58Z</time>
      </trkpt>
      <trkpt lat="45.4923" lon="6.72406">
        <ele>2512.6000976562</ele>
        <time>2013-03-22T11:01:01Z</time>
      </trkpt>
      <trkpt lat="45.49227" lon="6.72352">
        <ele>2509.3000488281</ele>
        <time>2013-03-22T11:01:04Z</time>
      </trkpt>
      <trkpt lat="45.49224" lon="6.72303">
        <ele>2507.6000976562</ele>
        <time>2013-03-22T11:01:07Z</time>
      </trkpt>
      <trkpt lat="45.49223" lon="6.72252">
        <ele>2508.3000488281</ele>
        <time>2013-03-22T11:01:10Z</time>
      </trkpt>
      <trkpt lat="45.49221" lon="6.72202">
        <ele>2505.8999023438</ele>
        <time>2013-03-22T11:01:13Z</time>
      </trkpt>
      <trkpt lat="45.49219" lon="6.72155">
        <ele>2497.1000976562</ele>
        <time>2013-03-22T11:01:16Z</time>
      </trkpt>
      <trkpt lat="45.49214" lon="6.72103">
        <ele>2491.5</ele>
        <time>2013-03-22T11:01:19Z</time>
      </trkpt>
      <trkpt lat="45.49211" lon="6.72054">
        <ele>2485.3000488281</ele>
        <time>2013-03-22T11:01:22Z</time>
      </trkpt>
      <trkpt lat="45.49208" lon="6.72009">
        <ele>2483.8000488281</ele>
        <time>2013-03-22T11:01:25Z</time>
      </trkpt>
      <trkpt lat="45.49204" lon="6.71967">
        <ele>2479</ele>
        <time>2013-03-22T11:01:28Z</time>
      </trkpt>
      <trkpt lat="45.49191" lon="6.71926">
        <ele>2472.6000976562</ele>
        <time>2013-03-22T11:01:31Z</time>
      </trkpt>
      <trkpt lat="45.49171" lon="6.71886">
        <ele>2462</ele>
        <time>2013-03-22T11:01:34Z</time>
      </trkpt>
      <trkpt lat="45.49151" lon="6.71842">
        <ele>2456.3000488281</ele>
        <time>2013-03-22T11:01:37Z</time>
      </trkpt>
      <trkpt lat="45.49129" lon="6.71794">
        <ele>2454.6999511719</ele>
        <time>2013-03-22T11:01:40Z</time>
      </trkpt>
      <trkpt lat="45.49116" lon="6.71754">
        <ele>2446.8000488281</ele>
        <time>2013-03-22T11:01:42Z</time>
      </trkpt>
      <trkpt lat="45.491" lon="6.71715">
        <ele>2441.3000488281</ele>
        <time>2013-03-22T11:01:44Z</time>
      </trkpt>
      <trkpt lat="45.49091" lon="6.71672">
        <ele>2438.3999023438</ele>
        <time>2013-03-22T11:01:46Z</time>
      </trkpt>
      <trkpt lat="45.4908" lon="6.71628">
        <ele>2437.8000488281</ele>
        <time>2013-03-22T11:01:48Z</time>
      </trkpt>
      <trkpt lat="45.4906" lon="6.71583">
        <ele>2444.6999511719</ele>
        <time>2013-03-22T11:01:51Z</time>
      </trkpt>
      <trkpt lat="45.49044" lon="6.71547">
        <ele>2443.3000488281</ele>
        <time>2013-03-22T11:01:54Z</time>
      </trkpt>
      <trkpt lat="45.49026" lon="6.71512">
        <ele>2447.3999023438</ele>
        <time>2013-03-22T11:01:57Z</time>
      </trkpt>
      <trkpt lat="45.49007" lon="6.71479">
        <ele>2447</ele>
        <time>2013-03-22T11:02:02Z</time>
      </trkpt>
      <trkpt lat="45.48984" lon="6.71456">
        <ele>2444.6000976562</ele>
        <time>2013-03-22T11:02:11Z</time>
      </trkpt>
      <trkpt lat="45.48961" lon="6.71432">
        <ele>2417.1000976562</ele>
        <time>2013-03-22T11:04:45Z</time>
      </trkpt>
      <trkpt lat="45.48938" lon="6.71404">
        <ele>2414.1999511719</ele>
        <time>2013-03-22T11:04:57Z</time>
      </trkpt>
      <trkpt lat="45.48913" lon="6.71379">
        <ele>2408.8999023438</ele>
        <time>2013-03-22T11:05:02Z</time>
      </trkpt>
      <trkpt lat="45.48886" lon="6.71374">
        <ele>2404.3000488281</ele>
        <time>2013-03-22T11:05:06Z</time>
      </trkpt>
      <trkpt lat="45.48856" lon="6.71357">
        <ele>2392</ele>
        <time>2013-03-22T11:05:13Z</time>
      </trkpt>
      <trkpt lat="45.48833" lon="6.71328">
        <ele>2384.6999511719</ele>
        <time>2013-03-22T11:05:18Z</time>
      </trkpt>
      <trkpt lat="45.48808" lon="6.7131">
        <ele>2379.5</ele>
        <time>2013-03-22T11:05:23Z</time>
      </trkpt>
      <trkpt lat="45.48803" lon="6.71258">
        <ele>2374.6999511719</ele>
        <time>2013-03-22T11:05:28Z</time>
      </trkpt>
      <trkpt lat="45.48808" lon="6.71219">
        <ele>2370.1000976562</ele>
        <time>2013-03-22T11:05:31Z</time>
      </trkpt>
      <trkpt lat="45.4883" lon="6.71188">
        <ele>2361.5</ele>
        <time>2013-03-22T11:05:36Z</time>
      </trkpt>
      <trkpt lat="45.48855" lon="6.71164">
        <ele>2347.6000976562</ele>
        <time>2013-03-22T11:05:56Z</time>
      </trkpt>
      <trkpt lat="45.48881" lon="6.71128">
        <ele>2334.8999023438</ele>
        <time>2013-03-22T11:06:00Z</time>
      </trkpt>
      <trkpt lat="45.48894" lon="6.71088">
        <ele>2324</ele>
        <time>2013-03-22T11:06:03Z</time>
      </trkpt>
      <trkpt lat="45.48898" lon="6.71039">
        <ele>2320.6999511719</ele>
        <time>2013-03-22T11:06:06Z</time>
      </trkpt>
      <trkpt lat="45.48899" lon="6.70997">
        <ele>2318</ele>
        <time>2013-03-22T11:06:09Z</time>
      </trkpt>
      <trkpt lat="45.489" lon="6.70956">
        <ele>2317.6000976562</ele>
        <time>2013-03-22T11:06:14Z</time>
      </trkpt>
      <trkpt lat="45.48913" lon="6.70919">
        <ele>2315.8000488281</ele>
        <time>2013-03-22T11:06:25Z</time>
      </trkpt>
      <trkpt lat="45.48917" lon="6.7088">
        <ele>2308.3999023438</ele>
        <time>2013-03-22T11:08:15Z</time>
      </trkpt>
      <trkpt lat="45.48916" lon="6.7083">
        <ele>2293.3000488281</ele>
        <time>2013-03-22T11:08:20Z</time>
      </trkpt>
      <trkpt lat="45.48899" lon="6.70793">
        <ele>2279</ele>
        <time>2013-03-22T11:08:23Z</time>
      </trkpt>
      <trkpt lat="45.48885" lon="6.70758">
        <ele>2268.5</ele>
        <time>2013-03-22T11:08:25Z</time>
      </trkpt>
      <trkpt lat="45.48869" lon="6.7072">
        <ele>2267.1999511719</ele>
        <time>2013-03-22T11:08:27Z</time>
      </trkpt>
      <trkpt lat="45.48848" lon="6.70682">
        <ele>2261.6999511719</ele>
        <time>2013-03-22T11:08:29Z</time>
      </trkpt>
      <trkpt lat="45.48827" lon="6.70648">
        <ele>2259.1000976562</ele>
        <time>2013-03-22T11:08:31Z</time>
      </trkpt>
      <trkpt lat="45.48808" lon="6.70618">
        <ele>2256.6999511719</ele>
        <time>2013-03-22T11:08:33Z</time>
      </trkpt>
      <trkpt lat="45.48788" lon="6.70591">
        <ele>2254.3000488281</ele>
        <time>2013-03-22T11:08:35Z</time>
      </trkpt>
      <trkpt lat="45.48755" lon="6.70561">
        <ele>2250.3000488281</ele>
        <time>2013-03-22T11:08:38Z</time>
      </trkpt>
      <trkpt lat="45.48726" lon="6.70541">
        <ele>2249.1000976562</ele>
        <time>2013-03-22T11:08:41Z</time>
      </trkpt>
      <trkpt lat="45.48701" lon="6.70524">
        <ele>2247.3000488281</ele>
        <time>2013-03-22T11:08:44Z</time>
      </trkpt>
      <trkpt lat="45.48675" lon="6.705">
        <ele>2245.8000488281</ele>
        <time>2013-03-22T11:08:48Z</time>
      </trkpt>
      <trkpt lat="45.48648" lon="6.70472">
        <ele>2242.6999511719</ele>
        <time>2013-03-22T11:08:53Z</time>
      </trkpt>
      <trkpt lat="45.48627" lon="6.70428">
        <ele>2238</ele>
        <time>2013-03-22T11:08:57Z</time>
      </trkpt>
      <trkpt lat="45.48606" lon="6.70386">
        <ele>2233.6000976562</ele>
        <time>2013-03-22T11:09:01Z</time>
      </trkpt>
      <trkpt lat="45.48599" lon="6.70343">
        <ele>2229.8999023438</ele>
        <time>2013-03-22T11:09:08Z</time>
      </trkpt>
      <trkpt lat="45.48594" lon="6.70302">
        <ele>2223.5</ele>
        <time>2013-03-22T11:09:51Z</time>
      </trkpt>
      <trkpt lat="45.48584" lon="6.7026">
        <ele>2216.3999023438</ele>
        <time>2013-03-22T11:09:57Z</time>
      </trkpt>
      <trkpt lat="45.48598" lon="6.70214">
        <ele>2203.6999511719</ele>
        <time>2013-03-22T11:10:05Z</time>
      </trkpt>
      <trkpt lat="45.48591" lon="6.7016">
        <ele>2188.6999511719</ele>
        <time>2013-03-22T11:10:09Z</time>
      </trkpt>
      <trkpt lat="45.48579" lon="6.70109">
        <ele>2177.3000488281</ele>
        <time>2013-03-22T11:10:12Z</time>
      </trkpt>
      <trkpt lat="45.48565" lon="6.70062">
        <ele>2166.1999511719</ele>
        <time>2013-03-22T11:10:15Z</time>
      </trkpt>
      <trkpt lat="45.48549" lon="6.70026">
        <ele>2161.5</ele>
        <time>2013-03-22T11:10:18Z</time>
      </trkpt>
      <trkpt lat="45.48523" lon="6.70002">
        <ele>2152.6000976562</ele>
        <time>2013-03-22T11:10:25Z</time>
      </trkpt>
      <trkpt lat="45.48503" lon="6.69974">
        <ele>2148.3000488281</ele>
        <time>2013-03-22T11:10:30Z</time>
      </trkpt>
      <trkpt lat="45.48486" lon="6.69941">
        <ele>2138.1000976562</ele>
        <time>2013-03-22T11:10:35Z</time>
      </trkpt>
      <trkpt lat="45.48469" lon="6.69905">
        <ele>2125.8999023438</ele>
        <time>2013-03-22T11:10:40Z</time>
      </trkpt>
      <trkpt lat="45.4845" lon="6.69867">
        <ele>2115.8999023438</ele>
        <time>2013-03-22T11:10:44Z</time>
      </trkpt>
      <trkpt lat="45.48428" lon="6.69839">
        <ele>2112.3999023438</ele>
        <time>2013-03-22T11:10:47Z</time>
      </trkpt>
      <trkpt lat="45.48409" lon="6.69809">
        <ele>2104.1999511719</ele>
        <time>2013-03-22T11:10:52Z</time>
      </trkpt>
      <trkpt lat="45.48392" lon="6.69771">
        <ele>2086.3999023438</ele>
        <time>2013-03-22T11:11:16Z</time>
      </trkpt>
      <trkpt lat="45.48364" lon="6.6975">
        <ele>2078.8000488281</ele>
        <time>2013-03-22T11:11:19Z</time>
      </trkpt>
      <trkpt lat="45.48339" lon="6.69722">
        <ele>2077</ele>
        <time>2013-03-22T11:11:22Z</time>
      </trkpt>
      <trkpt lat="45.48313" lon="6.69699">
        <ele>2064.6000976562</ele>
        <time>2013-03-22T11:11:25Z</time>
      </trkpt>
      <trkpt lat="45.4829" lon="6.69669">
        <ele>2057.1999511719</ele>
        <time>2013-03-22T11:11:28Z</time>
      </trkpt>
      <trkpt lat="45.4826" lon="6.69628">
        <ele>2048.5</ele>
        <time>2013-03-22T11:11:32Z</time>
      </trkpt>
      <trkpt lat="45.48233" lon="6.69604">
        <ele>2042.8000488281</ele>
        <time>2013-03-22T11:11:35Z</time>
      </trkpt>
      <trkpt lat="45.48207" lon="6.69578">
        <ele>2036.8999023438</ele>
        <time>2013-03-22T11:11:38Z</time>
      </trkpt>
      <trkpt lat="45.48182" lon="6.69555">
        <ele>2030.3000488281</ele>
        <time>2013-03-22T11:11:41Z</time>
      </trkpt>
      <trkpt lat="45.48161" lon="6.69527">
        <ele>2028.3000488281</ele>
        <time>2013-03-22T11:11:44Z</time>
      </trkpt>
      <trkpt lat="45.48137" lon="6.69509">
        <ele>2031</ele>
        <time>2013-03-22T11:12:20Z</time>
      </trkpt>
      <trkpt lat="45.48109" lon="6.69498">
        <ele>2021.5</ele>
        <time>2013-03-22T11:12:27Z</time>
      </trkpt>
      <trkpt lat="45.4808" lon="6.69506">
        <ele>2010.1000976562</ele>
        <time>2013-03-22T11:12:31Z</time>
      </trkpt>
      <trkpt lat="45.48048" lon="6.69512">
        <ele>2006.3000488281</ele>
        <time>2013-03-22T11:12:34Z</time>
      </trkpt>
      <trkpt lat="45.48014" lon="6.69511">
        <ele>2005.8999023438</ele>
        <time>2013-03-22T11:12:38Z</time>
      </trkpt>
      <trkpt lat="45.47987" lon="6.69503">
        <ele>2005.3999023438</ele>
        <time>2013-03-22T11:12:44Z</time>
      </trkpt>
      <trkpt lat="45.47957" lon="6.69504">
        <ele>1998.0999755859</ele>
        <time>2013-03-22T11:12:56Z</time>
      </trkpt>
      <trkpt lat="45.47929" lon="6.69502">
        <ele>1994.5999755859</ele>
        <time>2013-03-22T11:14:54Z</time>
      </trkpt>
      <trkpt lat="45.479" lon="6.69515">
        <ele>1993</ele>
        <time>2013-03-22T11:15:07Z</time>
      </trkpt>
      <trkpt lat="45.47872" lon="6.69519">
        <ele>1988.0999755859</ele>
        <time>2013-03-22T11:15:12Z</time>
      </trkpt>
      <trkpt lat="45.47843" lon="6.69512">
        <ele>1984.1999511719</ele>
        <time>2013-03-22T11:15:17Z</time>
      </trkpt>
      <trkpt lat="45.47811" lon="6.69502">
        <ele>1980.0999755859</ele>
        <time>2013-03-22T11:15:22Z</time>
      </trkpt>
      <trkpt lat="45.47784" lon="6.695">
        <ele>1977.5999755859</ele>
        <time>2013-03-22T11:15:26Z</time>
      </trkpt>
      <trkpt lat="45.47754" lon="6.69497">
        <ele>1965.8000488281</ele>
        <time>2013-03-22T11:15:48Z</time>
      </trkpt>
      <trkpt lat="45.4773" lon="6.69473">
        <ele>1956.6999511719</ele>
        <time>2013-03-22T11:15:53Z</time>
      </trkpt>
      <trkpt lat="45.47703" lon="6.69442">
        <ele>1949.9000244141</ele>
        <time>2013-03-22T11:15:58Z</time>
      </trkpt>
      <trkpt lat="45.47678" lon="6.69417">
        <ele>1946.6999511719</ele>
        <time>2013-03-22T11:16:02Z</time>
      </trkpt>
      <trkpt lat="45.47654" lon="6.69381">
        <ele>1941.1999511719</ele>
        <time>2013-03-22T11:16:05Z</time>
      </trkpt>
      <trkpt lat="45.4763" lon="6.69343">
        <ele>1932.1999511719</ele>
        <time>2013-03-22T11:16:09Z</time>
      </trkpt>
      <trkpt lat="45.47604" lon="6.69322">
        <ele>1924.9000244141</ele>
        <time>2013-03-22T11:16:12Z</time>
      </trkpt>
      <trkpt lat="45.47584" lon="6.69292">
        <ele>1920.1999511719</ele>
        <time>2013-03-22T11:16:16Z</time>
      </trkpt>
      <trkpt lat="45.47572" lon="6.69257">
        <ele>1916.5</ele>
        <time>2013-03-22T11:17:34Z</time>
      </trkpt>
      <trkpt lat="45.47551" lon="6.69246">
        <ele>1910.4000244141</ele>
        <time>2013-03-22T11:57:56Z</time>
      </trkpt>
      <trkpt lat="45.47529" lon="6.69212">
        <ele>1904.8000488281</ele>
        <time>2013-03-22T11:58:01Z</time>
      </trkpt>
      <trkpt lat="45.4751" lon="6.6918">
        <ele>1897</ele>
        <time>2013-03-22T11:58:05Z</time>
      </trkpt>
      <trkpt lat="45.4749" lon="6.6915">
        <ele>1892.5999755859</ele>
        <time>2013-03-22T11:58:09Z</time>
      </trkpt>
      <trkpt lat="45.47466" lon="6.69128">
        <ele>1883.5</ele>
        <time>2013-03-22T11:58:23Z</time>
      </trkpt>
      <trkpt lat="45.47442" lon="6.69108">
        <ele>1876.0999755859</ele>
        <time>2013-03-22T11:58:27Z</time>
      </trkpt>
      <trkpt lat="45.47418" lon="6.69088">
        <ele>1868.5</ele>
        <time>2013-03-22T11:58:32Z</time>
      </trkpt>
      <trkpt lat="45.47404" lon="6.69053">
        <ele>1863</ele>
        <time>2013-03-22T11:58:36Z</time>
      </trkpt>
      <trkpt lat="45.47389" lon="6.6901">
        <ele>1861.4000244141</ele>
        <time>2013-03-22T11:58:40Z</time>
      </trkpt>
      <trkpt lat="45.47368" lon="6.68974">
        <ele>1853.3000488281</ele>
        <time>2013-03-22T11:58:44Z</time>
      </trkpt>
      <trkpt lat="45.47345" lon="6.68946">
        <ele>1841.5999755859</ele>
        <time>2013-03-22T11:58:48Z</time>
      </trkpt>
      <trkpt lat="45.47329" lon="6.68904">
        <ele>1835.0999755859</ele>
        <time>2013-03-22T11:58:52Z</time>
      </trkpt>
      <trkpt lat="45.47311" lon="6.68933">
        <ele>1828</ele>
        <time>2013-03-22T11:59:00Z</time>
      </trkpt>
      <trkpt lat="45.47311" lon="6.68975">
        <ele>1821.8000488281</ele>
        <time>2013-03-22T12:00:38Z</time>
      </trkpt>
      <trkpt lat="45.47312" lon="6.69015">
        <ele>1830.6999511719</ele>
        <time>2013-03-22T12:00:45Z</time>
      </trkpt>
      <trkpt lat="45.47315" lon="6.69056">
        <ele>1844.1999511719</ele>
        <time>2013-03-22T12:00:54Z</time>
      </trkpt>
      <trkpt lat="45.47322" lon="6.69099">
        <ele>1855.3000488281</ele>
        <time>2013-03-22T12:01:04Z</time>
      </trkpt>
      <trkpt lat="45.47329" lon="6.69138">
        <ele>1864.5999755859</ele>
        <time>2013-03-22T12:01:13Z</time>
      </trkpt>
      <trkpt lat="45.4734" lon="6.69174">
        <ele>1873.1999511719</ele>
        <time>2013-03-22T12:01:28Z</time>
      </trkpt>
      <trkpt lat="45.47357" lon="6.69208">
        <ele>1888.9000244141</ele>
        <time>2013-03-22T12:01:41Z</time>
      </trkpt>
      <trkpt lat="45.47352" lon="6.69251">
        <ele>1896</ele>
        <time>2013-03-22T12:01:48Z</time>
      </trkpt>
      <trkpt lat="45.47358" lon="6.69289">
        <ele>1904.5999755859</ele>
        <time>2013-03-22T12:01:56Z</time>
      </trkpt>
      <trkpt lat="45.47359" lon="6.69332">
        <ele>1912.1999511719</ele>
        <time>2013-03-22T12:02:05Z</time>
      </trkpt>
      <trkpt lat="45.47353" lon="6.69371">
        <ele>1915.5999755859</ele>
        <time>2013-03-22T12:02:16Z</time>
      </trkpt>
      <trkpt lat="45.47361" lon="6.69412">
        <ele>1924.5</ele>
        <time>2013-03-22T12:02:25Z</time>
      </trkpt>
      <trkpt lat="45.47377" lon="6.69447">
        <ele>1939.5999755859</ele>
        <time>2013-03-22T12:02:33Z</time>
      </trkpt>
      <trkpt lat="45.47385" lon="6.69485">
        <ele>1949.8000488281</ele>
        <time>2013-03-22T12:02:42Z</time>
      </trkpt>
      <trkpt lat="45.47394" lon="6.69526">
        <ele>1965.6999511719</ele>
        <time>2013-03-22T12:02:52Z</time>
      </trkpt>
      <trkpt lat="45.47402" lon="6.69567">
        <ele>1974.0999755859</ele>
        <time>2013-03-22T12:03:03Z</time>
      </trkpt>
      <trkpt lat="45.47411" lon="6.69607">
        <ele>1989.9000244141</ele>
        <time>2013-03-22T12:03:13Z</time>
      </trkpt>
      <trkpt lat="45.47416" lon="6.6965">
        <ele>1996.4000244141</ele>
        <time>2013-03-22T12:03:23Z</time>
      </trkpt>
      <trkpt lat="45.47422" lon="6.69692">
        <ele>2010.1999511719</ele>
        <time>2013-03-22T12:03:32Z</time>
      </trkpt>
      <trkpt lat="45.47433" lon="6.6973">
        <ele>2024.1000976562</ele>
        <time>2013-03-22T12:03:41Z</time>
      </trkpt>
      <trkpt lat="45.4744" lon="6.69768">
        <ele>2036.6000976562</ele>
        <time>2013-03-22T12:03:51Z</time>
      </trkpt>
      <trkpt lat="45.47448" lon="6.69807">
        <ele>2046.6999511719</ele>
        <time>2013-03-22T12:04:00Z</time>
      </trkpt>
      <trkpt lat="45.47451" lon="6.69849">
        <ele>2055.3000488281</ele>
        <time>2013-03-22T12:04:10Z</time>
      </trkpt>
      <trkpt lat="45.47452" lon="6.6989">
        <ele>2059.8000488281</ele>
        <time>2013-03-22T12:04:20Z</time>
      </trkpt>
      <trkpt lat="45.47446" lon="6.69929">
        <ele>2065.8999023438</ele>
        <time>2013-03-22T12:04:30Z</time>
      </trkpt>
      <trkpt lat="45.47456" lon="6.69967">
        <ele>2073.5</ele>
        <time>2013-03-22T12:04:39Z</time>
      </trkpt>
      <trkpt lat="45.47468" lon="6.70004">
        <ele>2089.1000976562</ele>
        <time>2013-03-22T12:04:48Z</time>
      </trkpt>
      <trkpt lat="45.47475" lon="6.70042">
        <ele>2103</ele>
        <time>2013-03-22T12:05:03Z</time>
      </trkpt>
      <trkpt lat="45.47488" lon="6.7008">
        <ele>2102.3000488281</ele>
        <time>2013-03-22T12:05:17Z</time>
      </trkpt>
      <trkpt lat="45.47465" lon="6.70117">
        <ele>2103.3999023438</ele>
        <time>2013-03-22T12:05:30Z</time>
      </trkpt>
      <trkpt lat="45.47435" lon="6.70121">
        <ele>2092.5</ele>
        <time>2013-03-22T12:05:35Z</time>
      </trkpt>
      <trkpt lat="45.47398" lon="6.70121">
        <ele>2082.1000976562</ele>
        <time>2013-03-22T12:05:39Z</time>
      </trkpt>
      <trkpt lat="45.47372" lon="6.70107">
        <ele>2076.3999023438</ele>
        <time>2013-03-22T12:05:42Z</time>
      </trkpt>
      <trkpt lat="45.4734" lon="6.70098">
        <ele>2071.6999511719</ele>
        <time>2013-03-22T12:05:46Z</time>
      </trkpt>
      <trkpt lat="45.47311" lon="6.701">
        <ele>2067.8999023438</ele>
        <time>2013-03-22T12:05:53Z</time>
      </trkpt>
      <trkpt lat="45.47319" lon="6.70137">
        <ele>2063.6999511719</ele>
        <time>2013-03-22T12:06:53Z</time>
      </trkpt>
      <trkpt lat="45.47345" lon="6.70154">
        <ele>2071.1999511719</ele>
        <time>2013-03-22T12:07:00Z</time>
      </trkpt>
      <trkpt lat="45.47371" lon="6.70173">
        <ele>2079.8000488281</ele>
        <time>2013-03-22T12:07:08Z</time>
      </trkpt>
      <trkpt lat="45.47396" lon="6.70193">
        <ele>2089.1999511719</ele>
        <time>2013-03-22T12:07:17Z</time>
      </trkpt>
      <trkpt lat="45.4742" lon="6.70212">
        <ele>2094.8999023438</ele>
        <time>2013-03-22T12:07:25Z</time>
      </trkpt>
      <trkpt lat="45.47445" lon="6.70234">
        <ele>2105.6999511719</ele>
        <time>2013-03-22T12:07:34Z</time>
      </trkpt>
      <trkpt lat="45.47469" lon="6.70253">
        <ele>2116.1000976562</ele>
        <time>2013-03-22T12:07:43Z</time>
      </trkpt>
      <trkpt lat="45.47493" lon="6.70272">
        <ele>2121.8000488281</ele>
        <time>2013-03-22T12:07:52Z</time>
      </trkpt>
      <trkpt lat="45.47518" lon="6.70292">
        <ele>2127.6000976562</ele>
        <time>2013-03-22T12:08:00Z</time>
      </trkpt>
      <trkpt lat="45.47545" lon="6.70315">
        <ele>2137.6999511719</ele>
        <time>2013-03-22T12:08:10Z</time>
      </trkpt>
      <trkpt lat="45.4757" lon="6.70338">
        <ele>2146.1999511719</ele>
        <time>2013-03-22T12:08:20Z</time>
      </trkpt>
      <trkpt lat="45.47595" lon="6.70356">
        <ele>2155.1000976562</ele>
        <time>2013-03-22T12:08:28Z</time>
      </trkpt>
      <trkpt lat="45.47619" lon="6.70374">
        <ele>2163.6999511719</ele>
        <time>2013-03-22T12:08:36Z</time>
      </trkpt>
      <trkpt lat="45.47645" lon="6.70393">
        <ele>2172.6999511719</ele>
        <time>2013-03-22T12:08:45Z</time>
      </trkpt>
      <trkpt lat="45.47671" lon="6.70416">
        <ele>2185.3999023438</ele>
        <time>2013-03-22T12:08:54Z</time>
      </trkpt>
      <trkpt lat="45.47697" lon="6.70438">
        <ele>2195.8000488281</ele>
        <time>2013-03-22T12:09:04Z</time>
      </trkpt>
      <trkpt lat="45.47721" lon="6.70458">
        <ele>2206</ele>
        <time>2013-03-22T12:09:13Z</time>
      </trkpt>
      <trkpt lat="45.47746" lon="6.70476">
        <ele>2213.5</ele>
        <time>2013-03-22T12:09:21Z</time>
      </trkpt>
      <trkpt lat="45.47771" lon="6.70495">
        <ele>2219.5</ele>
        <time>2013-03-22T12:09:29Z</time>
      </trkpt>
      <trkpt lat="45.47795" lon="6.70515">
        <ele>2227.6000976562</ele>
        <time>2013-03-22T12:09:37Z</time>
      </trkpt>
      <trkpt lat="45.47821" lon="6.70537">
        <ele>2233.3000488281</ele>
        <time>2013-03-22T12:09:46Z</time>
      </trkpt>
      <trkpt lat="45.47847" lon="6.70558">
        <ele>2238.1000976562</ele>
        <time>2013-03-22T12:09:55Z</time>
      </trkpt>
      <trkpt lat="45.4787" lon="6.70581">
        <ele>2240.1999511719</ele>
        <time>2013-03-22T12:10:06Z</time>
      </trkpt>
      <trkpt lat="45.47899" lon="6.70599">
        <ele>2243.8999023438</ele>
        <time>2013-03-22T12:10:14Z</time>
      </trkpt>
      <trkpt lat="45.47925" lon="6.70619">
        <ele>2250.1999511719</ele>
        <time>2013-03-22T12:10:22Z</time>
      </trkpt>
      <trkpt lat="45.4795" lon="6.7064">
        <ele>2255.8000488281</ele>
        <time>2013-03-22T12:10:30Z</time>
      </trkpt>
      <trkpt lat="45.47974" lon="6.70659">
        <ele>2265.1999511719</ele>
        <time>2013-03-22T12:10:40Z</time>
      </trkpt>
      <trkpt lat="45.47999" lon="6.70678">
        <ele>2270.1999511719</ele>
        <time>2013-03-22T12:10:48Z</time>
      </trkpt>
      <trkpt lat="45.48024" lon="6.70698">
        <ele>2275.6999511719</ele>
        <time>2013-03-22T12:10:56Z</time>
      </trkpt>
      <trkpt lat="45.48047" lon="6.7072">
        <ele>2278.1000976562</ele>
        <time>2013-03-22T12:11:04Z</time>
      </trkpt>
      <trkpt lat="45.48071" lon="6.70741">
        <ele>2283.6999511719</ele>
        <time>2013-03-22T12:11:13Z</time>
      </trkpt>
      <trkpt lat="45.48094" lon="6.70765">
        <ele>2290.5</ele>
        <time>2013-03-22T12:11:23Z</time>
      </trkpt>
      <trkpt lat="45.48121" lon="6.70786">
        <ele>2295.6000976562</ele>
        <time>2013-03-22T12:11:32Z</time>
      </trkpt>
      <trkpt lat="45.48147" lon="6.70804">
        <ele>2305.1999511719</ele>
        <time>2013-03-22T12:11:40Z</time>
      </trkpt>
      <trkpt lat="45.48174" lon="6.70823">
        <ele>2315.1999511719</ele>
        <time>2013-03-22T12:11:48Z</time>
      </trkpt>
      <trkpt lat="45.48197" lon="6.70843">
        <ele>2321.8999023438</ele>
        <time>2013-03-22T12:11:56Z</time>
      </trkpt>
      <trkpt lat="45.48224" lon="6.70864">
        <ele>2327</ele>
        <time>2013-03-22T12:12:05Z</time>
      </trkpt>
      <trkpt lat="45.4825" lon="6.70886">
        <ele>2333.1000976562</ele>
        <time>2013-03-22T12:12:14Z</time>
      </trkpt>
      <trkpt lat="45.48274" lon="6.70908">
        <ele>2335.8999023438</ele>
        <time>2013-03-22T12:12:23Z</time>
      </trkpt>
      <trkpt lat="45.48299" lon="6.7093">
        <ele>2344.1999511719</ele>
        <time>2013-03-22T12:12:32Z</time>
      </trkpt>
      <trkpt lat="45.48325" lon="6.70951">
        <ele>2348.1999511719</ele>
        <time>2013-03-22T12:12:41Z</time>
      </trkpt>
      <trkpt lat="45.48351" lon="6.70971">
        <ele>2353.1999511719</ele>
        <time>2013-03-22T12:12:50Z</time>
      </trkpt>
      <trkpt lat="45.48377" lon="6.70992">
        <ele>2357.6000976562</ele>
        <time>2013-03-22T12:12:59Z</time>
      </trkpt>
      <trkpt lat="45.48402" lon="6.71011">
        <ele>2362.1000976562</ele>
        <time>2013-03-22T12:13:07Z</time>
      </trkpt>
      <trkpt lat="45.48425" lon="6.71031">
        <ele>2368</ele>
        <time>2013-03-22T12:13:15Z</time>
      </trkpt>
      <trkpt lat="45.4845" lon="6.71054">
        <ele>2371.8000488281</ele>
        <time>2013-03-22T12:13:25Z</time>
      </trkpt>
      <trkpt lat="45.48474" lon="6.71072">
        <ele>2377.1999511719</ele>
        <time>2013-03-22T12:13:33Z</time>
      </trkpt>
      <trkpt lat="45.485" lon="6.71091">
        <ele>2377.3999023438</ele>
        <time>2013-03-22T12:13:43Z</time>
      </trkpt>
      <trkpt lat="45.48527" lon="6.71106">
        <ele>2378</ele>
        <time>2013-03-22T12:13:57Z</time>
      </trkpt>
      <trkpt lat="45.48556" lon="6.7112">
        <ele>2372.1999511719</ele>
        <time>2013-03-22T12:14:10Z</time>
      </trkpt>
      <trkpt lat="45.48584" lon="6.71138">
        <ele>2369.3999023438</ele>
        <time>2013-03-22T12:14:16Z</time>
      </trkpt>
      <trkpt lat="45.48605" lon="6.71166">
        <ele>2364.3000488281</ele>
        <time>2013-03-22T12:14:20Z</time>
      </trkpt>
      <trkpt lat="45.48633" lon="6.71184">
        <ele>2357.8000488281</ele>
        <time>2013-03-22T12:14:23Z</time>
      </trkpt>
      <trkpt lat="45.48669" lon="6.71182">
        <ele>2350.3999023438</ele>
        <time>2013-03-22T12:14:26Z</time>
      </trkpt>
      <trkpt lat="45.48704" lon="6.71176">
        <ele>2348.3000488281</ele>
        <time>2013-03-22T12:14:29Z</time>
      </trkpt>
      <trkpt lat="45.4873" lon="6.71163">
        <ele>2348.6000976562</ele>
        <time>2013-03-22T12:14:32Z</time>
      </trkpt>
      <trkpt lat="45.48757" lon="6.71135">
        <ele>2347.5</ele>
        <time>2013-03-22T12:14:37Z</time>
      </trkpt>
      <trkpt lat="45.48774" lon="6.711">
        <ele>2338.1999511719</ele>
        <time>2013-03-22T12:14:41Z</time>
      </trkpt>
      <trkpt lat="45.48787" lon="6.71065">
        <ele>2331.1000976562</ele>
        <time>2013-03-22T12:14:44Z</time>
      </trkpt>
      <trkpt lat="45.48809" lon="6.71027">
        <ele>2321.6000976562</ele>
        <time>2013-03-22T12:14:47Z</time>
      </trkpt>
      <trkpt lat="45.48842" lon="6.70998">
        <ele>2315.6999511719</ele>
        <time>2013-03-22T12:14:50Z</time>
      </trkpt>
      <trkpt lat="45.48872" lon="6.70973">
        <ele>2311.8999023438</ele>
        <time>2013-03-22T12:14:53Z</time>
      </trkpt>
      <trkpt lat="45.48893" lon="6.70943">
        <ele>2310.1000976562</ele>
        <time>2013-03-22T12:14:56Z</time>
      </trkpt>
      <trkpt lat="45.48914" lon="6.70911">
        <ele>2309.1000976562</ele>
        <time>2013-03-22T12:15:00Z</time>
      </trkpt>
      <trkpt lat="45.48938" lon="6.70892">
        <ele>2306.1000976562</ele>
        <time>2013-03-22T12:15:31Z</time>
      </trkpt>
      <trkpt lat="45.48954" lon="6.70926">
        <ele>2299</ele>
        <time>2013-03-22T12:16:24Z</time>
      </trkpt>
      <trkpt lat="45.48967" lon="6.70964">
        <ele>2302.1999511719</ele>
        <time>2013-03-22T12:16:29Z</time>
      </trkpt>
      <trkpt lat="45.48979" lon="6.71003">
        <ele>2304.8999023438</ele>
        <time>2013-03-22T12:16:35Z</time>
      </trkpt>
      <trkpt lat="45.48988" lon="6.71048">
        <ele>2313.5</ele>
        <time>2013-03-22T12:16:42Z</time>
      </trkpt>
      <trkpt lat="45.48994" lon="6.71093">
        <ele>2326.1000976562</ele>
        <time>2013-03-22T12:16:49Z</time>
      </trkpt>
      <trkpt lat="45.49001" lon="6.71135">
        <ele>2337.6999511719</ele>
        <time>2013-03-22T12:16:56Z</time>
      </trkpt>
      <trkpt lat="45.49002" lon="6.71175">
        <ele>2350.5</ele>
        <time>2013-03-22T12:17:02Z</time>
      </trkpt>
      <trkpt lat="45.49005" lon="6.71216">
        <ele>2369.3000488281</ele>
        <time>2013-03-22T12:17:08Z</time>
      </trkpt>
      <trkpt lat="45.49012" lon="6.71255">
        <ele>2386.6000976562</ele>
        <time>2013-03-22T12:17:15Z</time>
      </trkpt>
      <trkpt lat="45.49017" lon="6.71294">
        <ele>2403.1000976562</ele>
        <time>2013-03-22T12:17:22Z</time>
      </trkpt>
      <trkpt lat="45.49023" lon="6.71338">
        <ele>2410.6000976562</ele>
        <time>2013-03-22T12:17:29Z</time>
      </trkpt>
      <trkpt lat="45.49032" lon="6.71376">
        <ele>2420.3999023438</ele>
        <time>2013-03-22T12:17:36Z</time>
      </trkpt>
      <trkpt lat="45.49038" lon="6.7142">
        <ele>2435.8999023438</ele>
        <time>2013-03-22T12:17:43Z</time>
      </trkpt>
      <trkpt lat="45.49043" lon="6.71459">
        <ele>2437.1999511719</ele>
        <time>2013-03-22T12:17:49Z</time>
      </trkpt>
      <trkpt lat="45.4905" lon="6.71503">
        <ele>2432.3000488281</ele>
        <time>2013-03-22T12:17:56Z</time>
      </trkpt>
      <trkpt lat="45.49058" lon="6.71545">
        <ele>2426.6999511719</ele>
        <time>2013-03-22T12:18:03Z</time>
      </trkpt>
      <trkpt lat="45.49063" lon="6.71585">
        <ele>2424.3000488281</ele>
        <time>2013-03-22T12:18:09Z</time>
      </trkpt>
      <trkpt lat="45.49068" lon="6.71628">
        <ele>2423.5</ele>
        <time>2013-03-22T12:18:15Z</time>
      </trkpt>
      <trkpt lat="45.49079" lon="6.71666">
        <ele>2424.3999023438</ele>
        <time>2013-03-22T12:18:22Z</time>
      </trkpt>
      <trkpt lat="45.49086" lon="6.71706">
        <ele>2429.3999023438</ele>
        <time>2013-03-22T12:18:28Z</time>
      </trkpt>
      <trkpt lat="45.49092" lon="6.71745">
        <ele>2430.8000488281</ele>
        <time>2013-03-22T12:18:34Z</time>
      </trkpt>
      <trkpt lat="45.49098" lon="6.71787">
        <ele>2435.6999511719</ele>
        <time>2013-03-22T12:18:41Z</time>
      </trkpt>
      <trkpt lat="45.49104" lon="6.7183">
        <ele>2443</ele>
        <time>2013-03-22T12:18:48Z</time>
      </trkpt>
      <trkpt lat="45.4911" lon="6.71872">
        <ele>2449.3000488281</ele>
        <time>2013-03-22T12:18:55Z</time>
      </trkpt>
      <trkpt lat="45.49118" lon="6.71914">
        <ele>2458.8000488281</ele>
        <time>2013-03-22T12:19:02Z</time>
      </trkpt>
      <trkpt lat="45.49125" lon="6.71954">
        <ele>2471.3000488281</ele>
        <time>2013-03-22T12:19:09Z</time>
      </trkpt>
      <trkpt lat="45.49131" lon="6.71997">
        <ele>2476.1000976562</ele>
        <time>2013-03-22T12:19:16Z</time>
      </trkpt>
      <trkpt lat="45.49139" lon="6.72039">
        <ele>2481.3999023438</ele>
        <time>2013-03-22T12:19:23Z</time>
      </trkpt>
      <trkpt lat="45.49146" lon="6.72082">
        <ele>2484.8999023438</ele>
        <time>2013-03-22T12:19:30Z</time>
      </trkpt>
      <trkpt lat="45.49153" lon="6.72126">
        <ele>2483.8999023438</ele>
        <time>2013-03-22T12:19:37Z</time>
      </trkpt>
      <trkpt lat="45.4916" lon="6.72171">
        <ele>2484.1999511719</ele>
        <time>2013-03-22T12:19:44Z</time>
      </trkpt>
      <trkpt lat="45.49166" lon="6.72213">
        <ele>2486</ele>
        <time>2013-03-22T12:19:51Z</time>
      </trkpt>
      <trkpt lat="45.49173" lon="6.72257">
        <ele>2488.1999511719</ele>
        <time>2013-03-22T12:19:58Z</time>
      </trkpt>
      <trkpt lat="45.49179" lon="6.72296">
        <ele>2493.1999511719</ele>
        <time>2013-03-22T12:20:04Z</time>
      </trkpt>
      <trkpt lat="45.49184" lon="6.72339">
        <ele>2498.1000976562</ele>
        <time>2013-03-22T12:20:11Z</time>
      </trkpt>
      <trkpt lat="45.49192" lon="6.72379">
        <ele>2498.5</ele>
        <time>2013-03-22T12:20:17Z</time>
      </trkpt>
      <trkpt lat="45.49201" lon="6.72422">
        <ele>2502.6999511719</ele>
        <time>2013-03-22T12:20:24Z</time>
      </trkpt>
      <trkpt lat="45.49207" lon="6.72465">
        <ele>2507.6999511719</ele>
        <time>2013-03-22T12:20:31Z</time>
      </trkpt>
      <trkpt lat="45.49214" lon="6.72508">
        <ele>2510.5</ele>
        <time>2013-03-22T12:20:38Z</time>
      </trkpt>
      <trkpt lat="45.49222" lon="6.72551">
        <ele>2512.3999023438</ele>
        <time>2013-03-22T12:20:45Z</time>
      </trkpt>
      <trkpt lat="45.4923" lon="6.72589">
        <ele>2515.1000976562</ele>
        <time>2013-03-22T12:20:51Z</time>
      </trkpt>
      <trkpt lat="45.49237" lon="6.72633">
        <ele>2520.3000488281</ele>
        <time>2013-03-22T12:20:58Z</time>
      </trkpt>
      <trkpt lat="45.49244" lon="6.72675">
        <ele>2527.6000976562</ele>
        <time>2013-03-22T12:21:05Z</time>
      </trkpt>
      <trkpt lat="45.49252" lon="6.72717">
        <ele>2536.8000488281</ele>
        <time>2013-03-22T12:21:12Z</time>
      </trkpt>
      <trkpt lat="45.49257" lon="6.72759">
        <ele>2548.1000976562</ele>
        <time>2013-03-22T12:21:19Z</time>
      </trkpt>
      <trkpt lat="45.49263" lon="6.72802">
        <ele>2547.8999023438</ele>
        <time>2013-03-22T12:21:26Z</time>
      </trkpt>
      <trkpt lat="45.49271" lon="6.72845">
        <ele>2550.6999511719</ele>
        <time>2013-03-22T12:21:33Z</time>
      </trkpt>
      <trkpt lat="45.49277" lon="6.72883">
        <ele>2555.3999023438</ele>
        <time>2013-03-22T12:21:39Z</time>
      </trkpt>
      <trkpt lat="45.49285" lon="6.72925">
        <ele>2561</ele>
        <time>2013-03-22T12:21:46Z</time>
      </trkpt>
      <trkpt lat="45.49292" lon="6.72968">
        <ele>2563.3000488281</ele>
        <time>2013-03-22T12:21:53Z</time>
      </trkpt>
      <trkpt lat="45.49299" lon="6.73013">
        <ele>2567.3999023438</ele>
        <time>2013-03-22T12:22:00Z</time>
      </trkpt>
      <trkpt lat="45.49309" lon="6.73052">
        <ele>2568</ele>
        <time>2013-03-22T12:22:06Z</time>
      </trkpt>
      <trkpt lat="45.49315" lon="6.73091">
        <ele>2568.6000976562</ele>
        <time>2013-03-22T12:22:12Z</time>
      </trkpt>
      <trkpt lat="45.4932" lon="6.73134">
        <ele>2569.8999023438</ele>
        <time>2013-03-22T12:22:18Z</time>
      </trkpt>
      <trkpt lat="45.49326" lon="6.73175">
        <ele>2571.5</ele>
        <time>2013-03-22T12:22:25Z</time>
      </trkpt>
      <trkpt lat="45.49329" lon="6.73219">
        <ele>2576.8000488281</ele>
        <time>2013-03-22T12:22:33Z</time>
      </trkpt>
      <trkpt lat="45.49336" lon="6.73262">
        <ele>2581.8999023438</ele>
        <time>2013-03-22T12:22:41Z</time>
      </trkpt>
      <trkpt lat="45.49342" lon="6.73306">
        <ele>2595.3000488281</ele>
        <time>2013-03-22T12:22:48Z</time>
      </trkpt>
      <trkpt lat="45.49346" lon="6.73349">
        <ele>2615.1000976562</ele>
        <time>2013-03-22T12:22:56Z</time>
      </trkpt>
      <trkpt lat="45.49352" lon="6.73391">
        <ele>2638.3999023438</ele>
        <time>2013-03-22T12:23:04Z</time>
      </trkpt>
      <trkpt lat="45.49359" lon="6.73429">
        <ele>2672.5</ele>
        <time>2013-03-22T12:23:12Z</time>
      </trkpt>
      <trkpt lat="45.49376" lon="6.73466">
        <ele>2709.1999511719</ele>
        <time>2013-03-22T12:23:28Z</time>
      </trkpt>
      <trkpt lat="45.49404" lon="6.7348">
        <ele>2709.5</ele>
        <time>2013-03-22T12:23:35Z</time>
      </trkpt>
      <trkpt lat="45.49435" lon="6.7348">
        <ele>2709.1000976562</ele>
        <time>2013-03-22T12:24:01Z</time>
      </trkpt>
      <trkpt lat="45.49461" lon="6.73468">
        <ele>2702.6999511719</ele>
        <time>2013-03-22T12:24:06Z</time>
      </trkpt>
      <trkpt lat="45.4948" lon="6.7344">
        <ele>2699</ele>
        <time>2013-03-22T12:24:55Z</time>
      </trkpt>
      <trkpt lat="45.49502" lon="6.73411">
        <ele>2698.8999023438</ele>
        <time>2013-03-22T12:25:34Z</time>
      </trkpt>
      <trkpt lat="45.49531" lon="6.73389">
        <ele>2694.3999023438</ele>
        <time>2013-03-22T12:25:40Z</time>
      </trkpt>
      <trkpt lat="45.49563" lon="6.73379">
        <ele>2687.1000976562</ele>
        <time>2013-03-22T12:25:45Z</time>
      </trkpt>
      <trkpt lat="45.49593" lon="6.73364">
        <ele>2676.8999023438</ele>
        <time>2013-03-22T12:25:50Z</time>
      </trkpt>
      <trkpt lat="45.49621" lon="6.73348">
        <ele>2669.8000488281</ele>
        <time>2013-03-22T12:25:54Z</time>
      </trkpt>
      <trkpt lat="45.49647" lon="6.73329">
        <ele>2664</ele>
        <time>2013-03-22T12:25:58Z</time>
      </trkpt>
      <trkpt lat="45.49667" lon="6.73298">
        <ele>2662.1000976562</ele>
        <time>2013-03-22T12:26:02Z</time>
      </trkpt>
      <trkpt lat="45.49672" lon="6.73257">
        <ele>2658</ele>
        <time>2013-03-22T12:26:06Z</time>
      </trkpt>
      <trkpt lat="45.49686" lon="6.73213">
        <ele>2650.3999023438</ele>
        <time>2013-03-22T12:26:10Z</time>
      </trkpt>
      <trkpt lat="45.4969" lon="6.73169">
        <ele>2643.3999023438</ele>
        <time>2013-03-22T12:26:14Z</time>
      </trkpt>
      <trkpt lat="45.49695" lon="6.73126">
        <ele>2638</ele>
        <time>2013-03-22T12:26:19Z</time>
      </trkpt>
      <trkpt lat="45.4971" lon="6.73084">
        <ele>2632.5</ele>
        <time>2013-03-22T12:26:24Z</time>
      </trkpt>
      <trkpt lat="45.49741" lon="6.73077">
        <ele>2621.6999511719</ele>
        <time>2013-03-22T12:27:10Z</time>
      </trkpt>
      <trkpt lat="45.49769" lon="6.73063">
        <ele>2609.8999023438</ele>
        <time>2013-03-22T12:27:15Z</time>
      </trkpt>
      <trkpt lat="45.49794" lon="6.7304">
        <ele>2613.3000488281</ele>
        <time>2013-03-22T12:27:21Z</time>
      </trkpt>
      <trkpt lat="45.49824" lon="6.73017">
        <ele>2612</ele>
        <time>2013-03-22T12:27:26Z</time>
      </trkpt>
      <trkpt lat="45.49844" lon="6.7299">
        <ele>2610.3999023438</ele>
        <time>2013-03-22T12:27:29Z</time>
      </trkpt>
      <trkpt lat="45.49856" lon="6.72948">
        <ele>2609.3000488281</ele>
        <time>2013-03-22T12:27:33Z</time>
      </trkpt>
      <trkpt lat="45.49882" lon="6.72931">
        <ele>2605.1000976562</ele>
        <time>2013-03-22T12:27:36Z</time>
      </trkpt>
      <trkpt lat="45.49915" lon="6.72926">
        <ele>2582.1999511719</ele>
        <time>2013-03-22T12:27:39Z</time>
      </trkpt>
      <trkpt lat="45.4994" lon="6.72905">
        <ele>2577</ele>
        <time>2013-03-22T12:27:42Z</time>
      </trkpt>
      <trkpt lat="45.49963" lon="6.72873">
        <ele>2569.1000976562</ele>
        <time>2013-03-22T12:27:46Z</time>
      </trkpt>
      <trkpt lat="45.49978" lon="6.72836">
        <ele>2559.3000488281</ele>
        <time>2013-03-22T12:27:49Z</time>
      </trkpt>
      <trkpt lat="45.50005" lon="6.728">
        <ele>2544.5</ele>
        <time>2013-03-22T12:27:52Z</time>
      </trkpt>
      <trkpt lat="45.50036" lon="6.72777">
        <ele>2529.5</ele>
        <time>2013-03-22T12:27:55Z</time>
      </trkpt>
      <trkpt lat="45.50064" lon="6.72765">
        <ele>2516.5</ele>
        <time>2013-03-22T12:27:58Z</time>
      </trkpt>
      <trkpt lat="45.50098" lon="6.72758">
        <ele>2506</ele>
        <time>2013-03-22T12:28:01Z</time>
      </trkpt>
      <trkpt lat="45.50132" lon="6.72756">
        <ele>2498.3999023438</ele>
        <time>2013-03-22T12:28:04Z</time>
      </trkpt>
      <trkpt lat="45.50163" lon="6.72747">
        <ele>2490.5</ele>
        <time>2013-03-22T12:28:44Z</time>
      </trkpt>
      <trkpt lat="45.50191" lon="6.72745">
        <ele>2480.3999023438</ele>
        <time>2013-03-22T12:28:49Z</time>
      </trkpt>
      <trkpt lat="45.50222" lon="6.72749">
        <ele>2472.6999511719</ele>
        <time>2013-03-22T12:28:52Z</time>
      </trkpt>
      <trkpt lat="45.5025" lon="6.72745">
        <ele>2472.3000488281</ele>
        <time>2013-03-22T12:28:55Z</time>
      </trkpt>
      <trkpt lat="45.50287" lon="6.72743">
        <ele>2465.6000976562</ele>
        <time>2013-03-22T12:28:58Z</time>
      </trkpt>
      <trkpt lat="45.50323" lon="6.72752">
        <ele>2457.8999023438</ele>
        <time>2013-03-22T12:29:02Z</time>
      </trkpt>
      <trkpt lat="45.50348" lon="6.72722">
        <ele>2448.6999511719</ele>
        <time>2013-03-22T12:29:06Z</time>
      </trkpt>
      <trkpt lat="45.50378" lon="6.72706">
        <ele>2431.8999023438</ele>
        <time>2013-03-22T12:29:15Z</time>
      </trkpt>
      <trkpt lat="45.50404" lon="6.72692">
        <ele>2420.5</ele>
        <time>2013-03-22T12:29:21Z</time>
      </trkpt>
      <trkpt lat="45.50426" lon="6.7266">
        <ele>2418.8999023438</ele>
        <time>2013-03-22T12:29:26Z</time>
      </trkpt>
      <trkpt lat="45.50458" lon="6.72664">
        <ele>2407</ele>
        <time>2013-03-22T12:29:31Z</time>
      </trkpt>
      <trkpt lat="45.50484" lon="6.72656">
        <ele>2397.6000976562</ele>
        <time>2013-03-22T12:29:35Z</time>
      </trkpt>
      <trkpt lat="45.50512" lon="6.72647">
        <ele>2387.1999511719</ele>
        <time>2013-03-22T12:29:39Z</time>
      </trkpt>
      <trkpt lat="45.50543" lon="6.72644">
        <ele>2380.6000976562</ele>
        <time>2013-03-22T12:29:43Z</time>
      </trkpt>
      <trkpt lat="45.50572" lon="6.72651">
        <ele>2371.1000976562</ele>
        <time>2013-03-22T12:29:47Z</time>
      </trkpt>
      <trkpt lat="45.50603" lon="6.72659">
        <ele>2364.6000976562</ele>
        <time>2013-03-22T12:29:51Z</time>
      </trkpt>
      <trkpt lat="45.5063" lon="6.72634">
        <ele>2354.1000976562</ele>
        <time>2013-03-22T12:29:57Z</time>
      </trkpt>
      <trkpt lat="45.50652" lon="6.72606">
        <ele>2342.8999023438</ele>
        <time>2013-03-22T12:30:03Z</time>
      </trkpt>
      <trkpt lat="45.50685" lon="6.7261">
        <ele>2332</ele>
        <time>2013-03-22T12:30:07Z</time>
      </trkpt>
      <trkpt lat="45.50716" lon="6.72609">
        <ele>2318.1999511719</ele>
        <time>2013-03-22T12:30:12Z</time>
      </trkpt>
      <trkpt lat="45.50743" lon="6.72585">
        <ele>2311.6000976562</ele>
        <time>2013-03-22T12:30:17Z</time>
      </trkpt>
      <trkpt lat="45.50774" lon="6.7258">
        <ele>2303.6999511719</ele>
        <time>2013-03-22T12:30:19Z</time>
      </trkpt>
      <trkpt lat="45.50804" lon="6.72576">
        <ele>2294.8999023438</ele>
        <time>2013-03-22T12:30:22Z</time>
      </trkpt>
      <trkpt lat="45.50832" lon="6.72562">
        <ele>2289.5</ele>
        <time>2013-03-22T12:30:25Z</time>
      </trkpt>
      <trkpt lat="45.50861" lon="6.72564">
        <ele>2281.8000488281</ele>
        <time>2013-03-22T12:30:28Z</time>
      </trkpt>
      <trkpt lat="45.50893" lon="6.72565">
        <ele>2271.3000488281</ele>
        <time>2013-03-22T12:30:32Z</time>
      </trkpt>
      <trkpt lat="45.50921" lon="6.72558">
        <ele>2264.8999023438</ele>
        <time>2013-03-22T12:30:36Z</time>
      </trkpt>
      <trkpt lat="45.50953" lon="6.72557">
        <ele>2254.6000976562</ele>
        <time>2013-03-22T12:30:40Z</time>
      </trkpt>
      <trkpt lat="45.50977" lon="6.72524">
        <ele>2247.8999023438</ele>
        <time>2013-03-22T12:30:45Z</time>
      </trkpt>
      <trkpt lat="45.51004" lon="6.72492">
        <ele>2244.8999023438</ele>
        <time>2013-03-22T12:30:48Z</time>
      </trkpt>
      <trkpt lat="45.51038" lon="6.72482">
        <ele>2230</ele>
        <time>2013-03-22T12:30:52Z</time>
      </trkpt>
      <trkpt lat="45.51065" lon="6.72496">
        <ele>2209.5</ele>
        <time>2013-03-22T12:32:06Z</time>
      </trkpt>
      <trkpt lat="45.51041" lon="6.72515">
        <ele>2211.8999023438</ele>
        <time>2013-03-22T12:32:53Z</time>
      </trkpt>
      <trkpt lat="45.51015" lon="6.72531">
        <ele>2222.1000976562</ele>
        <time>2013-03-22T12:33:05Z</time>
      </trkpt>
      <trkpt lat="45.50989" lon="6.72545">
        <ele>2236.1000976562</ele>
        <time>2013-03-22T12:33:19Z</time>
      </trkpt>
      <trkpt lat="45.50962" lon="6.72561">
        <ele>2250.3000488281</ele>
        <time>2013-03-22T12:33:34Z</time>
      </trkpt>
      <trkpt lat="45.50935" lon="6.72575">
        <ele>2258.8000488281</ele>
        <time>2013-03-22T12:33:50Z</time>
      </trkpt>
      <trkpt lat="45.5091" lon="6.72592">
        <ele>2267.1999511719</ele>
        <time>2013-03-22T12:34:04Z</time>
      </trkpt>
      <trkpt lat="45.50883" lon="6.72607">
        <ele>2275.8999023438</ele>
        <time>2013-03-22T12:34:18Z</time>
      </trkpt>
      <trkpt lat="45.50857" lon="6.72621">
        <ele>2285.8999023438</ele>
        <time>2013-03-22T12:34:33Z</time>
      </trkpt>
      <trkpt lat="45.50832" lon="6.72637">
        <ele>2287.5</ele>
        <time>2013-03-22T12:34:48Z</time>
      </trkpt>
      <trkpt lat="45.50806" lon="6.72653">
        <ele>2293.1000976562</ele>
        <time>2013-03-22T12:35:02Z</time>
      </trkpt>
      <trkpt lat="45.50779" lon="6.72666">
        <ele>2303.1999511719</ele>
        <time>2013-03-22T12:35:16Z</time>
      </trkpt>
      <trkpt lat="45.50753" lon="6.72683">
        <ele>2308.5</ele>
        <time>2013-03-22T12:35:30Z</time>
      </trkpt>
      <trkpt lat="45.50726" lon="6.72697">
        <ele>2313.3000488281</ele>
        <time>2013-03-22T12:35:44Z</time>
      </trkpt>
      <trkpt lat="45.50699" lon="6.72712">
        <ele>2316.1000976562</ele>
        <time>2013-03-22T12:35:58Z</time>
      </trkpt>
      <trkpt lat="45.50672" lon="6.72728">
        <ele>2318.6999511719</ele>
        <time>2013-03-22T12:36:13Z</time>
      </trkpt>
      <trkpt lat="45.50647" lon="6.72744">
        <ele>2326.5</ele>
        <time>2013-03-22T12:36:27Z</time>
      </trkpt>
      <trkpt lat="45.50621" lon="6.7276">
        <ele>2336.8000488281</ele>
        <time>2013-03-22T12:36:42Z</time>
      </trkpt>
      <trkpt lat="45.50595" lon="6.72775">
        <ele>2349.1000976562</ele>
        <time>2013-03-22T12:36:57Z</time>
      </trkpt>
      <trkpt lat="45.50568" lon="6.72788">
        <ele>2362.8999023438</ele>
        <time>2013-03-22T12:37:12Z</time>
      </trkpt>
      <trkpt lat="45.50541" lon="6.72801">
        <ele>2379.3999023438</ele>
        <time>2013-03-22T12:37:28Z</time>
      </trkpt>
      <trkpt lat="45.50517" lon="6.7282">
        <ele>2388.6000976562</ele>
        <time>2013-03-22T12:37:52Z</time>
      </trkpt>
      <trkpt lat="45.50491" lon="6.72836">
        <ele>2401.8000488281</ele>
        <time>2013-03-22T12:38:07Z</time>
      </trkpt>
      <trkpt lat="45.50466" lon="6.72856">
        <ele>2412.1999511719</ele>
        <time>2013-03-22T12:38:23Z</time>
      </trkpt>
      <trkpt lat="45.5044" lon="6.72868">
        <ele>2427.8000488281</ele>
        <time>2013-03-22T12:38:38Z</time>
      </trkpt>
      <trkpt lat="45.50413" lon="6.72883">
        <ele>2438.8000488281</ele>
        <time>2013-03-22T12:38:53Z</time>
      </trkpt>
      <trkpt lat="45.50388" lon="6.72898">
        <ele>2452.3999023438</ele>
        <time>2013-03-22T12:39:07Z</time>
      </trkpt>
      <trkpt lat="45.50361" lon="6.7291">
        <ele>2461.8000488281</ele>
        <time>2013-03-22T12:39:21Z</time>
      </trkpt>
      <trkpt lat="45.50334" lon="6.72924">
        <ele>2471.8000488281</ele>
        <time>2013-03-22T12:39:35Z</time>
      </trkpt>
      <trkpt lat="45.50308" lon="6.7294">
        <ele>2479.3000488281</ele>
        <time>2013-03-22T12:39:49Z</time>
      </trkpt>
      <trkpt lat="45.50282" lon="6.72954">
        <ele>2487.3999023438</ele>
        <time>2013-03-22T12:40:03Z</time>
      </trkpt>
      <trkpt lat="45.50256" lon="6.7297">
        <ele>2495.5</ele>
        <time>2013-03-22T12:40:18Z</time>
      </trkpt>
      <trkpt lat="45.50229" lon="6.72986">
        <ele>2505</ele>
        <time>2013-03-22T12:40:33Z</time>
      </trkpt>
      <trkpt lat="45.50203" lon="6.73001">
        <ele>2509.8999023438</ele>
        <time>2013-03-22T12:40:47Z</time>
      </trkpt>
      <trkpt lat="45.50178" lon="6.73021">
        <ele>2513.3000488281</ele>
        <time>2013-03-22T12:41:03Z</time>
      </trkpt>
      <trkpt lat="45.5015" lon="6.73032">
        <ele>2522.1999511719</ele>
        <time>2013-03-22T12:41:15Z</time>
      </trkpt>
      <trkpt lat="45.50125" lon="6.73052">
        <ele>2522.8000488281</ele>
        <time>2013-03-22T12:41:31Z</time>
      </trkpt>
      <trkpt lat="45.50097" lon="6.73061">
        <ele>2536.3999023438</ele>
        <time>2013-03-22T12:41:44Z</time>
      </trkpt>
      <trkpt lat="45.50072" lon="6.73077">
        <ele>2540.3000488281</ele>
        <time>2013-03-22T12:41:58Z</time>
      </trkpt>
      <trkpt lat="45.50048" lon="6.73098">
        <ele>2545</ele>
        <time>2013-03-22T12:42:13Z</time>
      </trkpt>
      <trkpt lat="45.50024" lon="6.73118">
        <ele>2552.1999511719</ele>
        <time>2013-03-22T12:42:28Z</time>
      </trkpt>
      <trkpt lat="45.49996" lon="6.73125">
        <ele>2571.6000976562</ele>
        <time>2013-03-22T12:42:43Z</time>
      </trkpt>
      <trkpt lat="45.49971" lon="6.73143">
        <ele>2579.1000976562</ele>
        <time>2013-03-22T12:42:57Z</time>
      </trkpt>
      <trkpt lat="45.49945" lon="6.73155">
        <ele>2592.1999511719</ele>
        <time>2013-03-22T12:43:11Z</time>
      </trkpt>
      <trkpt lat="45.49918" lon="6.73168">
        <ele>2607.8000488281</ele>
        <time>2013-03-22T12:43:27Z</time>
      </trkpt>
      <trkpt lat="45.49891" lon="6.7318">
        <ele>2620.1999511719</ele>
        <time>2013-03-22T12:43:41Z</time>
      </trkpt>
      <trkpt lat="45.49865" lon="6.73194">
        <ele>2631.6000976562</ele>
        <time>2013-03-22T12:43:55Z</time>
      </trkpt>
      <trkpt lat="45.49837" lon="6.73201">
        <ele>2642.6000976562</ele>
        <time>2013-03-22T12:44:11Z</time>
      </trkpt>
      <trkpt lat="45.49809" lon="6.73214">
        <ele>2653.8999023438</ele>
        <time>2013-03-22T12:44:27Z</time>
      </trkpt>
      <trkpt lat="45.49783" lon="6.73234">
        <ele>2666.6000976562</ele>
        <time>2013-03-22T12:44:42Z</time>
      </trkpt>
      <trkpt lat="45.49759" lon="6.73258">
        <ele>2672.6999511719</ele>
        <time>2013-03-22T12:44:55Z</time>
      </trkpt>
      <trkpt lat="45.49733" lon="6.73275">
        <ele>2676</ele>
        <time>2013-03-22T12:45:09Z</time>
      </trkpt>
      <trkpt lat="45.49707" lon="6.7329">
        <ele>2677.8999023438</ele>
        <time>2013-03-22T12:45:22Z</time>
      </trkpt>
      <trkpt lat="45.49679" lon="6.73301">
        <ele>2675.5</ele>
        <time>2013-03-22T12:45:37Z</time>
      </trkpt>
      <trkpt lat="45.49652" lon="6.73315">
        <ele>2673.6999511719</ele>
        <time>2013-03-22T12:45:51Z</time>
      </trkpt>
      <trkpt lat="45.49624" lon="6.73327">
        <ele>2674.1000976562</ele>
        <time>2013-03-22T12:46:06Z</time>
      </trkpt>
      <trkpt lat="45.49598" lon="6.73344">
        <ele>2679.3000488281</ele>
        <time>2013-03-22T12:46:20Z</time>
      </trkpt>
      <trkpt lat="45.49572" lon="6.73361">
        <ele>2686.8000488281</ele>
        <time>2013-03-22T12:46:34Z</time>
      </trkpt>
      <trkpt lat="45.49544" lon="6.73375">
        <ele>2692.1999511719</ele>
        <time>2013-03-22T12:46:50Z</time>
      </trkpt>
      <trkpt lat="45.49518" lon="6.73389">
        <ele>2697.1999511719</ele>
        <time>2013-03-22T12:47:04Z</time>
      </trkpt>
      <trkpt lat="45.49491" lon="6.73404">
        <ele>2703.5</ele>
        <time>2013-03-22T12:47:19Z</time>
      </trkpt>
      <trkpt lat="45.49466" lon="6.73421">
        <ele>2706</ele>
        <time>2013-03-22T12:47:32Z</time>
      </trkpt>
      <trkpt lat="45.4944" lon="6.73434">
        <ele>2707.6000976562</ele>
        <time>2013-03-22T12:47:46Z</time>
      </trkpt>
      <trkpt lat="45.4947" lon="6.73432">
        <ele>2699.8000488281</ele>
        <time>2013-03-22T12:48:14Z</time>
      </trkpt>
      <trkpt lat="45.49493" lon="6.73409">
        <ele>2697.1000976562</ele>
        <time>2013-03-22T12:48:19Z</time>
      </trkpt>
      <trkpt lat="45.49522" lon="6.73391">
        <ele>2693.1999511719</ele>
        <time>2013-03-22T12:48:23Z</time>
      </trkpt>
      <trkpt lat="45.4955" lon="6.73389">
        <ele>2690.1000976562</ele>
        <time>2013-03-22T12:48:27Z</time>
      </trkpt>
      <trkpt lat="45.49584" lon="6.73399">
        <ele>2684.1000976562</ele>
        <time>2013-03-22T12:48:31Z</time>
      </trkpt>
      <trkpt lat="45.49612" lon="6.73383">
        <ele>2677.8999023438</ele>
        <time>2013-03-22T12:48:35Z</time>
      </trkpt>
      <trkpt lat="45.49635" lon="6.73362">
        <ele>2674.6000976562</ele>
        <time>2013-03-22T12:48:39Z</time>
      </trkpt>
      <trkpt lat="45.49668" lon="6.73342">
        <ele>2665.6999511719</ele>
        <time>2013-03-22T12:48:43Z</time>
      </trkpt>
      <trkpt lat="45.49693" lon="6.73325">
        <ele>2666</ele>
        <time>2013-03-22T12:48:46Z</time>
      </trkpt>
      <trkpt lat="45.49715" lon="6.733">
        <ele>2671.8000488281</ele>
        <time>2013-03-22T12:49:00Z</time>
      </trkpt>
      <trkpt lat="45.4973" lon="6.73267">
        <ele>2680</ele>
        <time>2013-03-22T12:49:31Z</time>
      </trkpt>
      <trkpt lat="45.49749" lon="6.73239">
        <ele>2682.1999511719</ele>
        <time>2013-03-22T12:49:56Z</time>
      </trkpt>
      <trkpt lat="45.49776" lon="6.73229">
        <ele>2673.8000488281</ele>
        <time>2013-03-22T12:50:16Z</time>
      </trkpt>
      <trkpt lat="45.49802" lon="6.73249">
        <ele>2669.3999023438</ele>
        <time>2013-03-22T12:50:33Z</time>
      </trkpt>
      <trkpt lat="45.4983" lon="6.73247">
        <ele>2658.8999023438</ele>
        <time>2013-03-22T12:50:50Z</time>
      </trkpt>
      <trkpt lat="45.4985" lon="6.73219">
        <ele>2650.1000976562</ele>
        <time>2013-03-22T12:50:56Z</time>
      </trkpt>
      <trkpt lat="45.49882" lon="6.73206">
        <ele>2645.3999023438</ele>
        <time>2013-03-22T12:51:01Z</time>
      </trkpt>
      <trkpt lat="45.49891" lon="6.73162">
        <ele>2633.3999023438</ele>
        <time>2013-03-22T12:51:07Z</time>
      </trkpt>
      <trkpt lat="45.49901" lon="6.73122">
        <ele>2624.1999511719</ele>
        <time>2013-03-22T12:51:11Z</time>
      </trkpt>
      <trkpt lat="45.49918" lon="6.73089">
        <ele>2613.3000488281</ele>
        <time>2013-03-22T12:51:17Z</time>
      </trkpt>
      <trkpt lat="45.49949" lon="6.7307">
        <ele>2604.8999023438</ele>
        <time>2013-03-22T12:51:23Z</time>
      </trkpt>
      <trkpt lat="45.49971" lon="6.73048">
        <ele>2589.3000488281</ele>
        <time>2013-03-22T12:51:28Z</time>
      </trkpt>
      <trkpt lat="45.50003" lon="6.73035">
        <ele>2581</ele>
        <time>2013-03-22T12:51:32Z</time>
      </trkpt>
      <trkpt lat="45.50033" lon="6.73042">
        <ele>2571.6000976562</ele>
        <time>2013-03-22T12:51:37Z</time>
      </trkpt>
      <trkpt lat="45.50065" lon="6.73048">
        <ele>2562.1999511719</ele>
        <time>2013-03-22T12:51:42Z</time>
      </trkpt>
      <trkpt lat="45.50094" lon="6.73049">
        <ele>2555.6000976562</ele>
        <time>2013-03-22T12:51:46Z</time>
      </trkpt>
      <trkpt lat="45.50122" lon="6.73052">
        <ele>2552.1999511719</ele>
        <time>2013-03-22T12:51:50Z</time>
      </trkpt>
      <trkpt lat="45.50156" lon="6.73048">
        <ele>2542.3999023438</ele>
        <time>2013-03-22T12:51:55Z</time>
      </trkpt>
      <trkpt lat="45.50184" lon="6.73034">
        <ele>2531.8999023438</ele>
        <time>2013-03-22T12:51:59Z</time>
      </trkpt>
      <trkpt lat="45.50206" lon="6.73011">
        <ele>2523.1999511719</ele>
        <time>2013-03-22T12:52:03Z</time>
      </trkpt>
      <trkpt lat="45.50234" lon="6.72989">
        <ele>2513.6999511719</ele>
        <time>2013-03-22T12:52:07Z</time>
      </trkpt>
      <trkpt lat="45.50259" lon="6.7297">
        <ele>2505.8000488281</ele>
        <time>2013-03-22T12:52:11Z</time>
      </trkpt>
      <trkpt lat="45.50287" lon="6.72956">
        <ele>2496.1999511719</ele>
        <time>2013-03-22T12:52:15Z</time>
      </trkpt>
      <trkpt lat="45.50315" lon="6.72946">
        <ele>2491.3000488281</ele>
        <time>2013-03-22T12:52:19Z</time>
      </trkpt>
      <trkpt lat="45.50346" lon="6.72927">
        <ele>2485.8000488281</ele>
        <time>2013-03-22T12:52:24Z</time>
      </trkpt>
      <trkpt lat="45.50375" lon="6.72923">
        <ele>2480.8999023438</ele>
        <time>2013-03-22T12:52:28Z</time>
      </trkpt>
      <trkpt lat="45.50403" lon="6.72897">
        <ele>2468.3999023438</ele>
        <time>2013-03-22T12:52:33Z</time>
      </trkpt>
      <trkpt lat="45.50431" lon="6.72877">
        <ele>2460.8000488281</ele>
        <time>2013-03-22T12:52:39Z</time>
      </trkpt>
      <trkpt lat="45.50462" lon="6.72871">
        <ele>2448</ele>
        <time>2013-03-22T12:52:46Z</time>
      </trkpt>
      <trkpt lat="45.5048" lon="6.72836">
        <ele>2439.6999511719</ele>
        <time>2013-03-22T12:52:55Z</time>
      </trkpt>
      <trkpt lat="45.50508" lon="6.72847">
        <ele>2423.6000976562</ele>
        <time>2013-03-22T12:53:04Z</time>
      </trkpt>
      <trkpt lat="45.50514" lon="6.72807">
        <ele>2411.5</ele>
        <time>2013-03-22T12:53:12Z</time>
      </trkpt>
      <trkpt lat="45.5054" lon="6.72792">
        <ele>2393.1999511719</ele>
        <time>2013-03-22T12:53:18Z</time>
      </trkpt>
      <trkpt lat="45.50568" lon="6.72792">
        <ele>2381.1000976562</ele>
        <time>2013-03-22T12:53:23Z</time>
      </trkpt>
      <trkpt lat="45.50599" lon="6.72795">
        <ele>2363.6999511719</ele>
        <time>2013-03-22T12:53:28Z</time>
      </trkpt>
      <trkpt lat="45.50627" lon="6.72786">
        <ele>2353</ele>
        <time>2013-03-22T12:53:32Z</time>
      </trkpt>
      <trkpt lat="45.50654" lon="6.72766">
        <ele>2343.8999023438</ele>
        <time>2013-03-22T12:53:36Z</time>
      </trkpt>
      <trkpt lat="45.50682" lon="6.72742">
        <ele>2332.6999511719</ele>
        <time>2013-03-22T12:53:40Z</time>
      </trkpt>
      <trkpt lat="45.50711" lon="6.72726">
        <ele>2325.8999023438</ele>
        <time>2013-03-22T12:53:44Z</time>
      </trkpt>
      <trkpt lat="45.50739" lon="6.72715">
        <ele>2321.5</ele>
        <time>2013-03-22T12:53:48Z</time>
      </trkpt>
      <trkpt lat="45.50767" lon="6.72704">
        <ele>2319.1999511719</ele>
        <time>2013-03-22T12:53:52Z</time>
      </trkpt>
      <trkpt lat="45.50784" lon="6.72671">
        <ele>2308.5</ele>
        <time>2013-03-22T12:53:57Z</time>
      </trkpt>
      <trkpt lat="45.50811" lon="6.72653">
        <ele>2298.5</ele>
        <time>2013-03-22T12:54:02Z</time>
      </trkpt>
      <trkpt lat="45.50841" lon="6.72641">
        <ele>2296.1000976562</ele>
        <time>2013-03-22T12:54:07Z</time>
      </trkpt>
      <trkpt lat="45.50874" lon="6.72642">
        <ele>2290.1000976562</ele>
        <time>2013-03-22T12:54:12Z</time>
      </trkpt>
      <trkpt lat="45.509" lon="6.72622">
        <ele>2277.6000976562</ele>
        <time>2013-03-22T12:54:17Z</time>
      </trkpt>
      <trkpt lat="45.50932" lon="6.72611">
        <ele>2268.1000976562</ele>
        <time>2013-03-22T12:54:21Z</time>
      </trkpt>
      <trkpt lat="45.50961" lon="6.72603">
        <ele>2262.6999511719</ele>
        <time>2013-03-22T12:54:25Z</time>
      </trkpt>
      <trkpt lat="45.50969" lon="6.72565">
        <ele>2261.8999023438</ele>
        <time>2013-03-22T12:54:30Z</time>
      </trkpt>
      <trkpt lat="45.50981" lon="6.72525">
        <ele>2262.6999511719</ele>
        <time>2013-03-22T12:54:35Z</time>
      </trkpt>
      <trkpt lat="45.51009" lon="6.7249">
        <ele>2254.1000976562</ele>
        <time>2013-03-22T12:54:40Z</time>
      </trkpt>
      <trkpt lat="45.5104" lon="6.72481">
        <ele>2242.8000488281</ele>
        <time>2013-03-22T12:54:43Z</time>
      </trkpt>
      <trkpt lat="45.51069" lon="6.72496">
        <ele>2223.8999023438</ele>
        <time>2013-03-22T12:54:47Z</time>
      </trkpt>
      <trkpt lat="45.51082" lon="6.72533">
        <ele>2205.1000976562</ele>
        <time>2013-03-22T12:55:15Z</time>
      </trkpt>
      <trkpt lat="45.51106" lon="6.72559">
        <ele>2198.1000976562</ele>
        <time>2013-03-22T12:55:19Z</time>
      </trkpt>
      <trkpt lat="45.51124" lon="6.72593">
        <ele>2195</ele>
        <time>2013-03-22T12:55:23Z</time>
      </trkpt>
      <trkpt lat="45.51149" lon="6.72618">
        <ele>2190</ele>
        <time>2013-03-22T12:55:29Z</time>
      </trkpt>
      <trkpt lat="45.51171" lon="6.72648">
        <ele>2180.3000488281</ele>
        <time>2013-03-22T12:55:36Z</time>
      </trkpt>
      <trkpt lat="45.51192" lon="6.72682">
        <ele>2172</ele>
        <time>2013-03-22T12:55:42Z</time>
      </trkpt>
      <trkpt lat="45.51195" lon="6.72727">
        <ele>2179.6999511719</ele>
        <time>2013-03-22T12:55:46Z</time>
      </trkpt>
      <trkpt lat="45.51196" lon="6.7277">
        <ele>2166.1999511719</ele>
        <time>2013-03-22T12:55:52Z</time>
      </trkpt>
      <trkpt lat="45.51202" lon="6.72813">
        <ele>2151.3999023438</ele>
        <time>2013-03-22T12:55:58Z</time>
      </trkpt>
      <trkpt lat="45.51214" lon="6.72851">
        <ele>2148.1000976562</ele>
        <time>2013-03-22T12:56:02Z</time>
      </trkpt>
      <trkpt lat="45.51236" lon="6.72879">
        <ele>2139.3999023438</ele>
        <time>2013-03-22T12:56:07Z</time>
      </trkpt>
      <trkpt lat="45.51259" lon="6.72901">
        <ele>2133</ele>
        <time>2013-03-22T12:56:11Z</time>
      </trkpt>
      <trkpt lat="45.51286" lon="6.72897">
        <ele>2110</ele>
        <time>2013-03-22T12:56:30Z</time>
      </trkpt>
      <trkpt lat="45.51314" lon="6.72894">
        <ele>2105.6000976562</ele>
        <time>2013-03-22T12:56:39Z</time>
      </trkpt>
      <trkpt lat="45.51347" lon="6.729">
        <ele>2098</ele>
        <time>2013-03-22T12:57:21Z</time>
      </trkpt>
      <trkpt lat="45.51378" lon="6.72917">
        <ele>2092.5</ele>
        <time>2013-03-22T12:57:26Z</time>
      </trkpt>
      <trkpt lat="45.51408" lon="6.72949">
        <ele>2090.8999023438</ele>
        <time>2013-03-22T12:57:30Z</time>
      </trkpt>
      <trkpt lat="45.51434" lon="6.72968">
        <ele>2088.3999023438</ele>
        <time>2013-03-22T12:57:33Z</time>
      </trkpt>
      <trkpt lat="45.51457" lon="6.72996">
        <ele>2085.1000976562</ele>
        <time>2013-03-22T12:57:36Z</time>
      </trkpt>
      <trkpt lat="45.51479" lon="6.73034">
        <ele>2084.3999023438</ele>
        <time>2013-03-22T12:57:40Z</time>
      </trkpt>
      <trkpt lat="45.51509" lon="6.73054">
        <ele>2079.1000976562</ele>
        <time>2013-03-22T12:57:45Z</time>
      </trkpt>
      <trkpt lat="45.51537" lon="6.73068">
        <ele>2076.6999511719</ele>
        <time>2013-03-22T12:58:05Z</time>
      </trkpt>
      <trkpt lat="45.51559" lon="6.73097">
        <ele>2062.8000488281</ele>
        <time>2013-03-22T12:58:14Z</time>
      </trkpt>
      <trkpt lat="45.51551" lon="6.7314">
        <ele>2055.3000488281</ele>
        <time>2013-03-22T12:58:22Z</time>
      </trkpt>
      <trkpt lat="45.51549" lon="6.73184">
        <ele>2047.8999023438</ele>
        <time>2013-03-22T12:58:28Z</time>
      </trkpt>
      <trkpt lat="45.51536" lon="6.73219">
        <ele>2039.6000976562</ele>
        <time>2013-03-22T12:58:38Z</time>
      </trkpt>
      <trkpt lat="45.51512" lon="6.73241">
        <ele>2035</ele>
        <time>2013-03-22T12:58:42Z</time>
      </trkpt>
      <trkpt lat="45.51486" lon="6.73277">
        <ele>2030.3999023438</ele>
        <time>2013-03-22T12:58:47Z</time>
      </trkpt>
      <trkpt lat="45.51507" lon="6.73305">
        <ele>1979.8000488281</ele>
        <time>2013-03-22T13:01:34Z</time>
      </trkpt>
      <trkpt lat="45.5151" lon="6.73347">
        <ele>1969.4000244141</ele>
        <time>2013-03-22T13:01:47Z</time>
      </trkpt>
      <trkpt lat="45.51512" lon="6.73394">
        <ele>1965.9000244141</ele>
        <time>2013-03-22T13:01:51Z</time>
      </trkpt>
      <trkpt lat="45.51519" lon="6.73434">
        <ele>1963.0999755859</ele>
        <time>2013-03-22T13:01:54Z</time>
      </trkpt>
      <trkpt lat="45.51538" lon="6.73473">
        <ele>1959.8000488281</ele>
        <time>2013-03-22T13:01:58Z</time>
      </trkpt>
      <trkpt lat="45.51543" lon="6.73517">
        <ele>1935.1999511719</ele>
        <time>2013-03-22T13:02:07Z</time>
      </trkpt>
      <trkpt lat="45.51565" lon="6.73541">
        <ele>1906.1999511719</ele>
        <time>2013-03-22T13:03:52Z</time>
      </trkpt>
      <trkpt lat="45.51576" lon="6.73589">
        <ele>1890.8000488281</ele>
        <time>2013-03-22T13:04:05Z</time>
      </trkpt>
      <trkpt lat="45.51599" lon="6.73618">
        <ele>1887.5</ele>
        <time>2013-03-22T13:04:09Z</time>
      </trkpt>
      <trkpt lat="45.51626" lon="6.73657">
        <ele>1884</ele>
        <time>2013-03-22T13:04:12Z</time>
      </trkpt>
      <trkpt lat="45.51653" lon="6.73679">
        <ele>1882.5</ele>
        <time>2013-03-22T13:04:14Z</time>
      </trkpt>
      <trkpt lat="45.51686" lon="6.73692">
        <ele>1878.1999511719</ele>
        <time>2013-03-22T13:04:17Z</time>
      </trkpt>
      <trkpt lat="45.51716" lon="6.73711">
        <ele>1869.0999755859</ele>
        <time>2013-03-22T13:04:22Z</time>
      </trkpt>
      <trkpt lat="45.51743" lon="6.73724">
        <ele>1859.0999755859</ele>
        <time>2013-03-22T13:04:28Z</time>
      </trkpt>
      <trkpt lat="45.5177" lon="6.73732">
        <ele>1847.5999755859</ele>
        <time>2013-03-22T13:04:39Z</time>
      </trkpt>
      <trkpt lat="45.51799" lon="6.7373">
        <ele>1848</ele>
        <time>2013-03-22T13:04:51Z</time>
      </trkpt>
      <trkpt lat="45.51825" lon="6.73718">
        <ele>1842.5999755859</ele>
        <time>2013-03-22T13:05:05Z</time>
      </trkpt>
      <trkpt lat="45.51852" lon="6.73702">
        <ele>1840</ele>
        <time>2013-03-22T13:05:16Z</time>
      </trkpt>
      <trkpt lat="45.51879" lon="6.73714">
        <ele>1832.5</ele>
        <time>2013-03-22T13:05:27Z</time>
      </trkpt>
      <trkpt lat="45.51907" lon="6.73719">
        <ele>1830.5</ele>
        <time>2013-03-22T13:05:34Z</time>
      </trkpt>
      <trkpt lat="45.51937" lon="6.73723">
        <ele>1829.4000244141</ele>
        <time>2013-03-22T13:05:41Z</time>
      </trkpt>
      <trkpt lat="45.51965" lon="6.73734">
        <ele>1825.3000488281</ele>
        <time>2013-03-22T13:05:48Z</time>
      </trkpt>
      <trkpt lat="45.51997" lon="6.73734">
        <ele>1822.3000488281</ele>
        <time>2013-03-22T13:05:53Z</time>
      </trkpt>
      <trkpt lat="45.5203" lon="6.73739">
        <ele>1817.5999755859</ele>
        <time>2013-03-22T13:05:58Z</time>
      </trkpt>
      <trkpt lat="45.52058" lon="6.73737">
        <ele>1814.8000488281</ele>
        <time>2013-03-22T13:06:04Z</time>
      </trkpt>
      <trkpt lat="45.52084" lon="6.73764">
        <ele>1813.5</ele>
        <time>2013-03-22T13:06:07Z</time>
      </trkpt>
      <trkpt lat="45.52112" lon="6.73797">
        <ele>1809.3000488281</ele>
        <time>2013-03-22T13:06:10Z</time>
      </trkpt>
      <trkpt lat="45.5214" lon="6.73825">
        <ele>1805</ele>
        <time>2013-03-22T13:06:14Z</time>
      </trkpt>
      <trkpt lat="45.52165" lon="6.73848">
        <ele>1802.6999511719</ele>
        <time>2013-03-22T13:06:19Z</time>
      </trkpt>
      <trkpt lat="45.52192" lon="6.73862">
        <ele>1801.5</ele>
        <time>2013-03-22T13:06:29Z</time>
      </trkpt>
      <trkpt lat="45.52219" lon="6.7387">
        <ele>1794.9000244141</ele>
        <time>2013-03-22T13:08:23Z</time>
      </trkpt>
      <trkpt lat="45.52228" lon="6.73831">
        <ele>1804.8000488281</ele>
        <time>2013-03-22T13:09:01Z</time>
      </trkpt>
      <trkpt lat="45.52237" lon="6.73789">
        <ele>1810.9000244141</ele>
        <time>2013-03-22T13:09:14Z</time>
      </trkpt>
      <trkpt lat="45.52245" lon="6.73749">
        <ele>1819.3000488281</ele>
        <time>2013-03-22T13:09:28Z</time>
      </trkpt>
      <trkpt lat="45.52252" lon="6.73709">
        <ele>1831.3000488281</ele>
        <time>2013-03-22T13:09:43Z</time>
      </trkpt>
      <trkpt lat="45.52259" lon="6.73671">
        <ele>1838.5</ele>
        <time>2013-03-22T13:09:57Z</time>
      </trkpt>
      <trkpt lat="45.52268" lon="6.73632">
        <ele>1848.0999755859</ele>
        <time>2013-03-22T13:10:12Z</time>
      </trkpt>
      <trkpt lat="45.52274" lon="6.73594">
        <ele>1860.3000488281</ele>
        <time>2013-03-22T13:10:27Z</time>
      </trkpt>
      <trkpt lat="45.5228" lon="6.73553">
        <ele>1877.3000488281</ele>
        <time>2013-03-22T13:10:43Z</time>
      </trkpt>
      <trkpt lat="45.52286" lon="6.73513">
        <ele>1896.4000244141</ele>
        <time>2013-03-22T13:10:59Z</time>
      </trkpt>
      <trkpt lat="45.52292" lon="6.73473">
        <ele>1911.8000488281</ele>
        <time>2013-03-22T13:11:14Z</time>
      </trkpt>
      <trkpt lat="45.52299" lon="6.73435">
        <ele>1924.4000244141</ele>
        <time>2013-03-22T13:11:29Z</time>
      </trkpt>
      <trkpt lat="45.52307" lon="6.73397">
        <ele>1941.9000244141</ele>
        <time>2013-03-22T13:11:45Z</time>
      </trkpt>
      <trkpt lat="45.52313" lon="6.73358">
        <ele>1960.5</ele>
        <time>2013-03-22T13:12:01Z</time>
      </trkpt>
      <trkpt lat="45.52324" lon="6.7332">
        <ele>1976.1999511719</ele>
        <time>2013-03-22T13:12:18Z</time>
      </trkpt>
      <trkpt lat="45.5233" lon="6.73281">
        <ele>1991.0999755859</ele>
        <time>2013-03-22T13:12:33Z</time>
      </trkpt>
      <trkpt lat="45.52337" lon="6.73241">
        <ele>2011.3000488281</ele>
        <time>2013-03-22T13:12:49Z</time>
      </trkpt>
      <trkpt lat="45.52344" lon="6.73201">
        <ele>2025.1000976562</ele>
        <time>2013-03-22T13:13:05Z</time>
      </trkpt>
      <trkpt lat="45.5235" lon="6.73162">
        <ele>2036.8999023438</ele>
        <time>2013-03-22T13:13:19Z</time>
      </trkpt>
      <trkpt lat="45.52357" lon="6.73123">
        <ele>2047.8000488281</ele>
        <time>2013-03-22T13:13:34Z</time>
      </trkpt>
      <trkpt lat="45.52365" lon="6.73084">
        <ele>2059.3999023438</ele>
        <time>2013-03-22T13:13:49Z</time>
      </trkpt>
      <trkpt lat="45.52372" lon="6.73046">
        <ele>2066.6000976562</ele>
        <time>2013-03-22T13:14:03Z</time>
      </trkpt>
      <trkpt lat="45.52381" lon="6.73006">
        <ele>2076</ele>
        <time>2013-03-22T13:14:18Z</time>
      </trkpt>
      <trkpt lat="45.52387" lon="6.72967">
        <ele>2090.6000976562</ele>
        <time>2013-03-22T13:14:33Z</time>
      </trkpt>
      <trkpt lat="45.52393" lon="6.72926">
        <ele>2100.6999511719</ele>
        <time>2013-03-22T13:14:48Z</time>
      </trkpt>
      <trkpt lat="45.524" lon="6.72887">
        <ele>2105.5</ele>
        <time>2013-03-22T13:15:02Z</time>
      </trkpt>
      <trkpt lat="45.52369" lon="6.72884">
        <ele>2095.1999511719</ele>
        <time>2013-03-22T13:15:32Z</time>
      </trkpt>
      <trkpt lat="45.52347" lon="6.7291">
        <ele>2084.8999023438</ele>
        <time>2013-03-22T13:15:36Z</time>
      </trkpt>
      <trkpt lat="45.52326" lon="6.72937">
        <ele>2078.5</ele>
        <time>2013-03-22T13:15:42Z</time>
      </trkpt>
      <trkpt lat="45.52306" lon="6.72968">
        <ele>2075.3000488281</ele>
        <time>2013-03-22T13:18:05Z</time>
      </trkpt>
      <trkpt lat="45.52317" lon="6.73004">
        <ele>2070.1000976562</ele>
        <time>2013-03-22T13:18:44Z</time>
      </trkpt>
      <trkpt lat="45.52334" lon="6.7297">
        <ele>2078.8000488281</ele>
        <time>2013-03-22T13:19:21Z</time>
      </trkpt>
      <trkpt lat="45.52348" lon="6.72934">
        <ele>2091.6999511719</ele>
        <time>2013-03-22T13:19:33Z</time>
      </trkpt>
      <trkpt lat="45.52361" lon="6.72897">
        <ele>2100.6000976562</ele>
        <time>2013-03-22T13:19:47Z</time>
      </trkpt>
      <trkpt lat="45.52375" lon="6.7286">
        <ele>2110.8999023438</ele>
        <time>2013-03-22T13:20:02Z</time>
      </trkpt>
      <trkpt lat="45.52388" lon="6.72825">
        <ele>2117.8999023438</ele>
        <time>2013-03-22T13:20:16Z</time>
      </trkpt>
      <trkpt lat="45.52402" lon="6.7279">
        <ele>2123.6000976562</ele>
        <time>2013-03-22T13:20:30Z</time>
      </trkpt>
      <trkpt lat="45.52416" lon="6.72755">
        <ele>2129.3000488281</ele>
        <time>2013-03-22T13:20:44Z</time>
      </trkpt>
      <trkpt lat="45.52431" lon="6.7272">
        <ele>2134.3999023438</ele>
        <time>2013-03-22T13:20:59Z</time>
      </trkpt>
      <trkpt lat="45.52443" lon="6.72684">
        <ele>2140.3000488281</ele>
        <time>2013-03-22T13:21:13Z</time>
      </trkpt>
      <trkpt lat="45.52456" lon="6.72647">
        <ele>2149.6000976562</ele>
        <time>2013-03-22T13:21:27Z</time>
      </trkpt>
      <trkpt lat="45.5247" lon="6.72611">
        <ele>2157.8000488281</ele>
        <time>2013-03-22T13:21:42Z</time>
      </trkpt>
      <trkpt lat="45.52483" lon="6.72576">
        <ele>2167.8000488281</ele>
        <time>2013-03-22T13:21:56Z</time>
      </trkpt>
      <trkpt lat="45.52497" lon="6.72542">
        <ele>2180.1000976562</ele>
        <time>2013-03-22T13:22:11Z</time>
      </trkpt>
      <trkpt lat="45.52509" lon="6.72506">
        <ele>2192.3000488281</ele>
        <time>2013-03-22T13:22:26Z</time>
      </trkpt>
      <trkpt lat="45.52524" lon="6.72471">
        <ele>2202.1000976562</ele>
        <time>2013-03-22T13:22:41Z</time>
      </trkpt>
      <trkpt lat="45.52536" lon="6.72434">
        <ele>2214.8999023438</ele>
        <time>2013-03-22T13:22:56Z</time>
      </trkpt>
      <trkpt lat="45.5255" lon="6.72398">
        <ele>2227.8999023438</ele>
        <time>2013-03-22T13:23:11Z</time>
      </trkpt>
      <trkpt lat="45.52563" lon="6.72362">
        <ele>2232.1999511719</ele>
        <time>2013-03-22T13:23:25Z</time>
      </trkpt>
      <trkpt lat="45.52577" lon="6.72325">
        <ele>2237.8999023438</ele>
        <time>2013-03-22T13:23:39Z</time>
      </trkpt>
      <trkpt lat="45.5259" lon="6.7229">
        <ele>2247</ele>
        <time>2013-03-22T13:23:53Z</time>
      </trkpt>
      <trkpt lat="45.52604" lon="6.72253">
        <ele>2258</ele>
        <time>2013-03-22T13:24:08Z</time>
      </trkpt>
      <trkpt lat="45.52619" lon="6.72218">
        <ele>2272.3999023438</ele>
        <time>2013-03-22T13:24:24Z</time>
      </trkpt>
      <trkpt lat="45.52633" lon="6.72182">
        <ele>2290.5</ele>
        <time>2013-03-22T13:24:40Z</time>
      </trkpt>
      <trkpt lat="45.52647" lon="6.72147">
        <ele>2305</ele>
        <time>2013-03-22T13:24:56Z</time>
      </trkpt>
      <trkpt lat="45.5266" lon="6.72111">
        <ele>2320.3000488281</ele>
        <time>2013-03-22T13:25:12Z</time>
      </trkpt>
      <trkpt lat="45.52674" lon="6.72074">
        <ele>2337</ele>
        <time>2013-03-22T13:25:28Z</time>
      </trkpt>
      <trkpt lat="45.52683" lon="6.72035">
        <ele>2334.8999023438</ele>
        <time>2013-03-22T13:25:41Z</time>
      </trkpt>
      <trkpt lat="45.52652" lon="6.72035">
        <ele>2325.6999511719</ele>
        <time>2013-03-22T13:25:59Z</time>
      </trkpt>
      <trkpt lat="45.52624" lon="6.72022">
        <ele>2317.8999023438</ele>
        <time>2013-03-22T13:26:03Z</time>
      </trkpt>
      <trkpt lat="45.52593" lon="6.72005">
        <ele>2305.8999023438</ele>
        <time>2013-03-22T13:26:07Z</time>
      </trkpt>
      <trkpt lat="45.52558" lon="6.71988">
        <ele>2297.5</ele>
        <time>2013-03-22T13:26:11Z</time>
      </trkpt>
      <trkpt lat="45.52527" lon="6.71991">
        <ele>2294.6999511719</ele>
        <time>2013-03-22T13:26:14Z</time>
      </trkpt>
      <trkpt lat="45.52497" lon="6.72004">
        <ele>2292.8999023438</ele>
        <time>2013-03-22T13:26:18Z</time>
      </trkpt>
      <trkpt lat="45.52503" lon="6.72044">
        <ele>2286.5</ele>
        <time>2013-03-22T13:26:24Z</time>
      </trkpt>
      <trkpt lat="45.52512" lon="6.72083">
        <ele>2280.1000976562</ele>
        <time>2013-03-22T13:26:29Z</time>
      </trkpt>
      <trkpt lat="45.5252" lon="6.72128">
        <ele>2272.8999023438</ele>
        <time>2013-03-22T13:26:34Z</time>
      </trkpt>
      <trkpt lat="45.5254" lon="6.72163">
        <ele>2264.1000976562</ele>
        <time>2013-03-22T13:26:38Z</time>
      </trkpt>
      <trkpt lat="45.52541" lon="6.72203">
        <ele>2255.8000488281</ele>
        <time>2013-03-22T13:26:43Z</time>
      </trkpt>
      <trkpt lat="45.52538" lon="6.72243">
        <ele>2253.1000976562</ele>
        <time>2013-03-22T13:26:47Z</time>
      </trkpt>
      <trkpt lat="45.52521" lon="6.72284">
        <ele>2247.6999511719</ele>
        <time>2013-03-22T13:26:53Z</time>
      </trkpt>
      <trkpt lat="45.52512" lon="6.72322">
        <ele>2238.5</ele>
        <time>2013-03-22T13:26:56Z</time>
      </trkpt>
      <trkpt lat="45.52481" lon="6.72334">
        <ele>2229.5</ele>
        <time>2013-03-22T13:27:00Z</time>
      </trkpt>
      <trkpt lat="45.52467" lon="6.72301">
        <ele>2211.6999511719</ele>
        <time>2013-03-22T13:27:57Z</time>
      </trkpt>
      <trkpt lat="45.52459" lon="6.72264">
        <ele>2209.6000976562</ele>
        <time>2013-03-22T13:28:13Z</time>
      </trkpt>
      <trkpt lat="45.5245" lon="6.72224">
        <ele>2214.6000976562</ele>
        <time>2013-03-22T13:28:29Z</time>
      </trkpt>
      <trkpt lat="45.52442" lon="6.72186">
        <ele>2217.8999023438</ele>
        <time>2013-03-22T13:28:45Z</time>
      </trkpt>
      <trkpt lat="45.52433" lon="6.72148">
        <ele>2226.5</ele>
        <time>2013-03-22T13:29:02Z</time>
      </trkpt>
      <trkpt lat="45.52424" lon="6.72111">
        <ele>2239.8999023438</ele>
        <time>2013-03-22T13:29:19Z</time>
      </trkpt>
      <trkpt lat="45.52415" lon="6.72073">
        <ele>2254.3000488281</ele>
        <time>2013-03-22T13:29:37Z</time>
      </trkpt>
      <trkpt lat="45.52406" lon="6.72034">
        <ele>2269.6999511719</ele>
        <time>2013-03-22T13:29:56Z</time>
      </trkpt>
      <trkpt lat="45.52397" lon="6.71996">
        <ele>2286.1000976562</ele>
        <time>2013-03-22T13:30:14Z</time>
      </trkpt>
      <trkpt lat="45.52388" lon="6.71958">
        <ele>2297</ele>
        <time>2013-03-22T13:30:31Z</time>
      </trkpt>
      <trkpt lat="45.5238" lon="6.71918">
        <ele>2307.1999511719</ele>
        <time>2013-03-22T13:30:49Z</time>
      </trkpt>
      <trkpt lat="45.52372" lon="6.71881">
        <ele>2309.5</ele>
        <time>2013-03-22T13:31:08Z</time>
      </trkpt>
      <trkpt lat="45.52365" lon="6.71842">
        <ele>2317.6000976562</ele>
        <time>2013-03-22T13:31:24Z</time>
      </trkpt>
      <trkpt lat="45.52353" lon="6.71804">
        <ele>2329.6999511719</ele>
        <time>2013-03-22T13:31:40Z</time>
      </trkpt>
      <trkpt lat="45.52345" lon="6.71766">
        <ele>2335.3999023438</ele>
        <time>2013-03-22T13:31:57Z</time>
      </trkpt>
      <trkpt lat="45.52336" lon="6.71728">
        <ele>2339.8000488281</ele>
        <time>2013-03-22T13:32:15Z</time>
      </trkpt>
      <trkpt lat="45.52327" lon="6.71691">
        <ele>2346.8999023438</ele>
        <time>2013-03-22T13:32:32Z</time>
      </trkpt>
      <trkpt lat="45.52319" lon="6.71651">
        <ele>2348.5</ele>
        <time>2013-03-22T13:34:03Z</time>
      </trkpt>
      <trkpt lat="45.523" lon="6.7162">
        <ele>2349.5</ele>
        <time>2013-03-22T13:34:15Z</time>
      </trkpt>
      <trkpt lat="45.5227" lon="6.71626">
        <ele>2346.3999023438</ele>
        <time>2013-03-22T13:34:42Z</time>
      </trkpt>
      <trkpt lat="45.52236" lon="6.71618">
        <ele>2340.1000976562</ele>
        <time>2013-03-22T13:34:47Z</time>
      </trkpt>
      <trkpt lat="45.52208" lon="6.71609">
        <ele>2338.6000976562</ele>
        <time>2013-03-22T13:34:52Z</time>
      </trkpt>
      <trkpt lat="45.52177" lon="6.71598">
        <ele>2333.3000488281</ele>
        <time>2013-03-22T13:34:57Z</time>
      </trkpt>
      <trkpt lat="45.5215" lon="6.71584">
        <ele>2325.5</ele>
        <time>2013-03-22T13:35:00Z</time>
      </trkpt>
      <trkpt lat="45.52121" lon="6.71566">
        <ele>2323.8999023438</ele>
        <time>2013-03-22T13:35:03Z</time>
      </trkpt>
      <trkpt lat="45.52095" lon="6.71547">
        <ele>2323.6000976562</ele>
        <time>2013-03-22T13:35:06Z</time>
      </trkpt>
      <trkpt lat="45.52068" lon="6.7153">
        <ele>2319.8000488281</ele>
        <time>2013-03-22T13:35:09Z</time>
      </trkpt>
      <trkpt lat="45.52037" lon="6.7152">
        <ele>2314.1999511719</ele>
        <time>2013-03-22T13:35:12Z</time>
      </trkpt>
      <trkpt lat="45.5201" lon="6.71512">
        <ele>2309.8999023438</ele>
        <time>2013-03-22T13:35:14Z</time>
      </trkpt>
      <trkpt lat="45.51981" lon="6.71504">
        <ele>2305.3000488281</ele>
        <time>2013-03-22T13:35:16Z</time>
      </trkpt>
      <trkpt lat="45.51942" lon="6.71492">
        <ele>2304.6999511719</ele>
        <time>2013-03-22T13:35:19Z</time>
      </trkpt>
      <trkpt lat="45.51915" lon="6.71482">
        <ele>2303.8999023438</ele>
        <time>2013-03-22T13:35:21Z</time>
      </trkpt>
      <trkpt lat="45.51884" lon="6.71479">
        <ele>2300.8999023438</ele>
        <time>2013-03-22T13:35:24Z</time>
      </trkpt>
      <trkpt lat="45.51855" lon="6.71483">
        <ele>2298.8000488281</ele>
        <time>2013-03-22T13:35:27Z</time>
      </trkpt>
      <trkpt lat="45.51819" lon="6.71486">
        <ele>2295.6999511719</ele>
        <time>2013-03-22T13:35:31Z</time>
      </trkpt>
      <trkpt lat="45.51796" lon="6.71509">
        <ele>2291.3000488281</ele>
        <time>2013-03-22T13:35:35Z</time>
      </trkpt>
      <trkpt lat="45.51764" lon="6.71524">
        <ele>2287.5</ele>
        <time>2013-03-22T13:35:38Z</time>
      </trkpt>
      <trkpt lat="45.51733" lon="6.71543">
        <ele>2281.3000488281</ele>
        <time>2013-03-22T13:35:41Z</time>
      </trkpt>
      <trkpt lat="45.51698" lon="6.71555">
        <ele>2277.3000488281</ele>
        <time>2013-03-22T13:35:44Z</time>
      </trkpt>
      <trkpt lat="45.51664" lon="6.7156">
        <ele>2273.1000976562</ele>
        <time>2013-03-22T13:35:47Z</time>
      </trkpt>
      <trkpt lat="45.51631" lon="6.71551">
        <ele>2268</ele>
        <time>2013-03-22T13:35:51Z</time>
      </trkpt>
      <trkpt lat="45.51605" lon="6.71537">
        <ele>2266.3999023438</ele>
        <time>2013-03-22T13:35:58Z</time>
      </trkpt>
      <trkpt lat="45.5158" lon="6.7152">
        <ele>2264.8999023438</ele>
        <time>2013-03-22T13:38:22Z</time>
      </trkpt>
      <trkpt lat="45.51554" lon="6.71504">
        <ele>2258.6999511719</ele>
        <time>2013-03-22T13:38:36Z</time>
      </trkpt>
      <trkpt lat="45.51528" lon="6.71489">
        <ele>2250.6999511719</ele>
        <time>2013-03-22T13:38:42Z</time>
      </trkpt>
      <trkpt lat="45.51499" lon="6.71465">
        <ele>2242.1999511719</ele>
        <time>2013-03-22T13:38:45Z</time>
      </trkpt>
      <trkpt lat="45.51474" lon="6.71431">
        <ele>2237.1999511719</ele>
        <time>2013-03-22T13:38:48Z</time>
      </trkpt>
      <trkpt lat="45.51443" lon="6.7141">
        <ele>2232.5</ele>
        <time>2013-03-22T13:38:51Z</time>
      </trkpt>
      <trkpt lat="45.51411" lon="6.71398">
        <ele>2228</ele>
        <time>2013-03-22T13:38:54Z</time>
      </trkpt>
      <trkpt lat="45.51379" lon="6.71382">
        <ele>2222.1999511719</ele>
        <time>2013-03-22T13:38:57Z</time>
      </trkpt>
      <trkpt lat="45.51353" lon="6.71357">
        <ele>2219.6999511719</ele>
        <time>2013-03-22T13:39:00Z</time>
      </trkpt>
      <trkpt lat="45.51337" lon="6.71321">
        <ele>2216.6000976562</ele>
        <time>2013-03-22T13:39:03Z</time>
      </trkpt>
      <trkpt lat="45.51324" lon="6.71281">
        <ele>2213.6000976562</ele>
        <time>2013-03-22T13:39:06Z</time>
      </trkpt>
      <trkpt lat="45.51314" lon="6.71238">
        <ele>2210.3999023438</ele>
        <time>2013-03-22T13:39:09Z</time>
      </trkpt>
      <trkpt lat="45.51309" lon="6.71193">
        <ele>2208.6000976562</ele>
        <time>2013-03-22T13:39:12Z</time>
      </trkpt>
      <trkpt lat="45.51308" lon="6.71151">
        <ele>2205.1000976562</ele>
        <time>2013-03-22T13:39:15Z</time>
      </trkpt>
      <trkpt lat="45.51301" lon="6.71113">
        <ele>2202.6999511719</ele>
        <time>2013-03-22T13:39:18Z</time>
      </trkpt>
      <trkpt lat="45.51281" lon="6.71072">
        <ele>2200.1000976562</ele>
        <time>2013-03-22T13:39:22Z</time>
      </trkpt>
      <trkpt lat="45.51257" lon="6.71041">
        <ele>2196.6999511719</ele>
        <time>2013-03-22T13:39:26Z</time>
      </trkpt>
      <trkpt lat="45.51241" lon="6.71006">
        <ele>2186.6999511719</ele>
        <time>2013-03-22T13:40:22Z</time>
      </trkpt>
      <trkpt lat="45.5121" lon="6.70967">
        <ele>2177.1999511719</ele>
        <time>2013-03-22T13:40:28Z</time>
      </trkpt>
      <trkpt lat="45.51191" lon="6.7093">
        <ele>2171</ele>
        <time>2013-03-22T13:40:32Z</time>
      </trkpt>
      <trkpt lat="45.51192" lon="6.7088">
        <ele>2160.6000976562</ele>
        <time>2013-03-22T13:40:36Z</time>
      </trkpt>
      <trkpt lat="45.51173" lon="6.70849">
        <ele>2151.8000488281</ele>
        <time>2013-03-22T13:40:40Z</time>
      </trkpt>
      <trkpt lat="45.51147" lon="6.7082">
        <ele>2144.1000976562</ele>
        <time>2013-03-22T13:40:44Z</time>
      </trkpt>
      <trkpt lat="45.51118" lon="6.70788">
        <ele>2128.3999023438</ele>
        <time>2013-03-22T13:40:48Z</time>
      </trkpt>
      <trkpt lat="45.51085" lon="6.70795">
        <ele>2122.8000488281</ele>
        <time>2013-03-22T13:40:51Z</time>
      </trkpt>
      <trkpt lat="45.51056" lon="6.70816">
        <ele>2122.1000976562</ele>
        <time>2013-03-22T13:40:54Z</time>
      </trkpt>
      <trkpt lat="45.51028" lon="6.70822">
        <ele>2120.6000976562</ele>
        <time>2013-03-22T13:40:57Z</time>
      </trkpt>
      <trkpt lat="45.50993" lon="6.70816">
        <ele>2115.8999023438</ele>
        <time>2013-03-22T13:41:01Z</time>
      </trkpt>
      <trkpt lat="45.5096" lon="6.70814">
        <ele>2112.1999511719</ele>
        <time>2013-03-22T13:41:05Z</time>
      </trkpt>
      <trkpt lat="45.50932" lon="6.70813">
        <ele>2110.3000488281</ele>
        <time>2013-03-22T13:41:11Z</time>
      </trkpt>
      <trkpt lat="45.50904" lon="6.70823">
        <ele>2112.5</ele>
        <time>2013-03-22T13:41:44Z</time>
      </trkpt>
      <trkpt lat="45.50877" lon="6.70838">
        <ele>2109.3999023438</ele>
        <time>2013-03-22T13:41:53Z</time>
      </trkpt>
      <trkpt lat="45.5085" lon="6.70849">
        <ele>2104.8999023438</ele>
        <time>2013-03-22T13:42:00Z</time>
      </trkpt>
      <trkpt lat="45.5082" lon="6.70858">
        <ele>2105.3000488281</ele>
        <time>2013-03-22T13:42:07Z</time>
      </trkpt>
      <trkpt lat="45.50789" lon="6.70861">
        <ele>2104</ele>
        <time>2013-03-22T13:42:14Z</time>
      </trkpt>
      <trkpt lat="45.50757" lon="6.70869">
        <ele>2100.3000488281</ele>
        <time>2013-03-22T13:42:55Z</time>
      </trkpt>
      <trkpt lat="45.50724" lon="6.70878">
        <ele>2096.8999023438</ele>
        <time>2013-03-22T13:43:00Z</time>
      </trkpt>
      <trkpt lat="45.50696" lon="6.70881">
        <ele>2091.8999023438</ele>
        <time>2013-03-22T13:43:04Z</time>
      </trkpt>
      <trkpt lat="45.50664" lon="6.70873">
        <ele>2086.8000488281</ele>
        <time>2013-03-22T13:43:08Z</time>
      </trkpt>
      <trkpt lat="45.5064" lon="6.70846">
        <ele>2085.3999023438</ele>
        <time>2013-03-22T13:43:12Z</time>
      </trkpt>
      <trkpt lat="45.50624" lon="6.70811">
        <ele>2083.1000976562</ele>
        <time>2013-03-22T13:43:16Z</time>
      </trkpt>
      <trkpt lat="45.50608" lon="6.70765">
        <ele>2075.8000488281</ele>
        <time>2013-03-22T13:43:21Z</time>
      </trkpt>
      <trkpt lat="45.50597" lon="6.70724">
        <ele>2072.3999023438</ele>
        <time>2013-03-22T13:43:25Z</time>
      </trkpt>
      <trkpt lat="45.50593" lon="6.7068">
        <ele>2069.3000488281</ele>
        <time>2013-03-22T13:43:31Z</time>
      </trkpt>
      <trkpt lat="45.50605" lon="6.70635">
        <ele>2061.8999023438</ele>
        <time>2013-03-22T13:43:36Z</time>
      </trkpt>
      <trkpt lat="45.50621" lon="6.70598">
        <ele>2058.6999511719</ele>
        <time>2013-03-22T13:43:40Z</time>
      </trkpt>
      <trkpt lat="45.50639" lon="6.70566">
        <ele>2056.8999023438</ele>
        <time>2013-03-22T13:43:44Z</time>
      </trkpt>
      <trkpt lat="45.50666" lon="6.7054">
        <ele>2051.1999511719</ele>
        <time>2013-03-22T13:43:48Z</time>
      </trkpt>
      <trkpt lat="45.50688" lon="6.70514">
        <ele>2048</ele>
        <time>2013-03-22T13:43:53Z</time>
      </trkpt>
      <trkpt lat="45.50715" lon="6.70502">
        <ele>2040.8000488281</ele>
        <time>2013-03-22T13:45:15Z</time>
      </trkpt>
      <trkpt lat="45.50744" lon="6.70494">
        <ele>2034.3000488281</ele>
        <time>2013-03-22T13:45:21Z</time>
      </trkpt>
      <trkpt lat="45.50773" lon="6.70487">
        <ele>2025.6999511719</ele>
        <time>2013-03-22T13:45:25Z</time>
      </trkpt>
      <trkpt lat="45.50799" lon="6.70472">
        <ele>2021.3000488281</ele>
        <time>2013-03-22T13:45:29Z</time>
      </trkpt>
      <trkpt lat="45.50821" lon="6.70446">
        <ele>2013.8000488281</ele>
        <time>2013-03-22T13:45:33Z</time>
      </trkpt>
      <trkpt lat="45.50845" lon="6.70411">
        <ele>2003.3999023438</ele>
        <time>2013-03-22T13:45:37Z</time>
      </trkpt>
      <trkpt lat="45.50874" lon="6.70385">
        <ele>1994.5</ele>
        <time>2013-03-22T13:45:40Z</time>
      </trkpt>
      <trkpt lat="45.50904" lon="6.70352">
        <ele>1985</ele>
        <time>2013-03-22T13:45:43Z</time>
      </trkpt>
      <trkpt lat="45.50932" lon="6.70311">
        <ele>1979.8000488281</ele>
        <time>2013-03-22T13:45:46Z</time>
      </trkpt>
      <trkpt lat="45.50959" lon="6.70273">
        <ele>1976.8000488281</ele>
        <time>2013-03-22T13:45:49Z</time>
      </trkpt>
      <trkpt lat="45.50982" lon="6.7024">
        <ele>1973.4000244141</ele>
        <time>2013-03-22T13:45:52Z</time>
      </trkpt>
      <trkpt lat="45.51004" lon="6.70209">
        <ele>1970.3000488281</ele>
        <time>2013-03-22T13:45:55Z</time>
      </trkpt>
      <trkpt lat="45.5103" lon="6.70174">
        <ele>1967</ele>
        <time>2013-03-22T13:45:59Z</time>
      </trkpt>
      <trkpt lat="45.51057" lon="6.70143">
        <ele>1964</ele>
        <time>2013-03-22T13:46:03Z</time>
      </trkpt>
      <trkpt lat="45.51082" lon="6.70108">
        <ele>1961.0999755859</ele>
        <time>2013-03-22T13:46:07Z</time>
      </trkpt>
      <trkpt lat="45.51105" lon="6.7007">
        <ele>1959.1999511719</ele>
        <time>2013-03-22T13:46:11Z</time>
      </trkpt>
      <trkpt lat="45.51122" lon="6.70028">
        <ele>1955.5999755859</ele>
        <time>2013-03-22T13:46:15Z</time>
      </trkpt>
      <trkpt lat="45.5114" lon="6.69991">
        <ele>1953.9000244141</ele>
        <time>2013-03-22T13:46:19Z</time>
      </trkpt>
      <trkpt lat="45.51159" lon="6.69956">
        <ele>1948.5</ele>
        <time>2013-03-22T13:46:24Z</time>
      </trkpt>
      <trkpt lat="45.5118" lon="6.69925">
        <ele>1944.9000244141</ele>
        <time>2013-03-22T13:46:31Z</time>
      </trkpt>
      <trkpt lat="45.51201" lon="6.6989">
        <ele>1940.9000244141</ele>
        <time>2013-03-22T13:47:11Z</time>
      </trkpt>
      <trkpt lat="45.51209" lon="6.6985">
        <ele>1938.4000244141</ele>
        <time>2013-03-22T13:47:17Z</time>
      </trkpt>
      <trkpt lat="45.51197" lon="6.69815">
        <ele>1936.9000244141</ele>
        <time>2013-03-22T13:51:17Z</time>
      </trkpt>
      <trkpt lat="45.51173" lon="6.69794">
        <ele>1934.4000244141</ele>
        <time>2013-03-22T13:53:08Z</time>
      </trkpt>
      <trkpt lat="45.51143" lon="6.69782">
        <ele>1939</ele>
        <time>2013-03-22T13:53:15Z</time>
      </trkpt>
      <trkpt lat="45.51113" lon="6.69771">
        <ele>1950.6999511719</ele>
        <time>2013-03-22T13:53:24Z</time>
      </trkpt>
      <trkpt lat="45.51086" lon="6.69762">
        <ele>1960.3000488281</ele>
        <time>2013-03-22T13:53:31Z</time>
      </trkpt>
      <trkpt lat="45.51059" lon="6.69754">
        <ele>1974.5</ele>
        <time>2013-03-22T13:53:38Z</time>
      </trkpt>
      <trkpt lat="45.5103" lon="6.69743">
        <ele>1990.9000244141</ele>
        <time>2013-03-22T13:53:47Z</time>
      </trkpt>
      <trkpt lat="45.51003" lon="6.69734">
        <ele>2000.3999023438</ele>
        <time>2013-03-22T13:53:55Z</time>
      </trkpt>
      <trkpt lat="45.50974" lon="6.69725">
        <ele>2011.8000488281</ele>
        <time>2013-03-22T13:54:03Z</time>
      </trkpt>
      <trkpt lat="45.50945" lon="6.69718">
        <ele>2028.3999023438</ele>
        <time>2013-03-22T13:54:11Z</time>
      </trkpt>
      <trkpt lat="45.50917" lon="6.69709">
        <ele>2043.6999511719</ele>
        <time>2013-03-22T13:54:24Z</time>
      </trkpt>
      <trkpt lat="45.50887" lon="6.697">
        <ele>2060.8999023438</ele>
        <time>2013-03-22T13:54:38Z</time>
      </trkpt>
      <trkpt lat="45.50859" lon="6.69692">
        <ele>2078.1999511719</ele>
        <time>2013-03-22T13:54:46Z</time>
      </trkpt>
      <trkpt lat="45.50832" lon="6.69684">
        <ele>2092</ele>
        <time>2013-03-22T13:54:54Z</time>
      </trkpt>
      <trkpt lat="45.50802" lon="6.69674">
        <ele>2100.8000488281</ele>
        <time>2013-03-22T13:55:03Z</time>
      </trkpt>
      <trkpt lat="45.50771" lon="6.69665">
        <ele>2106.3999023438</ele>
        <time>2013-03-22T13:55:11Z</time>
      </trkpt>
      <trkpt lat="45.50744" lon="6.69658">
        <ele>2110.8000488281</ele>
        <time>2013-03-22T13:55:18Z</time>
      </trkpt>
      <trkpt lat="45.50717" lon="6.6965">
        <ele>2114.3000488281</ele>
        <time>2013-03-22T13:55:25Z</time>
      </trkpt>
      <trkpt lat="45.50687" lon="6.69641">
        <ele>2118.3000488281</ele>
        <time>2013-03-22T13:55:33Z</time>
      </trkpt>
      <trkpt lat="45.50658" lon="6.69631">
        <ele>2123.5</ele>
        <time>2013-03-22T13:55:41Z</time>
      </trkpt>
      <trkpt lat="45.50628" lon="6.69622">
        <ele>2127.3000488281</ele>
        <time>2013-03-22T13:55:49Z</time>
      </trkpt>
      <trkpt lat="45.50598" lon="6.69614">
        <ele>2127.8999023438</ele>
        <time>2013-03-22T13:55:57Z</time>
      </trkpt>
      <trkpt lat="45.50569" lon="6.69605">
        <ele>2129.1999511719</ele>
        <time>2013-03-22T13:56:05Z</time>
      </trkpt>
      <trkpt lat="45.50539" lon="6.69595">
        <ele>2132.8000488281</ele>
        <time>2013-03-22T13:56:13Z</time>
      </trkpt>
      <trkpt lat="45.5051" lon="6.69586">
        <ele>2133.6000976562</ele>
        <time>2013-03-22T13:56:21Z</time>
      </trkpt>
      <trkpt lat="45.5048" lon="6.69577">
        <ele>2134.8000488281</ele>
        <time>2013-03-22T13:56:29Z</time>
      </trkpt>
      <trkpt lat="45.50449" lon="6.69569">
        <ele>2137.8000488281</ele>
        <time>2013-03-22T13:56:37Z</time>
      </trkpt>
      <trkpt lat="45.50419" lon="6.69559">
        <ele>2142.1000976562</ele>
        <time>2013-03-22T13:56:45Z</time>
      </trkpt>
      <trkpt lat="45.5039" lon="6.69551">
        <ele>2146.1999511719</ele>
        <time>2013-03-22T13:56:53Z</time>
      </trkpt>
      <trkpt lat="45.50359" lon="6.69543">
        <ele>2150</ele>
        <time>2013-03-22T13:57:01Z</time>
      </trkpt>
      <trkpt lat="45.5033" lon="6.69535">
        <ele>2151.3000488281</ele>
        <time>2013-03-22T13:57:09Z</time>
      </trkpt>
      <trkpt lat="45.50303" lon="6.69525">
        <ele>2149.5</ele>
        <time>2013-03-22T13:57:17Z</time>
      </trkpt>
      <trkpt lat="45.50273" lon="6.69512">
        <ele>2152.3000488281</ele>
        <time>2013-03-22T13:57:25Z</time>
      </trkpt>
      <trkpt lat="45.50244" lon="6.69504">
        <ele>2153.8000488281</ele>
        <time>2013-03-22T13:57:33Z</time>
      </trkpt>
      <trkpt lat="45.50217" lon="6.69496">
        <ele>2156.1999511719</ele>
        <time>2013-03-22T13:57:41Z</time>
      </trkpt>
      <trkpt lat="45.50186" lon="6.69487">
        <ele>2164.5</ele>
        <time>2013-03-22T13:57:49Z</time>
      </trkpt>
      <trkpt lat="45.50158" lon="6.69479">
        <ele>2173.8999023438</ele>
        <time>2013-03-22T13:57:57Z</time>
      </trkpt>
      <trkpt lat="45.50129" lon="6.6947">
        <ele>2184.8000488281</ele>
        <time>2013-03-22T13:58:05Z</time>
      </trkpt>
      <trkpt lat="45.501" lon="6.6946">
        <ele>2192.3000488281</ele>
        <time>2013-03-22T13:58:13Z</time>
      </trkpt>
      <trkpt lat="45.5007" lon="6.69452">
        <ele>2198.3999023438</ele>
        <time>2013-03-22T13:58:21Z</time>
      </trkpt>
      <trkpt lat="45.50042" lon="6.69444">
        <ele>2207.8000488281</ele>
        <time>2013-03-22T13:58:29Z</time>
      </trkpt>
      <trkpt lat="45.50012" lon="6.69435">
        <ele>2211.6999511719</ele>
        <time>2013-03-22T13:58:37Z</time>
      </trkpt>
      <trkpt lat="45.49983" lon="6.69427">
        <ele>2218.3000488281</ele>
        <time>2013-03-22T13:58:45Z</time>
      </trkpt>
      <trkpt lat="45.49954" lon="6.69418">
        <ele>2223.8999023438</ele>
        <time>2013-03-22T13:58:53Z</time>
      </trkpt>
      <trkpt lat="45.49925" lon="6.69409">
        <ele>2232.6999511719</ele>
        <time>2013-03-22T13:59:01Z</time>
      </trkpt>
      <trkpt lat="45.49898" lon="6.694">
        <ele>2237.8999023438</ele>
        <time>2013-03-22T13:59:09Z</time>
      </trkpt>
      <trkpt lat="45.49869" lon="6.69391">
        <ele>2243.8999023438</ele>
        <time>2013-03-22T13:59:17Z</time>
      </trkpt>
      <trkpt lat="45.49839" lon="6.69382">
        <ele>2250.1000976562</ele>
        <time>2013-03-22T13:59:25Z</time>
      </trkpt>
      <trkpt lat="45.4981" lon="6.69373">
        <ele>2253.3999023438</ele>
        <time>2013-03-22T13:59:33Z</time>
      </trkpt>
      <trkpt lat="45.49784" lon="6.69358">
        <ele>2253.6999511719</ele>
        <time>2013-03-22T13:59:42Z</time>
      </trkpt>
      <trkpt lat="45.49762" lon="6.6933">
        <ele>2251.6999511719</ele>
        <time>2013-03-22T13:59:58Z</time>
      </trkpt>
      <trkpt lat="45.49751" lon="6.69287">
        <ele>2244.6000976562</ele>
        <time>2013-03-22T14:00:02Z</time>
      </trkpt>
      <trkpt lat="45.49761" lon="6.69239">
        <ele>2243.1999511719</ele>
        <time>2013-03-22T14:00:06Z</time>
      </trkpt>
      <trkpt lat="45.49782" lon="6.69211">
        <ele>2242.1999511719</ele>
        <time>2013-03-22T14:00:10Z</time>
      </trkpt>
      <trkpt lat="45.49806" lon="6.69183">
        <ele>2239.5</ele>
        <time>2013-03-22T14:00:15Z</time>
      </trkpt>
      <trkpt lat="45.49834" lon="6.69158">
        <ele>2236.5</ele>
        <time>2013-03-22T14:00:20Z</time>
      </trkpt>
      <trkpt lat="45.49859" lon="6.69139">
        <ele>2234.6000976562</ele>
        <time>2013-03-22T14:00:24Z</time>
      </trkpt>
      <trkpt lat="45.49888" lon="6.69118">
        <ele>2232.6999511719</ele>
        <time>2013-03-22T14:00:29Z</time>
      </trkpt>
      <trkpt lat="45.49913" lon="6.69096">
        <ele>2228</ele>
        <time>2013-03-22T14:00:33Z</time>
      </trkpt>
      <trkpt lat="45.49943" lon="6.69079">
        <ele>2223</ele>
        <time>2013-03-22T14:00:37Z</time>
      </trkpt>
      <trkpt lat="45.49977" lon="6.69074">
        <ele>2219.3000488281</ele>
        <time>2013-03-22T14:00:41Z</time>
      </trkpt>
      <trkpt lat="45.50006" lon="6.69058">
        <ele>2213.6000976562</ele>
        <time>2013-03-22T14:00:46Z</time>
      </trkpt>
      <trkpt lat="45.50042" lon="6.69043">
        <ele>2200.1000976562</ele>
        <time>2013-03-22T14:00:50Z</time>
      </trkpt>
      <trkpt lat="45.50074" lon="6.69023">
        <ele>2193</ele>
        <time>2013-03-22T14:00:53Z</time>
      </trkpt>
      <trkpt lat="45.50104" lon="6.69008">
        <ele>2185.1000976562</ele>
        <time>2013-03-22T14:00:56Z</time>
      </trkpt>
      <trkpt lat="45.50127" lon="6.6898">
        <ele>2185</ele>
        <time>2013-03-22T14:01:00Z</time>
      </trkpt>
      <trkpt lat="45.50153" lon="6.68966">
        <ele>2176.3000488281</ele>
        <time>2013-03-22T14:01:05Z</time>
      </trkpt>
      <trkpt lat="45.50169" lon="6.6893">
        <ele>2172.8999023438</ele>
        <time>2013-03-22T14:01:09Z</time>
      </trkpt>
      <trkpt lat="45.5019" lon="6.68897">
        <ele>2165.8000488281</ele>
        <time>2013-03-22T14:01:17Z</time>
      </trkpt>
      <trkpt lat="45.50206" lon="6.6886">
        <ele>2160.5</ele>
        <time>2013-03-22T14:01:22Z</time>
      </trkpt>
      <trkpt lat="45.50226" lon="6.68824">
        <ele>2155.5</ele>
        <time>2013-03-22T14:01:37Z</time>
      </trkpt>
      <trkpt lat="45.5024" lon="6.68789">
        <ele>2153.6000976562</ele>
        <time>2013-03-22T14:01:42Z</time>
      </trkpt>
      <trkpt lat="45.50253" lon="6.68754">
        <ele>2150.6000976562</ele>
        <time>2013-03-22T14:01:47Z</time>
      </trkpt>
      <trkpt lat="45.5028" lon="6.6872">
        <ele>2139.5</ele>
        <time>2013-03-22T14:01:51Z</time>
      </trkpt>
      <trkpt lat="45.50308" lon="6.68679">
        <ele>2131.6999511719</ele>
        <time>2013-03-22T14:01:54Z</time>
      </trkpt>
      <trkpt lat="45.50333" lon="6.68638">
        <ele>2130</ele>
        <time>2013-03-22T14:01:57Z</time>
      </trkpt>
      <trkpt lat="45.50354" lon="6.68599">
        <ele>2130.3000488281</ele>
        <time>2013-03-22T14:02:01Z</time>
      </trkpt>
      <trkpt lat="45.50369" lon="6.68562">
        <ele>2127.6999511719</ele>
        <time>2013-03-22T14:02:05Z</time>
      </trkpt>
      <trkpt lat="45.50386" lon="6.68514">
        <ele>2120</ele>
        <time>2013-03-22T14:02:09Z</time>
      </trkpt>
      <trkpt lat="45.50398" lon="6.68477">
        <ele>2118.1999511719</ele>
        <time>2013-03-22T14:02:12Z</time>
      </trkpt>
      <trkpt lat="45.50408" lon="6.68439">
        <ele>2116.5</ele>
        <time>2013-03-22T14:02:16Z</time>
      </trkpt>
      <trkpt lat="45.50407" lon="6.68397">
        <ele>2113.5</ele>
        <time>2013-03-22T14:02:21Z</time>
      </trkpt>
      <trkpt lat="45.50388" lon="6.68361">
        <ele>2107.1999511719</ele>
        <time>2013-03-22T14:02:56Z</time>
      </trkpt>
      <trkpt lat="45.50372" lon="6.68327">
        <ele>2101.5</ele>
        <time>2013-03-22T14:03:00Z</time>
      </trkpt>
      <trkpt lat="45.50351" lon="6.68298">
        <ele>2097.8999023438</ele>
        <time>2013-03-22T14:03:04Z</time>
      </trkpt>
      <trkpt lat="45.50341" lon="6.68251">
        <ele>2088.6999511719</ele>
        <time>2013-03-22T14:03:08Z</time>
      </trkpt>
      <trkpt lat="45.50328" lon="6.68211">
        <ele>2083.3000488281</ele>
        <time>2013-03-22T14:03:11Z</time>
      </trkpt>
      <trkpt lat="45.50317" lon="6.68172">
        <ele>2080.8999023438</ele>
        <time>2013-03-22T14:03:14Z</time>
      </trkpt>
      <trkpt lat="45.50315" lon="6.68124">
        <ele>2076.1999511719</ele>
        <time>2013-03-22T14:03:18Z</time>
      </trkpt>
      <trkpt lat="45.50322" lon="6.68084">
        <ele>2068.8000488281</ele>
        <time>2013-03-22T14:03:21Z</time>
      </trkpt>
      <trkpt lat="45.50332" lon="6.68036">
        <ele>2064.1000976562</ele>
        <time>2013-03-22T14:03:25Z</time>
      </trkpt>
      <trkpt lat="45.5035" lon="6.68002">
        <ele>2055.8000488281</ele>
        <time>2013-03-22T14:03:29Z</time>
      </trkpt>
      <trkpt lat="45.50368" lon="6.6796">
        <ele>2043.3999023438</ele>
        <time>2013-03-22T14:03:33Z</time>
      </trkpt>
      <trkpt lat="45.50368" lon="6.67916">
        <ele>2033.8000488281</ele>
        <time>2013-03-22T14:03:36Z</time>
      </trkpt>
      <trkpt lat="45.50374" lon="6.67862">
        <ele>2026.6000976562</ele>
        <time>2013-03-22T14:03:39Z</time>
      </trkpt>
      <trkpt lat="45.50384" lon="6.67809">
        <ele>2021.3999023438</ele>
        <time>2013-03-22T14:03:42Z</time>
      </trkpt>
      <trkpt lat="45.50395" lon="6.67764">
        <ele>2019.8999023438</ele>
        <time>2013-03-22T14:03:45Z</time>
      </trkpt>
      <trkpt lat="45.50407" lon="6.67721">
        <ele>2020.1000976562</ele>
        <time>2013-03-22T14:03:49Z</time>
      </trkpt>
      <trkpt lat="45.50421" lon="6.67681">
        <ele>2017.1000976562</ele>
        <time>2013-03-22T14:03:54Z</time>
      </trkpt>
      <trkpt lat="45.50434" lon="6.67639">
        <ele>2005.8000488281</ele>
        <time>2013-03-22T14:03:59Z</time>
      </trkpt>
      <trkpt lat="45.50446" lon="6.67594">
        <ele>2002.3000488281</ele>
        <time>2013-03-22T14:04:03Z</time>
      </trkpt>
      <trkpt lat="45.50456" lon="6.67555">
        <ele>2000</ele>
        <time>2013-03-22T14:04:07Z</time>
      </trkpt>
      <trkpt lat="45.50462" lon="6.67513">
        <ele>2000.8000488281</ele>
        <time>2013-03-22T14:04:13Z</time>
      </trkpt>
      <trkpt lat="45.50465" lon="6.67474">
        <ele>1997</ele>
        <time>2013-03-22T14:05:59Z</time>
      </trkpt>
      <trkpt lat="45.50454" lon="6.67437">
        <ele>1991.9000244141</ele>
        <time>2013-03-22T14:07:46Z</time>
      </trkpt>
      <trkpt lat="45.50447" lon="6.67398">
        <ele>1991.3000488281</ele>
        <time>2013-03-22T14:07:57Z</time>
      </trkpt>
      <trkpt lat="45.50438" lon="6.6736">
        <ele>2000.8000488281</ele>
        <time>2013-03-22T14:08:03Z</time>
      </trkpt>
      <trkpt lat="45.50428" lon="6.67321">
        <ele>2006.1999511719</ele>
        <time>2013-03-22T14:08:09Z</time>
      </trkpt>
      <trkpt lat="45.50418" lon="6.67281">
        <ele>2011.3999023438</ele>
        <time>2013-03-22T14:08:15Z</time>
      </trkpt>
      <trkpt lat="45.5041" lon="6.67241">
        <ele>2020.1000976562</ele>
        <time>2013-03-22T14:08:21Z</time>
      </trkpt>
      <trkpt lat="45.50401" lon="6.67204">
        <ele>2029.1999511719</ele>
        <time>2013-03-22T14:08:27Z</time>
      </trkpt>
      <trkpt lat="45.50394" lon="6.67165">
        <ele>2044.1000976562</ele>
        <time>2013-03-22T14:08:33Z</time>
      </trkpt>
      <trkpt lat="45.50385" lon="6.67122">
        <ele>2062.8000488281</ele>
        <time>2013-03-22T14:08:40Z</time>
      </trkpt>
      <trkpt lat="45.50376" lon="6.67081">
        <ele>2079.8999023438</ele>
        <time>2013-03-22T14:08:47Z</time>
      </trkpt>
      <trkpt lat="45.50368" lon="6.67042">
        <ele>2088.1999511719</ele>
        <time>2013-03-22T14:08:53Z</time>
      </trkpt>
      <trkpt lat="45.5036" lon="6.67004">
        <ele>2099</ele>
        <time>2013-03-22T14:08:59Z</time>
      </trkpt>
      <trkpt lat="45.50353" lon="6.66965">
        <ele>2109</ele>
        <time>2013-03-22T14:09:05Z</time>
      </trkpt>
      <trkpt lat="45.50343" lon="6.66923">
        <ele>2122.3999023438</ele>
        <time>2013-03-22T14:09:12Z</time>
      </trkpt>
      <trkpt lat="45.50336" lon="6.66885">
        <ele>2134.5</ele>
        <time>2013-03-22T14:09:18Z</time>
      </trkpt>
      <trkpt lat="45.50328" lon="6.66845">
        <ele>2143.3999023438</ele>
        <time>2013-03-22T14:09:24Z</time>
      </trkpt>
      <trkpt lat="45.50319" lon="6.66807">
        <ele>2150.6999511719</ele>
        <time>2013-03-22T14:09:30Z</time>
      </trkpt>
      <trkpt lat="45.50311" lon="6.66769">
        <ele>2161.3000488281</ele>
        <time>2013-03-22T14:09:36Z</time>
      </trkpt>
      <trkpt lat="45.50301" lon="6.66725">
        <ele>2173.1999511719</ele>
        <time>2013-03-22T14:09:43Z</time>
      </trkpt>
      <trkpt lat="45.50292" lon="6.66686">
        <ele>2179.5</ele>
        <time>2013-03-22T14:09:49Z</time>
      </trkpt>
      <trkpt lat="45.50283" lon="6.66647">
        <ele>2186.6000976562</ele>
        <time>2013-03-22T14:09:55Z</time>
      </trkpt>
      <trkpt lat="45.50275" lon="6.66608">
        <ele>2197.1000976562</ele>
        <time>2013-03-22T14:10:01Z</time>
      </trkpt>
      <trkpt lat="45.50267" lon="6.66569">
        <ele>2206.1000976562</ele>
        <time>2013-03-22T14:10:07Z</time>
      </trkpt>
      <trkpt lat="45.5026" lon="6.66529">
        <ele>2217.8000488281</ele>
        <time>2013-03-22T14:10:13Z</time>
      </trkpt>
      <trkpt lat="45.50252" lon="6.6649">
        <ele>2229.6000976562</ele>
        <time>2013-03-22T14:10:19Z</time>
      </trkpt>
      <trkpt lat="45.50244" lon="6.66452">
        <ele>2241.6000976562</ele>
        <time>2013-03-22T14:10:25Z</time>
      </trkpt>
      <trkpt lat="45.50234" lon="6.66409">
        <ele>2256.3000488281</ele>
        <time>2013-03-22T14:10:32Z</time>
      </trkpt>
      <trkpt lat="45.50225" lon="6.66366">
        <ele>2272.3999023438</ele>
        <time>2013-03-22T14:10:39Z</time>
      </trkpt>
      <trkpt lat="45.50215" lon="6.66324">
        <ele>2287.3000488281</ele>
        <time>2013-03-22T14:10:46Z</time>
      </trkpt>
      <trkpt lat="45.50207" lon="6.66286">
        <ele>2299.1000976562</ele>
        <time>2013-03-22T14:10:52Z</time>
      </trkpt>
      <trkpt lat="45.50198" lon="6.66245">
        <ele>2314.1999511719</ele>
        <time>2013-03-22T14:10:59Z</time>
      </trkpt>
      <trkpt lat="45.50189" lon="6.66205">
        <ele>2333.8999023438</ele>
        <time>2013-03-22T14:11:06Z</time>
      </trkpt>
      <trkpt lat="45.50182" lon="6.66163">
        <ele>2337.5</ele>
        <time>2013-03-22T14:11:13Z</time>
      </trkpt>
      <trkpt lat="45.50184" lon="6.66122">
        <ele>2345.5</ele>
        <time>2013-03-22T14:11:52Z</time>
      </trkpt>
      <trkpt lat="45.50214" lon="6.66125">
        <ele>2340.8000488281</ele>
        <time>2013-03-22T14:12:41Z</time>
      </trkpt>
      <trkpt lat="45.50242" lon="6.66136">
        <ele>2337.8999023438</ele>
        <time>2013-03-22T14:12:47Z</time>
      </trkpt>
      <trkpt lat="45.50273" lon="6.66143">
        <ele>2333.8000488281</ele>
        <time>2013-03-22T14:12:53Z</time>
      </trkpt>
      <trkpt lat="45.50297" lon="6.66173">
        <ele>2324.8999023438</ele>
        <time>2013-03-22T14:13:01Z</time>
      </trkpt>
      <trkpt lat="45.50302" lon="6.66212">
        <ele>2307</ele>
        <time>2013-03-22T14:13:06Z</time>
      </trkpt>
      <trkpt lat="45.5031" lon="6.66261">
        <ele>2294</ele>
        <time>2013-03-22T14:13:10Z</time>
      </trkpt>
      <trkpt lat="45.50317" lon="6.66309">
        <ele>2284</ele>
        <time>2013-03-22T14:13:14Z</time>
      </trkpt>
      <trkpt lat="45.50309" lon="6.66347">
        <ele>2276.1000976562</ele>
        <time>2013-03-22T14:13:18Z</time>
      </trkpt>
      <trkpt lat="45.50303" lon="6.66392">
        <ele>2251.6000976562</ele>
        <time>2013-03-22T14:14:18Z</time>
      </trkpt>
      <trkpt lat="45.50311" lon="6.66436">
        <ele>2234</ele>
        <time>2013-03-22T14:14:22Z</time>
      </trkpt>
      <trkpt lat="45.50311" lon="6.66484">
        <ele>2223.6000976562</ele>
        <time>2013-03-22T14:14:26Z</time>
      </trkpt>
      <trkpt lat="45.50318" lon="6.66532">
        <ele>2214.5</ele>
        <time>2013-03-22T14:14:30Z</time>
      </trkpt>
      <trkpt lat="45.50328" lon="6.66569">
        <ele>2211.1000976562</ele>
        <time>2013-03-22T14:14:33Z</time>
      </trkpt>
      <trkpt lat="45.50345" lon="6.66607">
        <ele>2201.6999511719</ele>
        <time>2013-03-22T14:14:36Z</time>
      </trkpt>
      <trkpt lat="45.50373" lon="6.66636">
        <ele>2196.1999511719</ele>
        <time>2013-03-22T14:14:39Z</time>
      </trkpt>
      <trkpt lat="45.50383" lon="6.66674">
        <ele>2184.1999511719</ele>
        <time>2013-03-22T14:14:43Z</time>
      </trkpt>
      <trkpt lat="45.50397" lon="6.66712">
        <ele>2180.1000976562</ele>
        <time>2013-03-22T14:14:47Z</time>
      </trkpt>
      <trkpt lat="45.50406" lon="6.66754">
        <ele>2168.8000488281</ele>
        <time>2013-03-22T14:14:51Z</time>
      </trkpt>
      <trkpt lat="45.50428" lon="6.66792">
        <ele>2149.8000488281</ele>
        <time>2013-03-22T14:14:56Z</time>
      </trkpt>
      <trkpt lat="45.5043" lon="6.66839">
        <ele>2143.5</ele>
        <time>2013-03-22T14:15:00Z</time>
      </trkpt>
      <trkpt lat="45.50443" lon="6.66876">
        <ele>2135.1999511719</ele>
        <time>2013-03-22T14:15:05Z</time>
      </trkpt>
      <trkpt lat="45.50444" lon="6.66919">
        <ele>2127.6000976562</ele>
        <time>2013-03-22T14:15:09Z</time>
      </trkpt>
      <trkpt lat="45.50464" lon="6.66951">
        <ele>2115.1999511719</ele>
        <time>2013-03-22T14:15:14Z</time>
      </trkpt>
      <trkpt lat="45.50494" lon="6.66957">
        <ele>2104</ele>
        <time>2013-03-22T14:15:19Z</time>
      </trkpt>
      <trkpt lat="45.50494" lon="6.66999">
        <ele>2090.8000488281</ele>
        <time>2013-03-22T14:15:26Z</time>
      </trkpt>
      <trkpt lat="45.50484" lon="6.67036">
        <ele>2083.6000976562</ele>
        <time>2013-03-22T14:15:31Z</time>
      </trkpt>
      <trkpt lat="45.50493" lon="6.67078">
        <ele>2069.8999023438</ele>
        <time>2013-03-22T14:15:40Z</time>
      </trkpt>
      <trkpt lat="45.50503" lon="6.67115">
        <ele>2061.6999511719</ele>
        <time>2013-03-22T14:15:45Z</time>
      </trkpt>
      <trkpt lat="45.50515" lon="6.67151">
        <ele>2044.3000488281</ele>
        <time>2013-03-22T14:15:51Z</time>
      </trkpt>
      <trkpt lat="45.50512" lon="6.67195">
        <ele>2034</ele>
        <time>2013-03-22T14:15:56Z</time>
      </trkpt>
      <trkpt lat="45.50506" lon="6.67236">
        <ele>2024.6999511719</ele>
        <time>2013-03-22T14:15:59Z</time>
      </trkpt>
      <trkpt lat="45.50497" lon="6.67276">
        <ele>2019.8999023438</ele>
        <time>2013-03-22T14:16:02Z</time>
      </trkpt>
      <trkpt lat="45.5049" lon="6.67324">
        <ele>2012</ele>
        <time>2013-03-22T14:16:05Z</time>
      </trkpt>
      <trkpt lat="45.50483" lon="6.67371">
        <ele>2010.3000488281</ele>
        <time>2013-03-22T14:16:08Z</time>
      </trkpt>
      <trkpt lat="45.50475" lon="6.6741">
        <ele>2007.5</ele>
        <time>2013-03-22T14:16:11Z</time>
      </trkpt>
      <trkpt lat="45.50468" lon="6.67451">
        <ele>2004.3999023438</ele>
        <time>2013-03-22T14:16:15Z</time>
      </trkpt>
      <trkpt lat="45.5045" lon="6.67406">
        <ele>2006.1999511719</ele>
        <time>2013-03-22T14:19:42Z</time>
      </trkpt>
      <trkpt lat="45.50439" lon="6.67364">
        <ele>2005.1999511719</ele>
        <time>2013-03-22T14:19:48Z</time>
      </trkpt>
      <trkpt lat="45.50429" lon="6.67324">
        <ele>2010.5</ele>
        <time>2013-03-22T14:19:53Z</time>
      </trkpt>
      <trkpt lat="45.50421" lon="6.67285">
        <ele>2017.8000488281</ele>
        <time>2013-03-22T14:19:59Z</time>
      </trkpt>
      <trkpt lat="45.50413" lon="6.67247">
        <ele>2024.3999023438</ele>
        <time>2013-03-22T14:20:05Z</time>
      </trkpt>
      <trkpt lat="45.50404" lon="6.67209">
        <ele>2034.6000976562</ele>
        <time>2013-03-22T14:20:11Z</time>
      </trkpt>
      <trkpt lat="45.50395" lon="6.67171">
        <ele>2044.6999511719</ele>
        <time>2013-03-22T14:20:17Z</time>
      </trkpt>
      <trkpt lat="45.50386" lon="6.67127">
        <ele>2058.8000488281</ele>
        <time>2013-03-22T14:20:24Z</time>
      </trkpt>
      <trkpt lat="45.50378" lon="6.67085">
        <ele>2070</ele>
        <time>2013-03-22T14:20:31Z</time>
      </trkpt>
      <trkpt lat="45.50369" lon="6.67046">
        <ele>2080.3000488281</ele>
        <time>2013-03-22T14:20:37Z</time>
      </trkpt>
      <trkpt lat="45.50361" lon="6.67007">
        <ele>2089.8000488281</ele>
        <time>2013-03-22T14:20:43Z</time>
      </trkpt>
      <trkpt lat="45.50353" lon="6.66969">
        <ele>2100.3000488281</ele>
        <time>2013-03-22T14:20:49Z</time>
      </trkpt>
      <trkpt lat="45.50344" lon="6.66927">
        <ele>2114.1000976562</ele>
        <time>2013-03-22T14:20:56Z</time>
      </trkpt>
      <trkpt lat="45.50335" lon="6.66888">
        <ele>2125.3000488281</ele>
        <time>2013-03-22T14:21:03Z</time>
      </trkpt>
      <trkpt lat="45.50326" lon="6.66846">
        <ele>2133.1000976562</ele>
        <time>2013-03-22T14:21:09Z</time>
      </trkpt>
      <trkpt lat="45.50318" lon="6.66808">
        <ele>2143.5</ele>
        <time>2013-03-22T14:21:15Z</time>
      </trkpt>
      <trkpt lat="45.50309" lon="6.66764">
        <ele>2154.8999023438</ele>
        <time>2013-03-22T14:21:22Z</time>
      </trkpt>
      <trkpt lat="45.50301" lon="6.66726">
        <ele>2166.3999023438</ele>
        <time>2013-03-22T14:21:28Z</time>
      </trkpt>
      <trkpt lat="45.50293" lon="6.66686">
        <ele>2173</ele>
        <time>2013-03-22T14:21:34Z</time>
      </trkpt>
      <trkpt lat="45.50285" lon="6.66646">
        <ele>2182</ele>
        <time>2013-03-22T14:21:40Z</time>
      </trkpt>
      <trkpt lat="45.50277" lon="6.66608">
        <ele>2189.8000488281</ele>
        <time>2013-03-22T14:21:46Z</time>
      </trkpt>
      <trkpt lat="45.50268" lon="6.66569">
        <ele>2199.1999511719</ele>
        <time>2013-03-22T14:21:52Z</time>
      </trkpt>
      <trkpt lat="45.50261" lon="6.66529">
        <ele>2209</ele>
        <time>2013-03-22T14:21:58Z</time>
      </trkpt>
      <trkpt lat="45.50252" lon="6.66492">
        <ele>2220.1000976562</ele>
        <time>2013-03-22T14:22:04Z</time>
      </trkpt>
      <trkpt lat="45.50243" lon="6.66451">
        <ele>2231</ele>
        <time>2013-03-22T14:22:11Z</time>
      </trkpt>
      <trkpt lat="45.50235" lon="6.66413">
        <ele>2242.3999023438</ele>
        <time>2013-03-22T14:22:17Z</time>
      </trkpt>
      <trkpt lat="45.50225" lon="6.66369">
        <ele>2256.3999023438</ele>
        <time>2013-03-22T14:22:24Z</time>
      </trkpt>
      <trkpt lat="45.50215" lon="6.66327">
        <ele>2273.8000488281</ele>
        <time>2013-03-22T14:22:31Z</time>
      </trkpt>
      <trkpt lat="45.50207" lon="6.66289">
        <ele>2287.3999023438</ele>
        <time>2013-03-22T14:22:37Z</time>
      </trkpt>
      <trkpt lat="45.50198" lon="6.6625">
        <ele>2303.3999023438</ele>
        <time>2013-03-22T14:22:44Z</time>
      </trkpt>
      <trkpt lat="45.5019" lon="6.66205">
        <ele>2320.6000976562</ele>
        <time>2013-03-22T14:22:52Z</time>
      </trkpt>
      <trkpt lat="45.5018" lon="6.66166">
        <ele>2328.8999023438</ele>
        <time>2013-03-22T14:23:01Z</time>
      </trkpt>
      <trkpt lat="45.50195" lon="6.66131">
        <ele>2338.3999023438</ele>
        <time>2013-03-22T14:23:17Z</time>
      </trkpt>
      <trkpt lat="45.50224" lon="6.66121">
        <ele>2337.5</ele>
        <time>2013-03-22T14:23:30Z</time>
      </trkpt>
      <trkpt lat="45.50252" lon="6.66117">
        <ele>2335.5</ele>
        <time>2013-03-22T14:23:36Z</time>
      </trkpt>
      <trkpt lat="45.50282" lon="6.66101">
        <ele>2333</ele>
        <time>2013-03-22T14:23:41Z</time>
      </trkpt>
      <trkpt lat="45.50315" lon="6.66087">
        <ele>2328.6000976562</ele>
        <time>2013-03-22T14:23:46Z</time>
      </trkpt>
      <trkpt lat="45.5035" lon="6.66084">
        <ele>2325.3999023438</ele>
        <time>2013-03-22T14:23:51Z</time>
      </trkpt>
      <trkpt lat="45.50383" lon="6.66081">
        <ele>2319.6999511719</ele>
        <time>2013-03-22T14:23:55Z</time>
      </trkpt>
      <trkpt lat="45.50414" lon="6.66078">
        <ele>2318.6999511719</ele>
        <time>2013-03-22T14:23:59Z</time>
      </trkpt>
      <trkpt lat="45.50443" lon="6.66076">
        <ele>2317.6000976562</ele>
        <time>2013-03-22T14:24:03Z</time>
      </trkpt>
      <trkpt lat="45.50473" lon="6.66073">
        <ele>2316.8000488281</ele>
        <time>2013-03-22T14:24:08Z</time>
      </trkpt>
      <trkpt lat="45.50504" lon="6.66078">
        <ele>2315.6999511719</ele>
        <time>2013-03-22T14:24:45Z</time>
      </trkpt>
      <trkpt lat="45.50538" lon="6.66088">
        <ele>2306.6999511719</ele>
        <time>2013-03-22T14:24:50Z</time>
      </trkpt>
      <trkpt lat="45.50566" lon="6.66092">
        <ele>2300.5</ele>
        <time>2013-03-22T14:24:53Z</time>
      </trkpt>
      <trkpt lat="45.50601" lon="6.66097">
        <ele>2299.1999511719</ele>
        <time>2013-03-22T14:24:57Z</time>
      </trkpt>
      <trkpt lat="45.5063" lon="6.66101">
        <ele>2298.3000488281</ele>
        <time>2013-03-22T14:25:01Z</time>
      </trkpt>
      <trkpt lat="45.50658" lon="6.66123">
        <ele>2290.1000976562</ele>
        <time>2013-03-22T14:25:06Z</time>
      </trkpt>
      <trkpt lat="45.50688" lon="6.66106">
        <ele>2283.6999511719</ele>
        <time>2013-03-22T14:25:12Z</time>
      </trkpt>
      <trkpt lat="45.50717" lon="6.66115">
        <ele>2275.8000488281</ele>
        <time>2013-03-22T14:25:23Z</time>
      </trkpt>
      <trkpt lat="45.50741" lon="6.66089">
        <ele>2266.5</ele>
        <time>2013-03-22T14:25:29Z</time>
      </trkpt>
      <trkpt lat="45.50769" lon="6.66085">
        <ele>2254.8999023438</ele>
        <time>2013-03-22T14:25:35Z</time>
      </trkpt>
      <trkpt lat="45.50799" lon="6.66082">
        <ele>2226</ele>
        <time>2013-03-22T14:26:47Z</time>
      </trkpt>
      <trkpt lat="45.50828" lon="6.66088">
        <ele>2214</ele>
        <time>2013-03-22T14:26:55Z</time>
      </trkpt>
      <trkpt lat="45.50849" lon="6.66115">
        <ele>2195.5</ele>
        <time>2013-03-22T14:27:02Z</time>
      </trkpt>
      <trkpt lat="45.50878" lon="6.66132">
        <ele>2152.8000488281</ele>
        <time>2013-03-22T14:27:36Z</time>
      </trkpt>
      <trkpt lat="45.50905" lon="6.66133">
        <ele>2140.6000976562</ele>
        <time>2013-03-22T14:27:41Z</time>
      </trkpt>
      <trkpt lat="45.5093" lon="6.66113">
        <ele>2126.6999511719</ele>
        <time>2013-03-22T14:27:47Z</time>
      </trkpt>
      <trkpt lat="45.50961" lon="6.6611">
        <ele>2120.1999511719</ele>
        <time>2013-03-22T14:27:53Z</time>
      </trkpt>
      <trkpt lat="45.50989" lon="6.66117">
        <ele>2104.6999511719</ele>
        <time>2013-03-22T14:28:03Z</time>
      </trkpt>
      <trkpt lat="45.51018" lon="6.66118">
        <ele>2091.8999023438</ele>
        <time>2013-03-22T14:32:32Z</time>
      </trkpt>
      <trkpt lat="45.51042" lon="6.66086">
        <ele>2067.1000976562</ele>
        <time>2013-03-22T14:32:41Z</time>
      </trkpt>
      <trkpt lat="45.51066" lon="6.66064">
        <ele>2056.8000488281</ele>
        <time>2013-03-22T14:32:46Z</time>
      </trkpt>
      <trkpt lat="45.51094" lon="6.66049">
        <ele>2053</ele>
        <time>2013-03-22T14:32:51Z</time>
      </trkpt>
      <trkpt lat="45.5112" lon="6.66028">
        <ele>2047.6000976562</ele>
        <time>2013-03-22T14:32:55Z</time>
      </trkpt>
      <trkpt lat="45.51144" lon="6.66002">
        <ele>2036.1000976562</ele>
        <time>2013-03-22T14:33:00Z</time>
      </trkpt>
      <trkpt lat="45.51163" lon="6.65967">
        <ele>2014.3000488281</ele>
        <time>2013-03-22T14:34:09Z</time>
      </trkpt>
      <trkpt lat="45.51179" lon="6.65934">
        <ele>1999.9000244141</ele>
        <time>2013-03-22T14:34:16Z</time>
      </trkpt>
      <trkpt lat="45.51203" lon="6.65908">
        <ele>1985.8000488281</ele>
        <time>2013-03-22T14:34:24Z</time>
      </trkpt>
      <trkpt lat="45.51229" lon="6.65897">
        <ele>1968.6999511719</ele>
        <time>2013-03-22T14:34:32Z</time>
      </trkpt>
      <trkpt lat="45.51253" lon="6.65877">
        <ele>1961.5</ele>
        <time>2013-03-22T14:34:37Z</time>
      </trkpt>
      <trkpt lat="45.51281" lon="6.6588">
        <ele>1939.5</ele>
        <time>2013-03-22T14:36:44Z</time>
      </trkpt>
      <trkpt lat="45.51299" lon="6.65847">
        <ele>1921.8000488281</ele>
        <time>2013-03-22T14:36:51Z</time>
      </trkpt>
      <trkpt lat="45.51325" lon="6.65834">
        <ele>1908.5999755859</ele>
        <time>2013-03-22T14:36:57Z</time>
      </trkpt>
      <trkpt lat="45.51345" lon="6.65799">
        <ele>1902.6999511719</ele>
        <time>2013-03-22T14:37:05Z</time>
      </trkpt>
      <trkpt lat="45.51376" lon="6.65788">
        <ele>1893.0999755859</ele>
        <time>2013-03-22T14:37:10Z</time>
      </trkpt>
      <trkpt lat="45.5141" lon="6.65778">
        <ele>1882.9000244141</ele>
        <time>2013-03-22T14:37:12Z</time>
      </trkpt>
      <trkpt lat="45.51437" lon="6.65762">
        <ele>1871.5</ele>
        <time>2013-03-22T14:37:14Z</time>
      </trkpt>
      <trkpt lat="45.51465" lon="6.65742">
        <ele>1863.8000488281</ele>
        <time>2013-03-22T14:37:16Z</time>
      </trkpt>
      <trkpt lat="45.51494" lon="6.65738">
        <ele>1858.6999511719</ele>
        <time>2013-03-22T14:37:18Z</time>
      </trkpt>
      <trkpt lat="45.51531" lon="6.65754">
        <ele>1852.9000244141</ele>
        <time>2013-03-22T14:37:21Z</time>
      </trkpt>
      <trkpt lat="45.51555" lon="6.65782">
        <ele>1845.0999755859</ele>
        <time>2013-03-22T14:37:24Z</time>
      </trkpt>
      <trkpt lat="45.51573" lon="6.65819">
        <ele>1838.4000244141</ele>
        <time>2013-03-22T14:37:27Z</time>
      </trkpt>
      <trkpt lat="45.51592" lon="6.65854">
        <ele>1831.0999755859</ele>
        <time>2013-03-22T14:37:30Z</time>
      </trkpt>
      <trkpt lat="45.51617" lon="6.65877">
        <ele>1824.1999511719</ele>
        <time>2013-03-22T14:37:33Z</time>
      </trkpt>
      <trkpt lat="45.51641" lon="6.65909">
        <ele>1816.8000488281</ele>
        <time>2013-03-22T14:37:37Z</time>
      </trkpt>
      <trkpt lat="45.51665" lon="6.65944">
        <ele>1814.3000488281</ele>
        <time>2013-03-22T14:37:41Z</time>
      </trkpt>
      <trkpt lat="45.51688" lon="6.65971">
        <ele>1808</ele>
        <time>2013-03-22T14:37:45Z</time>
      </trkpt>
      <trkpt lat="45.51711" lon="6.65995">
        <ele>1802.5999755859</ele>
        <time>2013-03-22T14:37:48Z</time>
      </trkpt>
      <trkpt lat="45.51737" lon="6.65982">
        <ele>1797.9000244141</ele>
        <time>2013-03-22T14:42:29Z</time>
      </trkpt>
      <trkpt lat="45.51737" lon="6.65942">
        <ele>1796.6999511719</ele>
        <time>2013-03-22T14:42:47Z</time>
      </trkpt>
      <trkpt lat="45.51736" lon="6.65902">
        <ele>1799.3000488281</ele>
        <time>2013-03-22T14:43:02Z</time>
      </trkpt>
      <trkpt lat="45.51736" lon="6.65863">
        <ele>1820.6999511719</ele>
        <time>2013-03-22T14:43:20Z</time>
      </trkpt>
      <trkpt lat="45.51736" lon="6.65823">
        <ele>1836.3000488281</ele>
        <time>2013-03-22T14:43:37Z</time>
      </trkpt>
      <trkpt lat="45.51735" lon="6.65784">
        <ele>1851.8000488281</ele>
        <time>2013-03-22T14:43:54Z</time>
      </trkpt>
      <trkpt lat="45.51733" lon="6.65744">
        <ele>1867.1999511719</ele>
        <time>2013-03-22T14:44:15Z</time>
      </trkpt>
      <trkpt lat="45.5173" lon="6.65704">
        <ele>1882.6999511719</ele>
        <time>2013-03-22T14:44:33Z</time>
      </trkpt>
      <trkpt lat="45.5173" lon="6.65663">
        <ele>1894</ele>
        <time>2013-03-22T14:44:51Z</time>
      </trkpt>
      <trkpt lat="45.51728" lon="6.65622">
        <ele>1907.8000488281</ele>
        <time>2013-03-22T14:45:08Z</time>
      </trkpt>
      <trkpt lat="45.51726" lon="6.65582">
        <ele>1919.5999755859</ele>
        <time>2013-03-22T14:45:27Z</time>
      </trkpt>
      <trkpt lat="45.51724" lon="6.65542">
        <ele>1927.0999755859</ele>
        <time>2013-03-22T14:45:45Z</time>
      </trkpt>
      <trkpt lat="45.51723" lon="6.65502">
        <ele>1936.0999755859</ele>
        <time>2013-03-22T14:46:03Z</time>
      </trkpt>
      <trkpt lat="45.51721" lon="6.65461">
        <ele>1939.5</ele>
        <time>2013-03-22T14:46:19Z</time>
      </trkpt>
      <trkpt lat="45.5172" lon="6.6542">
        <ele>1945.9000244141</ele>
        <time>2013-03-22T14:46:38Z</time>
      </trkpt>
      <trkpt lat="45.51717" lon="6.65379">
        <ele>1958</ele>
        <time>2013-03-22T14:46:57Z</time>
      </trkpt>
      <trkpt lat="45.51716" lon="6.6534">
        <ele>1958.9000244141</ele>
        <time>2013-03-22T14:47:12Z</time>
      </trkpt>
      <trkpt lat="45.51716" lon="6.65299">
        <ele>1966.4000244141</ele>
        <time>2013-03-22T14:47:29Z</time>
      </trkpt>
      <trkpt lat="45.51715" lon="6.6526">
        <ele>1969.1999511719</ele>
        <time>2013-03-22T14:47:46Z</time>
      </trkpt>
      <trkpt lat="45.51713" lon="6.65218">
        <ele>1970.5999755859</ele>
        <time>2013-03-22T14:48:02Z</time>
      </trkpt>
      <trkpt lat="45.51711" lon="6.65177">
        <ele>1972.1999511719</ele>
        <time>2013-03-22T14:48:18Z</time>
      </trkpt>
      <trkpt lat="45.5171" lon="6.65136">
        <ele>1976.3000488281</ele>
        <time>2013-03-22T14:48:34Z</time>
      </trkpt>
      <trkpt lat="45.51703" lon="6.65095">
        <ele>1977.5</ele>
        <time>2013-03-22T14:48:50Z</time>
      </trkpt>
      <trkpt lat="45.51697" lon="6.65136">
        <ele>1975.5999755859</ele>
        <time>2013-03-22T14:49:00Z</time>
      </trkpt>
      <trkpt lat="45.51706" lon="6.65176">
        <ele>1971.9000244141</ele>
        <time>2013-03-22T14:49:04Z</time>
      </trkpt>
      <trkpt lat="45.51715" lon="6.65217">
        <ele>1972.0999755859</ele>
        <time>2013-03-22T14:49:08Z</time>
      </trkpt>
      <trkpt lat="45.51716" lon="6.65262">
        <ele>1970.5</ele>
        <time>2013-03-22T14:49:13Z</time>
      </trkpt>
      <trkpt lat="45.51715" lon="6.65309">
        <ele>1967.9000244141</ele>
        <time>2013-03-22T14:49:17Z</time>
      </trkpt>
      <trkpt lat="45.51723" lon="6.65356">
        <ele>1961.5</ele>
        <time>2013-03-22T14:49:21Z</time>
      </trkpt>
      <trkpt lat="45.51733" lon="6.65397">
        <ele>1958.0999755859</ele>
        <time>2013-03-22T14:49:24Z</time>
      </trkpt>
      <trkpt lat="45.51741" lon="6.65439">
        <ele>1955.5999755859</ele>
        <time>2013-03-22T14:49:27Z</time>
      </trkpt>
      <trkpt lat="45.51748" lon="6.65489">
        <ele>1952.3000488281</ele>
        <time>2013-03-22T14:49:31Z</time>
      </trkpt>
      <trkpt lat="45.51755" lon="6.65532">
        <ele>1945.1999511719</ele>
        <time>2013-03-22T14:49:37Z</time>
      </trkpt>
      <trkpt lat="45.51763" lon="6.65576">
        <ele>1932.4000244141</ele>
        <time>2013-03-22T14:49:43Z</time>
      </trkpt>
      <trkpt lat="45.51768" lon="6.65621">
        <ele>1914.3000488281</ele>
        <time>2013-03-22T14:49:52Z</time>
      </trkpt>
      <trkpt lat="45.51754" lon="6.6566">
        <ele>1908.1999511719</ele>
        <time>2013-03-22T14:49:58Z</time>
      </trkpt>
      <trkpt lat="45.51758" lon="6.65703">
        <ele>1903.4000244141</ele>
        <time>2013-03-22T14:50:02Z</time>
      </trkpt>
      <trkpt lat="45.51768" lon="6.65743">
        <ele>1885.9000244141</ele>
        <time>2013-03-22T14:50:10Z</time>
      </trkpt>
      <trkpt lat="45.51762" lon="6.65783">
        <ele>1870.5</ele>
        <time>2013-03-22T14:50:16Z</time>
      </trkpt>
      <trkpt lat="45.51763" lon="6.65823">
        <ele>1860.0999755859</ele>
        <time>2013-03-22T14:50:20Z</time>
      </trkpt>
      <trkpt lat="45.51751" lon="6.65858">
        <ele>1859.6999511719</ele>
        <time>2013-03-22T14:50:23Z</time>
      </trkpt>
      <trkpt lat="45.51742" lon="6.65906">
        <ele>1855</ele>
        <time>2013-03-22T14:50:27Z</time>
      </trkpt>
      <trkpt lat="45.51753" lon="6.65954">
        <ele>1833.4000244141</ele>
        <time>2013-03-22T14:50:34Z</time>
      </trkpt>
      <trkpt lat="45.51745" lon="6.66003">
        <ele>1819.0999755859</ele>
        <time>2013-03-22T14:50:39Z</time>
      </trkpt>
      <trkpt lat="45.51743" lon="6.65963">
        <ele>1804.1999511719</ele>
        <time>2013-03-22T14:51:24Z</time>
      </trkpt>
      <trkpt lat="45.51741" lon="6.65923">
        <ele>1820</ele>
        <time>2013-03-22T14:51:40Z</time>
      </trkpt>
      <trkpt lat="45.51738" lon="6.65882">
        <ele>1827.5</ele>
        <time>2013-03-22T14:51:58Z</time>
      </trkpt>
      <trkpt lat="45.51737" lon="6.65843">
        <ele>1839.9000244141</ele>
        <time>2013-03-22T14:52:15Z</time>
      </trkpt>
      <trkpt lat="45.51736" lon="6.65804">
        <ele>1852</ele>
        <time>2013-03-22T14:52:34Z</time>
      </trkpt>
      <trkpt lat="45.51735" lon="6.65763">
        <ele>1857.9000244141</ele>
        <time>2013-03-22T14:52:52Z</time>
      </trkpt>
      <trkpt lat="45.51735" lon="6.65721">
        <ele>1865.6999511719</ele>
        <time>2013-03-22T14:53:11Z</time>
      </trkpt>
      <trkpt lat="45.51732" lon="6.65681">
        <ele>1875.5999755859</ele>
        <time>2013-03-22T14:53:29Z</time>
      </trkpt>
      <trkpt lat="45.51732" lon="6.65641">
        <ele>1884.0999755859</ele>
        <time>2013-03-22T14:53:46Z</time>
      </trkpt>
      <trkpt lat="45.51728" lon="6.656">
        <ele>1904.8000488281</ele>
        <time>2013-03-22T14:54:09Z</time>
      </trkpt>
      <trkpt lat="45.51729" lon="6.65561">
        <ele>1911</ele>
        <time>2013-03-22T14:54:27Z</time>
      </trkpt>
      <trkpt lat="45.51727" lon="6.6552">
        <ele>1922.6999511719</ele>
        <time>2013-03-22T14:54:43Z</time>
      </trkpt>
      <trkpt lat="45.51728" lon="6.65481">
        <ele>1932.0999755859</ele>
        <time>2013-03-22T14:54:59Z</time>
      </trkpt>
      <trkpt lat="45.51725" lon="6.65439">
        <ele>1936.9000244141</ele>
        <time>2013-03-22T14:55:14Z</time>
      </trkpt>
      <trkpt lat="45.51722" lon="6.65399">
        <ele>1946.3000488281</ele>
        <time>2013-03-22T14:55:34Z</time>
      </trkpt>
      <trkpt lat="45.51722" lon="6.6536">
        <ele>1950.0999755859</ele>
        <time>2013-03-22T14:55:51Z</time>
      </trkpt>
      <trkpt lat="45.51717" lon="6.65321">
        <ele>1952.5</ele>
        <time>2013-03-22T14:56:06Z</time>
      </trkpt>
      <trkpt lat="45.51717" lon="6.65282">
        <ele>1958.1999511719</ele>
        <time>2013-03-22T14:56:21Z</time>
      </trkpt>
      <trkpt lat="45.51719" lon="6.65242">
        <ele>1961.5999755859</ele>
        <time>2013-03-22T14:56:39Z</time>
      </trkpt>
      <trkpt lat="45.51714" lon="6.65201">
        <ele>1966</ele>
        <time>2013-03-22T14:56:56Z</time>
      </trkpt>
      <trkpt lat="45.51713" lon="6.6516">
        <ele>1966.5999755859</ele>
        <time>2013-03-22T14:57:15Z</time>
      </trkpt>
      <trkpt lat="45.5171" lon="6.65121">
        <ele>1972.1999511719</ele>
        <time>2013-03-22T14:57:29Z</time>
      </trkpt>
      <trkpt lat="45.51713" lon="6.65078">
        <ele>1973.6999511719</ele>
        <time>2013-03-22T14:57:36Z</time>
      </trkpt>
      <trkpt lat="45.51723" lon="6.65041">
        <ele>1970.6999511719</ele>
        <time>2013-03-22T14:57:40Z</time>
      </trkpt>
      <trkpt lat="45.51734" lon="6.65001">
        <ele>1963.3000488281</ele>
        <time>2013-03-22T14:57:43Z</time>
      </trkpt>
      <trkpt lat="45.51747" lon="6.64948">
        <ele>1958.5</ele>
        <time>2013-03-22T14:57:46Z</time>
      </trkpt>
      <trkpt lat="45.51756" lon="6.64898">
        <ele>1956.3000488281</ele>
        <time>2013-03-22T14:57:49Z</time>
      </trkpt>
      <trkpt lat="45.51762" lon="6.64852">
        <ele>1954.8000488281</ele>
        <time>2013-03-22T14:57:53Z</time>
      </trkpt>
      <trkpt lat="45.51778" lon="6.64808">
        <ele>1948</ele>
        <time>2013-03-22T14:57:57Z</time>
      </trkpt>
      <trkpt lat="45.51805" lon="6.64777">
        <ele>1942.0999755859</ele>
        <time>2013-03-22T14:58:00Z</time>
      </trkpt>
      <trkpt lat="45.51831" lon="6.64746">
        <ele>1937.9000244141</ele>
        <time>2013-03-22T14:58:03Z</time>
      </trkpt>
      <trkpt lat="45.51841" lon="6.64708">
        <ele>1934.4000244141</ele>
        <time>2013-03-22T14:58:06Z</time>
      </trkpt>
      <trkpt lat="45.51847" lon="6.64669">
        <ele>1928.1999511719</ele>
        <time>2013-03-22T14:58:20Z</time>
      </trkpt>
      <trkpt lat="45.51856" lon="6.64621">
        <ele>1921.5999755859</ele>
        <time>2013-03-22T14:58:25Z</time>
      </trkpt>
      <trkpt lat="45.51868" lon="6.64581">
        <ele>1916.0999755859</ele>
        <time>2013-03-22T14:58:29Z</time>
      </trkpt>
      <trkpt lat="45.51891" lon="6.64552">
        <ele>1912.5999755859</ele>
        <time>2013-03-22T14:58:33Z</time>
      </trkpt>
      <trkpt lat="45.51922" lon="6.64538">
        <ele>1909.9000244141</ele>
        <time>2013-03-22T14:58:37Z</time>
      </trkpt>
      <trkpt lat="45.51957" lon="6.6452">
        <ele>1908.1999511719</ele>
        <time>2013-03-22T14:58:41Z</time>
      </trkpt>
      <trkpt lat="45.51984" lon="6.64506">
        <ele>1903.6999511719</ele>
        <time>2013-03-22T14:58:44Z</time>
      </trkpt>
      <trkpt lat="45.52011" lon="6.64524">
        <ele>1902.8000488281</ele>
        <time>2013-03-22T14:58:48Z</time>
      </trkpt>
      <trkpt lat="45.52042" lon="6.64525">
        <ele>1898.3000488281</ele>
        <time>2013-03-22T14:59:03Z</time>
      </trkpt>
      <trkpt lat="45.52066" lon="6.64498">
        <ele>1886.5</ele>
        <time>2013-03-22T14:59:07Z</time>
      </trkpt>
      <trkpt lat="45.52078" lon="6.64463">
        <ele>1878.5999755859</ele>
        <time>2013-03-22T14:59:13Z</time>
      </trkpt>
      <trkpt lat="45.52088" lon="6.64424">
        <ele>1873.1999511719</ele>
        <time>2013-03-22T14:59:17Z</time>
      </trkpt>
      <trkpt lat="45.52115" lon="6.64405">
        <ele>1864.0999755859</ele>
        <time>2013-03-22T14:59:23Z</time>
      </trkpt>
      <trkpt lat="45.52143" lon="6.64401">
        <ele>1860.5999755859</ele>
        <time>2013-03-22T14:59:27Z</time>
      </trkpt>
      <trkpt lat="45.52169" lon="6.64389">
        <ele>1851</ele>
        <time>2013-03-22T14:59:32Z</time>
      </trkpt>
      <trkpt lat="45.5219" lon="6.64361">
        <ele>1841</ele>
        <time>2013-03-22T14:59:35Z</time>
      </trkpt>
      <trkpt lat="45.5221" lon="6.64321">
        <ele>1831</ele>
        <time>2013-03-22T14:59:38Z</time>
      </trkpt>
      <trkpt lat="45.52228" lon="6.64287">
        <ele>1824.6999511719</ele>
        <time>2013-03-22T14:59:41Z</time>
      </trkpt>
      <trkpt lat="45.52253" lon="6.64268">
        <ele>1820</ele>
        <time>2013-03-22T14:59:47Z</time>
      </trkpt>
      <trkpt lat="45.52275" lon="6.64239">
        <ele>1818</ele>
        <time>2013-03-22T14:59:56Z</time>
      </trkpt>
      <trkpt lat="45.52295" lon="6.64209">
        <ele>1812.0999755859</ele>
        <time>2013-03-22T15:00:08Z</time>
      </trkpt>
      <trkpt lat="45.52323" lon="6.64177">
        <ele>1801.9000244141</ele>
        <time>2013-03-22T15:00:13Z</time>
      </trkpt>
      <trkpt lat="45.52347" lon="6.64152">
        <ele>1798.5999755859</ele>
        <time>2013-03-22T15:00:16Z</time>
      </trkpt>
      <trkpt lat="45.5236" lon="6.64108">
        <ele>1794</ele>
        <time>2013-03-22T15:00:20Z</time>
      </trkpt>
      <trkpt lat="45.52376" lon="6.6407">
        <ele>1790.0999755859</ele>
        <time>2013-03-22T15:00:25Z</time>
      </trkpt>
      <trkpt lat="45.52403" lon="6.64043">
        <ele>1784.6999511719</ele>
        <time>2013-03-22T15:00:29Z</time>
      </trkpt>
      <trkpt lat="45.52416" lon="6.64007">
        <ele>1773.4000244141</ele>
        <time>2013-03-22T15:00:33Z</time>
      </trkpt>
      <trkpt lat="45.52446" lon="6.63977">
        <ele>1764.9000244141</ele>
        <time>2013-03-22T15:00:37Z</time>
      </trkpt>
      <trkpt lat="45.5247" lon="6.6395">
        <ele>1758.5</ele>
        <time>2013-03-22T15:00:40Z</time>
      </trkpt>
      <trkpt lat="45.52496" lon="6.63928">
        <ele>1753.1999511719</ele>
        <time>2013-03-22T15:00:43Z</time>
      </trkpt>
      <trkpt lat="45.52519" lon="6.63894">
        <ele>1740.0999755859</ele>
        <time>2013-03-22T15:00:47Z</time>
      </trkpt>
      <trkpt lat="45.52537" lon="6.63864">
        <ele>1731.5999755859</ele>
        <time>2013-03-22T15:00:51Z</time>
      </trkpt>
      <trkpt lat="45.52564" lon="6.6385">
        <ele>1726.0999755859</ele>
        <time>2013-03-22T15:00:54Z</time>
      </trkpt>
      <trkpt lat="45.52584" lon="6.63812">
        <ele>1708.8000488281</ele>
        <time>2013-03-22T15:00:59Z</time>
      </trkpt>
      <trkpt lat="45.52596" lon="6.63776">
        <ele>1697.8000488281</ele>
        <time>2013-03-22T15:01:04Z</time>
      </trkpt>
      <trkpt lat="45.52625" lon="6.63763">
        <ele>1677.5</ele>
        <time>2013-03-22T15:01:14Z</time>
      </trkpt>
      <trkpt lat="45.52644" lon="6.63733">
        <ele>1662.1999511719</ele>
        <time>2013-03-22T15:01:20Z</time>
      </trkpt>
      <trkpt lat="45.52671" lon="6.63701">
        <ele>1656</ele>
        <time>2013-03-22T15:01:24Z</time>
      </trkpt>
      <trkpt lat="45.52695" lon="6.63678">
        <ele>1642.4000244141</ele>
        <time>2013-03-22T15:01:30Z</time>
      </trkpt>
      <trkpt lat="45.52728" lon="6.63687">
        <ele>1638.3000488281</ele>
        <time>2013-03-22T15:01:34Z</time>
      </trkpt>
      <trkpt lat="45.52756" lon="6.6367">
        <ele>1612.9000244141</ele>
        <time>2013-03-22T15:01:57Z</time>
      </trkpt>
      <trkpt lat="45.52787" lon="6.63671">
        <ele>1612.0999755859</ele>
        <time>2013-03-22T15:02:01Z</time>
      </trkpt>
      <trkpt lat="45.52815" lon="6.63675">
        <ele>1610.6999511719</ele>
        <time>2013-03-22T15:02:05Z</time>
      </trkpt>
      <trkpt lat="45.52841" lon="6.63657">
        <ele>1597.6999511719</ele>
        <time>2013-03-22T15:02:24Z</time>
      </trkpt>
      <trkpt lat="45.52864" lon="6.63629">
        <ele>1584.4000244141</ele>
        <time>2013-03-22T15:02:36Z</time>
      </trkpt>
      <trkpt lat="45.52901" lon="6.63619">
        <ele>1580.4000244141</ele>
        <time>2013-03-22T15:02:44Z</time>
      </trkpt>
      <trkpt lat="45.52935" lon="6.63617">
        <ele>1570</ele>
        <time>2013-03-22T15:02:52Z</time>
      </trkpt>
      <trkpt lat="45.52967" lon="6.63622">
        <ele>1566.8000488281</ele>
        <time>2013-03-22T15:02:57Z</time>
      </trkpt>
      <trkpt lat="45.52994" lon="6.6363">
        <ele>1568.0999755859</ele>
        <time>2013-03-22T15:03:00Z</time>
      </trkpt>
      <trkpt lat="45.53029" lon="6.63637">
        <ele>1565.1999511719</ele>
        <time>2013-03-22T15:03:04Z</time>
      </trkpt>
      <trkpt lat="45.53057" lon="6.63648">
        <ele>1560.4000244141</ele>
        <time>2013-03-22T15:03:08Z</time>
      </trkpt>
      <trkpt lat="45.53089" lon="6.63649">
        <ele>1505.1999511719</ele>
        <time>2013-03-22T15:03:33Z</time>
      </trkpt>
      <trkpt lat="45.53115" lon="6.63636">
        <ele>1501.6999511719</ele>
        <time>2013-03-22T15:03:37Z</time>
      </trkpt>
      <trkpt lat="45.53147" lon="6.63636">
        <ele>1497.4000244141</ele>
        <time>2013-03-22T15:03:40Z</time>
      </trkpt>
      <trkpt lat="45.53175" lon="6.63621">
        <ele>1475.6999511719</ele>
        <time>2013-03-22T15:03:47Z</time>
      </trkpt>
      <trkpt lat="45.53204" lon="6.63624">
        <ele>1445.3000488281</ele>
        <time>2013-03-22T15:04:18Z</time>
      </trkpt>
      <trkpt lat="45.53231" lon="6.63631">
        <ele>1433.1999511719</ele>
        <time>2013-03-22T15:04:22Z</time>
      </trkpt>
      <trkpt lat="45.53258" lon="6.63648">
        <ele>1428.4000244141</ele>
        <time>2013-03-22T15:04:25Z</time>
      </trkpt>
      <trkpt lat="45.53286" lon="6.63673">
        <ele>1423.6999511719</ele>
        <time>2013-03-22T15:04:28Z</time>
      </trkpt>
      <trkpt lat="45.53318" lon="6.63684">
        <ele>1409.4000244141</ele>
        <time>2013-03-22T15:04:32Z</time>
      </trkpt>
      <trkpt lat="45.53349" lon="6.63687">
        <ele>1401.9000244141</ele>
        <time>2013-03-22T15:04:35Z</time>
      </trkpt>
      <trkpt lat="45.5338" lon="6.63697">
        <ele>1395.8000488281</ele>
        <time>2013-03-22T15:04:38Z</time>
      </trkpt>
      <trkpt lat="45.53409" lon="6.637">
        <ele>1391.1999511719</ele>
        <time>2013-03-22T15:04:41Z</time>
      </trkpt>
      <trkpt lat="45.53441" lon="6.63703">
        <ele>1387.5</ele>
        <time>2013-03-22T15:04:44Z</time>
      </trkpt>
      <trkpt lat="45.53456" lon="6.63667">
        <ele>1362.5</ele>
        <time>2013-03-22T15:04:53Z</time>
      </trkpt>
      <trkpt lat="45.53428" lon="6.63657">
        <ele>1361.6999511719</ele>
        <time>2013-03-22T15:05:28Z</time>
      </trkpt>
      <trkpt lat="45.53399" lon="6.63655">
        <ele>1376.5999755859</ele>
        <time>2013-03-22T15:05:36Z</time>
      </trkpt>
      <trkpt lat="45.5337" lon="6.63651">
        <ele>1387.1999511719</ele>
        <time>2013-03-22T15:05:44Z</time>
      </trkpt>
      <trkpt lat="45.53341" lon="6.63648">
        <ele>1397.9000244141</ele>
        <time>2013-03-22T15:05:53Z</time>
      </trkpt>
      <trkpt lat="45.53312" lon="6.63648">
        <ele>1406.6999511719</ele>
        <time>2013-03-22T15:06:01Z</time>
      </trkpt>
      <trkpt lat="45.53282" lon="6.63647">
        <ele>1416.5999755859</ele>
        <time>2013-03-22T15:06:10Z</time>
      </trkpt>
      <trkpt lat="45.53254" lon="6.63646">
        <ele>1431</ele>
        <time>2013-03-22T15:06:18Z</time>
      </trkpt>
      <trkpt lat="45.53226" lon="6.63644">
        <ele>1437.0999755859</ele>
        <time>2013-03-22T15:06:27Z</time>
      </trkpt>
      <trkpt lat="45.53196" lon="6.63642">
        <ele>1447.1999511719</ele>
        <time>2013-03-22T15:06:36Z</time>
      </trkpt>
      <trkpt lat="45.53165" lon="6.6364">
        <ele>1457.4000244141</ele>
        <time>2013-03-22T15:06:45Z</time>
      </trkpt>
      <trkpt lat="45.53136" lon="6.63641">
        <ele>1470.6999511719</ele>
        <time>2013-03-22T15:06:54Z</time>
      </trkpt>
      <trkpt lat="45.53106" lon="6.63641">
        <ele>1481.9000244141</ele>
        <time>2013-03-22T15:07:03Z</time>
      </trkpt>
      <trkpt lat="45.53078" lon="6.63635">
        <ele>1493.1999511719</ele>
        <time>2013-03-22T15:07:12Z</time>
      </trkpt>
      <trkpt lat="45.53048" lon="6.63634">
        <ele>1507.5</ele>
        <time>2013-03-22T15:07:21Z</time>
      </trkpt>
      <trkpt lat="45.5302" lon="6.63633">
        <ele>1522.1999511719</ele>
        <time>2013-03-22T15:07:30Z</time>
      </trkpt>
      <trkpt lat="45.5299" lon="6.63631">
        <ele>1531.0999755859</ele>
        <time>2013-03-22T15:07:39Z</time>
      </trkpt>
      <trkpt lat="45.52961" lon="6.63629">
        <ele>1543.5</ele>
        <time>2013-03-22T15:07:48Z</time>
      </trkpt>
      <trkpt lat="45.52932" lon="6.6363">
        <ele>1555.4000244141</ele>
        <time>2013-03-22T15:07:57Z</time>
      </trkpt>
      <trkpt lat="45.52904" lon="6.63628">
        <ele>1559.4000244141</ele>
        <time>2013-03-22T15:08:14Z</time>
      </trkpt>
      <trkpt lat="45.52875" lon="6.63619">
        <ele>1560.5999755859</ele>
        <time>2013-03-22T15:08:33Z</time>
      </trkpt>
      <trkpt lat="45.52847" lon="6.63612">
        <ele>1564</ele>
        <time>2013-03-22T15:08:53Z</time>
      </trkpt>
      <trkpt lat="45.52819" lon="6.63612">
        <ele>1561.4000244141</ele>
        <time>2013-03-22T15:09:03Z</time>
      </trkpt>
      <trkpt lat="45.52789" lon="6.63616">
        <ele>1571.6999511719</ele>
        <time>2013-03-22T15:09:11Z</time>
      </trkpt>
      <trkpt lat="45.52762" lon="6.63606">
        <ele>1582.9000244141</ele>
        <time>2013-03-22T15:09:36Z</time>
      </trkpt>
      <trkpt lat="45.52792" lon="6.63614">
        <ele>1579.8000488281</ele>
        <time>2013-03-22T15:09:58Z</time>
      </trkpt>
      <trkpt lat="45.52823" lon="6.63618">
        <ele>1575.0999755859</ele>
        <time>2013-03-22T15:10:05Z</time>
      </trkpt>
      <trkpt lat="45.52854" lon="6.63619">
        <ele>1574.8000488281</ele>
        <time>2013-03-22T15:10:09Z</time>
      </trkpt>
      <trkpt lat="45.52884" lon="6.63621">
        <ele>1578.4000244141</ele>
        <time>2013-03-22T15:10:13Z</time>
      </trkpt>
      <trkpt lat="45.52912" lon="6.6362">
        <ele>1580.5</ele>
        <time>2013-03-22T15:10:18Z</time>
      </trkpt>
      <trkpt lat="45.52942" lon="6.63618">
        <ele>1576.5</ele>
        <time>2013-03-22T15:10:26Z</time>
      </trkpt>
      <trkpt lat="45.52969" lon="6.63632">
        <ele>1576.4000244141</ele>
        <time>2013-03-22T15:10:29Z</time>
      </trkpt>
      <trkpt lat="45.53005" lon="6.63629">
        <ele>1576.5999755859</ele>
        <time>2013-03-22T15:10:34Z</time>
      </trkpt>
      <trkpt lat="45.53032" lon="6.63641">
        <ele>1575</ele>
        <time>2013-03-22T15:10:38Z</time>
      </trkpt>
      <trkpt lat="45.5306" lon="6.6365">
        <ele>1559.5</ele>
        <time>2013-03-22T15:10:44Z</time>
      </trkpt>
      <trkpt lat="45.53035" lon="6.63628">
        <ele>1526.6999511719</ele>
        <time>2013-03-22T15:10:47Z</time>
      </trkpt>
      <trkpt lat="45.53064" lon="6.63639">
        <ele>1511.0999755859</ele>
        <time>2013-03-22T15:11:01Z</time>
      </trkpt>
      <trkpt lat="45.53093" lon="6.63647">
        <ele>1505.8000488281</ele>
        <time>2013-03-22T15:11:05Z</time>
      </trkpt>
      <trkpt lat="45.53125" lon="6.63641">
        <ele>1502.5</ele>
        <time>2013-03-22T15:11:08Z</time>
      </trkpt>
      <trkpt lat="45.53162" lon="6.63633">
        <ele>1499.9000244141</ele>
        <time>2013-03-22T15:11:12Z</time>
      </trkpt>
      <trkpt lat="45.53149" lon="6.63594">
        <ele>1474.5</ele>
        <time>2013-03-22T15:11:16Z</time>
      </trkpt>
      <trkpt lat="45.53168" lon="6.63564">
        <ele>1452.1999511719</ele>
        <time>2013-03-22T15:11:36Z</time>
      </trkpt>
      <trkpt lat="45.53199" lon="6.63555">
        <ele>1445.4000244141</ele>
        <time>2013-03-22T15:11:40Z</time>
      </trkpt>
      <trkpt lat="45.53228" lon="6.63557">
        <ele>1438.9000244141</ele>
        <time>2013-03-22T15:11:44Z</time>
      </trkpt>
      <trkpt lat="45.53259" lon="6.63548">
        <ele>1426.9000244141</ele>
        <time>2013-03-22T15:11:50Z</time>
      </trkpt>
      <trkpt lat="45.53248" lon="6.63511">
        <ele>1415.9000244141</ele>
        <time>2013-03-22T15:12:58Z</time>
      </trkpt>
      <trkpt lat="45.53239" lon="6.63474">
        <ele>1419.3000488281</ele>
        <time>2013-03-22T15:13:44Z</time>
      </trkpt>
      <trkpt lat="45.5323" lon="6.63437">
        <ele>1415.5999755859</ele>
        <time>2013-03-22T15:14:26Z</time>
      </trkpt>
      <trkpt lat="45.53224" lon="6.63398">
        <ele>1423.0999755859</ele>
        <time>2013-03-22T15:14:52Z</time>
      </trkpt>
      <trkpt lat="45.53213" lon="6.63362">
        <ele>1423.0999755859</ele>
        <time>2013-03-22T15:15:15Z</time>
      </trkpt>
      <trkpt lat="45.53204" lon="6.63325">
        <ele>1422.5</ele>
        <time>2013-03-22T15:15:39Z</time>
      </trkpt>
      <trkpt lat="45.53189" lon="6.63292">
        <ele>1428.1999511719</ele>
        <time>2013-03-22T15:15:58Z</time>
      </trkpt>
      <trkpt lat="45.53178" lon="6.63255">
        <ele>1422.3000488281</ele>
        <time>2013-03-22T15:16:33Z</time>
      </trkpt>
      <trkpt lat="45.53184" lon="6.63294">
        <ele>1411.0999755859</ele>
        <time>2013-03-22T15:23:17Z</time>
      </trkpt>
      <trkpt lat="45.53199" lon="6.63327">
        <ele>1417.0999755859</ele>
        <time>2013-03-22T15:23:42Z</time>
      </trkpt>
      <trkpt lat="45.53199" lon="6.63366">
        <ele>1422.5</ele>
        <time>2013-03-22T15:24:10Z</time>
      </trkpt>
      <trkpt lat="45.53204" lon="6.63406">
        <ele>1422.5999755859</ele>
        <time>2013-03-22T15:24:36Z</time>
      </trkpt>
      <trkpt lat="45.53213" lon="6.63444">
        <ele>1421.8000488281</ele>
        <time>2013-03-22T15:25:03Z</time>
      </trkpt>
    </trkseg>
  </trk>
</gpx>